[[{"header":{"parameterUnit":"m.s-1","parameterCategory":1,"la1":30.6,"la2":29.2853,"lo1":-89.7004,"lo2":-87.6739,"dx":0.0162,"dy":0.0183,"nx":112,"ny":82,"refTime":"2022-11-14T06:00:00:Z","depth":0,"parameterNumber":2,"parameterNumberName":"U-component_of_WINDS"},"data":[0.0,0.0,0.0,0.0,0.0,0.0,0.0,0.0,0.0,0.0,0.0,0.0,0.0,0.0,0.0,0.0,0.0,0.0,0.0,0.0,0.0,0.0,0.0,0.0,0.0,0.0,0.0,0.0,0.0,0.0,0.0,0.0,0.0,0.0,0.0,0.0,0.0,0.0,0.0,0.0,0.0,0.0,0.0,0.0,0.0,0.0,0.0,0.0,0.0,0.0,0.0,0.0,0.0,0.0,0.0,0.0,0.0,0.0,0.0,0.0,0.0,0.0,0.0,0.0,0.0,0.0,0.0,0.0,0.0,0.0,0.0,0.0,0.0,0.0,0.0,0.0,0.0,0.0,0.0,0.0,0.0,0.0,0.0,0.0,0.0,0.0,0.0,0.0,0.0,0.0,5.9636,6.1667,6.4261,6.5765,6.5508,6.4751,6.0823,5.2721,0.0,0.0,0.0,0.0,0.0,0.0,0.0,0.0,0.0,0.0,0.0,0.0,0.0,0.0,0.0,0.0,0.0,0.0,0.0,0.0,0.0,0.0,0.0,0.0,0.0,0.0,0.0,0.0,0.0,0.0,0.0,0.0,0.0,0.0,0.0,0.0,0.0,0.0,0.0,0.0,0.0,0.0,0.0,0.0,0.0,0.0,0.0,0.0,0.0,0.0,0.0,0.0,0.0,0.0,0.0,0.0,0.0,0.0,0.0,0.0,0.0,0.0,0.0,0.0,0.0,0.0,0.0,0.0,0.0,0.0,0.0,0.0,0.0,0.0,0.0,0.0,0.0,0.0,0.0,0.0,0.0,0.0,0.0,0.0,0.0,0.0,0.0,0.0,0.0,0.0,0.0,0.0,0.0,0.0,0.0,0.0,0.0,0.0,0.0,0.0,0.0,0.0,0.0,0.0,6.0114,6.7797,6.8458,6.7784,6.6439,6.5595,6.1655,5.3544,0.0,0.0,0.0,0.0,0.0,0.0,0.0,0.0,0.0,0.0,0.0,0.0,0.0,0.0,0.0,0.0,0.0,0.0,0.0,0.0,0.0,0.0,0.0,0.0,0.0,0.0,0.0,0.0,0.0,0.0,0.0,0.0,0.0,0.0,0.0,0.0,0.0,0.0,0.0,0.0,0.0,0.0,0.0,0.0,0.0,0.0,0.0,0.0,0.0,0.0,0.0,0.0,0.0,0.0,0.0,0.0,0.0,0.0,0.0,0.0,0.0,0.0,0.0,0.0,0.0,0.0,0.0,0.0,0.0,0.0,0.0,0.0,0.0,0.0,0.0,0.0,0.0,0.0,0.0,0.0,0.0,0.0,0.0,0.0,0.0,0.0,0.0,0.0,0.0,0.0,0.0,0.0,0.0,0.0,0.0,0.0,0.0,0.0,0.0,0.0,0.0,0.0,0.0,5.7446,6.2989,6.8825,6.9119,6.8394,6.7139,6.5983,6.1985,5.4243,5.2302,0.0,0.0,0.0,0.0,0.0,0.0,0.0,0.0,0.0,0.0,0.0,0.0,0.0,0.0,0.0,0.0,0.0,0.0,0.0,0.0,0.0,0.0,0.0,0.0,0.0,0.0,0.0,0.0,0.0,0.0,0.0,0.0,0.0,0.0,0.0,0.0,0.0,0.0,0.0,0.0,0.0,0.0,0.0,0.0,0.0,0.0,0.0,0.0,0.0,0.0,0.0,0.0,0.0,0.0,0.0,0.0,0.0,0.0,0.0,0.0,0.0,0.0,0.0,0.0,0.0,0.0,0.0,0.0,0.0,0.0,0.0,0.0,0.0,0.0,0.0,0.0,0.0,0.0,0.0,0.0,0.0,0.0,0.0,0.0,0.0,0.0,0.0,0.0,0.0,0.0,0.0,0.0,0.0,0.0,0.0,0.0,0.0,0.0,0.0,0.0,0.0,0.0,6.1887,6.7006,6.971,6.9938,6.942,6.8179,6.6136,6.1862,5.4667,5.2271,0.0,0.0,0.0,0.0,0.0,0.0,0.0,0.0,0.0,0.0,0.0,0.0,0.0,0.0,0.0,0.0,0.0,0.0,0.0,0.0,0.0,0.0,0.0,0.0,0.0,0.0,0.0,0.0,0.0,0.0,0.0,0.0,0.0,0.0,0.0,0.0,0.0,0.0,0.0,0.0,0.0,0.0,0.0,0.0,0.0,0.0,0.0,0.0,0.0,0.0,0.0,0.0,0.0,0.0,0.0,0.0,0.0,0.0,0.0,0.0,0.0,0.0,0.0,0.0,0.0,0.0,0.0,0.0,0.0,0.0,0.0,0.0,0.0,0.0,0.0,0.0,0.0,0.0,0.0,0.0,0.0,0.0,0.0,0.0,0.0,0.0,0.0,0.0,0.0,0.0,0.0,0.0,0.0,0.0,0.0,0.0,0.0,0.0,0.0,0.0,0.0,0.0,6.5724,7.188,7.3053,7.3021,7.2041,6.9921,6.6152,6.1127,5.4619,5.0648,0.0,0.0,0.0,0.0,0.0,0.0,0.0,0.0,0.0,0.0,0.0,0.0,0.0,0.0,0.0,0.0,0.0,0.0,0.0,0.0,0.0,0.0,0.0,0.0,0.0,0.0,0.0,0.0,0.0,0.0,0.0,0.0,0.0,0.0,0.0,0.0,0.0,0.0,0.0,0.0,0.0,0.0,0.0,0.0,0.0,0.0,0.0,0.0,0.0,0.0,0.0,0.0,0.0,0.0,0.0,0.0,0.0,0.0,0.0,0.0,0.0,0.0,0.0,0.0,0.0,0.0,0.0,0.0,0.0,0.0,0.0,0.0,0.0,0.0,0.0,0.0,0.0,0.0,0.0,0.0,0.0,0.0,0.0,0.0,0.0,0.0,0.0,0.0,0.0,0.0,0.0,0.0,0.0,0.0,0.0,0.0,0.0,0.0,0.0,0.0,0.0,0.0,6.3878,6.9347,0.0,7.2492,7.2067,7.1162,6.8355,6.3467,5.592,0.0,0.0,0.0,0.0,0.0,0.0,0.0,0.0,0.0,0.0,0.0,0.0,0.0,0.0,0.0,0.0,0.0,0.0,0.0,0.0,0.0,0.0,0.0,0.0,0.0,0.0,0.0,0.0,0.0,0.0,0.0,0.0,0.0,0.0,0.0,0.0,0.0,0.0,0.0,0.0,0.0,0.0,0.0,0.0,0.0,0.0,0.0,0.0,0.0,0.0,0.0,0.0,0.0,0.0,0.0,0.0,0.0,0.0,0.0,0.0,0.0,0.0,0.0,0.0,0.0,0.0,0.0,0.0,0.0,0.0,0.0,0.0,0.0,0.0,0.0,0.0,0.0,0.0,0.0,0.0,0.0,0.0,0.0,0.0,0.0,0.0,0.0,0.0,0.0,0.0,0.0,0.0,0.0,0.0,0.0,0.0,0.0,0.0,0.0,0.0,0.0,0.0,5.7522,6.3875,6.9186,0.0,7.2252,7.2117,7.1816,6.9165,6.4398,5.706,0.0,0.0,0.0,0.0,0.0,0.0,0.0,0.0,0.0,0.0,0.0,0.0,0.0,0.0,0.0,0.0,0.0,0.0,0.0,0.0,0.0,0.0,0.0,0.0,0.0,0.0,0.0,0.0,0.0,0.0,0.0,0.0,0.0,0.0,0.0,0.0,0.0,0.0,0.0,0.0,0.0,0.0,0.0,0.0,0.0,0.0,0.0,0.0,0.0,0.0,0.0,0.0,0.0,0.0,0.0,0.0,0.0,0.0,0.0,0.0,0.0,0.0,0.0,0.0,0.0,0.0,0.0,0.0,0.0,0.0,0.0,0.0,0.0,0.0,0.0,0.0,0.0,0.0,0.0,0.0,0.0,0.0,0.0,0.0,0.0,0.0,0.0,0.0,0.0,0.0,0.0,0.0,0.0,0.0,0.0,0.0,0.0,0.0,0.0,0.0,0.0,0.0,5.8488,6.6845,7.279,7.3016,7.2874,7.25,7.1905,6.8102,6.3389,0.0,0.0,0.0,0.0,0.0,0.0,0.0,0.0,0.0,0.0,0.0,0.0,0.0,0.0,0.0,0.0,0.0,0.0,0.0,0.0,0.0,0.0,0.0,0.0,0.0,0.0,0.0,0.0,0.0,0.0,0.0,0.0,0.0,0.0,0.0,0.0,0.0,0.0,0.0,0.0,0.0,0.0,0.0,0.0,0.0,0.0,0.0,0.0,0.0,0.0,0.0,0.0,0.0,0.0,0.0,0.0,0.0,0.0,0.0,0.0,0.0,0.0,0.0,0.0,0.0,0.0,0.0,0.0,0.0,0.0,0.0,0.0,0.0,0.0,0.0,0.0,0.0,0.0,0.0,0.0,0.0,0.0,0.0,0.0,0.0,0.0,0.0,0.0,0.0,0.0,0.0,0.0,0.0,0.0,0.0,0.0,0.0,0.0,0.0,0.0,0.0,0.0,0.0,5.998,6.7489,7.3177,7.4348,7.4444,7.4319,7.4131,7.1976,6.7555,6.027,0.0,0.0,0.0,0.0,0.0,0.0,0.0,0.0,0.0,0.0,0.0,0.0,0.0,0.0,0.0,0.0,0.0,0.0,0.0,0.0,0.0,0.0,0.0,0.0,0.0,0.0,0.0,0.0,0.0,0.0,0.0,0.0,0.0,0.0,0.0,0.0,0.0,0.0,0.0,0.0,0.0,0.0,0.0,0.0,0.0,0.0,0.0,0.0,0.0,0.0,0.0,0.0,0.0,0.0,0.0,0.0,0.0,0.0,0.0,0.0,0.0,0.0,0.0,0.0,0.0,0.0,0.0,0.0,0.0,0.0,0.0,0.0,0.0,0.0,0.0,0.0,0.0,0.0,0.0,0.0,0.0,0.0,0.0,0.0,0.0,0.0,0.0,0.0,0.0,0.0,0.0,0.0,0.0,0.0,0.0,0.0,0.0,0.0,0.0,0.0,0.0,0.0,6.1086,6.8256,7.3543,7.452,7.4629,7.4629,7.4629,7.4013,7.0791,6.4092,0.0,0.0,0.0,0.0,0.0,0.0,0.0,0.0,0.0,0.0,0.0,0.0,0.0,0.0,0.0,0.0,0.0,0.0,0.0,0.0,0.0,0.0,0.0,0.0,0.0,0.0,0.0,0.0,0.0,0.0,0.0,0.0,0.0,0.0,0.0,0.0,0.0,0.0,0.0,0.0,0.0,0.0,0.0,0.0,0.0,0.0,0.0,0.0,0.0,0.0,0.0,0.0,0.0,0.0,0.0,0.0,0.0,0.0,0.0,0.0,0.0,0.0,0.0,0.0,0.0,0.0,0.0,0.0,0.0,0.0,0.0,0.0,0.0,0.0,0.0,0.0,0.0,0.0,0.0,0.0,0.0,0.0,0.0,0.0,0.0,0.0,0.0,0.0,0.0,0.0,0.0,0.0,0.0,0.0,0.0,0.0,0.0,0.0,0.0,0.0,0.0,0.0,6.2028,6.9125,7.405,7.4122,7.405,7.4013,7.4013,7.4701,7.3108,6.8416,0.0,0.0,0.0,0.0,0.0,0.0,0.0,0.0,0.0,0.0,0.0,0.0,0.0,0.0,0.0,0.0,0.0,0.0,0.0,0.0,0.0,0.0,0.0,0.0,0.0,0.0,0.0,0.0,0.0,0.0,0.0,0.0,0.0,0.0,0.0,0.0,0.0,0.0,0.0,0.0,0.0,0.0,0.0,0.0,0.0,0.0,0.0,0.0,0.0,0.0,0.0,0.0,0.0,0.0,0.0,0.0,0.0,0.0,0.0,0.0,5.3251,4.6801,0.0,0.0,0.0,0.0,0.0,0.0,0.0,0.0,0.0,0.0,0.0,0.0,0.0,0.0,0.0,0.0,0.0,0.0,0.0,0.0,0.0,0.0,0.0,0.0,0.0,0.0,0.0,0.0,0.0,0.0,0.0,0.0,0.0,0.0,0.0,0.0,0.0,0.0,0.0,0.0,6.3671,7.0284,7.51,7.5732,7.5208,7.4846,7.4846,7.4991,7.3325,6.9192,6.7996,0.0,0.0,0.0,0.0,0.0,0.0,0.0,0.0,0.0,0.0,0.0,0.0,0.0,0.0,0.0,0.0,0.0,0.0,0.0,0.0,0.0,0.0,0.0,0.0,0.0,0.0,0.0,0.0,0.0,0.0,0.0,0.0,0.0,0.0,0.0,0.0,0.0,0.0,0.0,0.0,0.0,0.0,0.0,0.0,0.0,0.0,0.0,0.0,0.0,0.0,0.0,0.0,0.0,0.0,0.0,0.0,0.0,0.0,0.0,5.6387,5.3592,0.0,0.0,0.0,0.0,0.0,0.0,0.0,0.0,0.0,0.0,0.0,0.0,0.0,0.0,0.0,0.0,0.0,0.0,0.0,0.0,0.0,0.0,0.0,0.0,0.0,0.0,0.0,0.0,0.0,0.0,0.0,0.0,0.0,0.0,0.0,0.0,0.0,0.0,0.0,0.0,6.7402,7.24,7.5841,7.6239,7.5913,7.5498,7.5136,7.5824,7.5225,7.2778,7.0822,0.0,0.0,0.0,0.0,0.0,0.0,0.0,0.0,0.0,0.0,0.0,0.0,0.0,0.0,0.0,0.0,0.0,0.0,0.0,0.0,0.0,0.0,0.0,0.0,0.0,0.0,0.0,0.0,0.0,0.0,0.0,0.0,0.0,0.0,0.0,0.0,0.0,0.0,0.0,0.0,0.0,0.0,0.0,0.0,0.0,0.0,0.0,0.0,0.0,0.0,0.0,0.0,0.0,6.0438,6.0448,6.0484,6.1152,6.108,6.0424,6.0005,6.1337,6.328,5.6543,0.0,0.0,0.0,0.0,0.0,0.0,0.0,0.0,0.0,0.0,0.0,0.0,0.0,0.0,0.0,0.0,0.0,0.0,0.0,0.0,0.0,0.0,6.1136,6.4323,6.5555,6.5192,6.2005,0.0,0.0,0.0,0.0,0.0,0.0,0.0,0.0,0.0,0.0,0.0,7.1024,7.4428,7.6492,7.6492,7.6492,7.6239,7.557,7.6746,7.7144,7.6364,7.3358,7.1438,0.0,0.0,0.0,0.0,0.0,0.0,0.0,0.0,0.0,0.0,0.0,0.0,0.0,0.0,0.0,0.0,0.0,0.0,0.0,0.0,0.0,0.0,0.0,0.0,0.0,0.0,0.0,0.0,0.0,0.0,0.0,0.0,4.6837,5.0757,0.0,0.0,0.0,0.0,0.0,0.0,0.0,0.0,0.0,0.0,0.0,0.0,0.0,5.8883,6.3669,6.4398,6.6941,7.117,7.1863,7.2176,7.2176,7.2286,7.2249,7.1957,6.8523,0.0,6.2592,6.2188,0.0,0.0,0.0,0.0,0.0,0.0,0.0,0.0,0.0,0.0,0.0,0.0,0.0,0.0,0.0,0.0,0.0,0.0,0.0,0.0,0.0,0.0,7.271,7.2529,7.2565,7.2674,7.2855,6.5794,5.9325,5.8878,5.9384,5.9276,0.0,0.0,0.0,0.0,0.0,0.0,7.1531,7.4935,7.7326,7.7326,7.7326,7.7289,7.7181,7.7362,7.7144,7.6364,7.6473,7.5623,7.3543,7.0315,0.0,0.0,0.0,0.0,0.0,0.0,0.0,0.0,0.0,0.0,0.0,0.0,0.0,0.0,0.0,0.0,0.0,0.0,0.0,0.0,0.0,0.0,0.0,0.0,0.0,0.0,0.0,0.0,0.0,4.6666,5.0895,5.5829,5.5124,5.3992,0.0,0.0,0.0,0.0,0.0,0.0,0.0,0.0,0.0,6.1889,6.2604,6.5008,6.9316,6.9754,7.0764,7.2347,7.3084,7.3196,7.2726,7.2726,7.2726,7.2618,7.0852,6.9089,6.7374,6.6517,6.6167,6.5854,0.0,0.0,0.0,0.0,5.8185,5.868,6.0056,6.3669,6.7222,6.4519,0.0,0.0,0.0,0.0,0.0,0.0,0.0,6.2535,6.4903,6.8307,7.1696,7.4013,7.4231,7.4013,7.4339,7.1189,6.7785,6.5989,6.5953,6.5518,6.349,6.4504,0.0,0.0,0.0,7.3414,7.5297,7.6674,7.7326,7.6855,7.6818,7.6637,7.6186,7.6565,7.6674,7.6328,7.6203,7.6295,7.6601,7.3559,7.0191,0.0,0.0,0.0,0.0,0.0,0.0,0.0,0.0,0.0,0.0,0.0,0.0,0.0,0.0,0.0,0.0,0.0,0.0,0.0,0.0,0.0,0.0,0.0,0.0,0.0,0.0,0.0,0.0,5.1134,5.5017,6.0075,5.9393,5.8444,0.0,0.0,0.0,0.0,0.0,0.0,5.9679,6.0946,6.3372,6.7223,6.8156,6.9973,7.2798,7.3276,7.3202,7.2532,7.3213,7.319,7.2563,7.2563,7.2563,7.2563,7.2563,7.2563,7.2379,6.9937,6.9113,6.9253,6.8327,6.6286,6.3834,6.3854,6.3947,6.4273,6.5069,6.7836,7.0822,6.9611,7.0046,7.0604,6.838,0.0,0.0,0.0,0.0,6.5011,6.8829,7.0118,7.1298,7.4882,7.5426,7.5136,7.5136,7.5607,7.5136,7.2183,7.1929,7.1386,6.8778,6.8995,0.0,7.4267,7.4665,7.5478,7.805,7.805,7.7579,7.6963,7.7289,7.7289,7.6693,7.6818,7.6891,7.6891,7.5985,7.6186,7.8014,7.5985,7.3523,7.0749,0.0,0.0,0.0,0.0,0.0,0.0,0.0,0.0,0.0,0.0,0.0,0.0,0.0,0.0,0.0,0.0,0.0,0.0,0.0,0.0,0.0,0.0,0.0,0.0,0.0,0.0,0.0,0.0,0.0,6.1525,6.5263,0.0,0.0,0.0,0.0,5.8425,6.0533,6.3213,6.606,6.631,6.818,7.221,7.2405,7.2494,7.2628,7.4126,7.4853,7.4727,7.5499,7.583,7.579,7.579,7.579,7.579,7.579,7.579,7.5544,7.2484,7.1699,7.2056,6.9066,6.8268,6.8744,6.8822,6.9337,7.0423,7.3398,7.5116,7.593,7.5857,7.5893,7.5241,7.1365,7.0097,0.0,0.0,6.7619,7.0206,7.1132,7.4175,7.7072,7.7326,7.7941,7.8448,7.8448,7.8484,7.7796,7.5353,7.6094,7.613,7.2927,0.0,7.8865,7.4593,7.7127,7.9064,7.7724,7.8195,7.8629,7.8593,7.9969,8.0821,8.0785,7.9426,7.8593,7.8593,7.7108,7.6275,7.6437,7.7,7.6529,7.4846,7.2456,0.0,0.0,0.0,0.0,0.0,0.0,0.0,0.0,0.0,0.0,0.0,0.0,0.0,0.0,0.0,0.0,0.0,0.0,0.0,0.0,0.0,0.0,0.0,0.0,0.0,0.0,0.0,0.0,6.1218,6.401,0.0,6.357,6.4531,6.4631,6.3099,6.6193,6.8576,6.9589,7.0639,7.1874,7.3297,7.4299,7.4567,7.4024,7.5108,7.5315,7.4713,7.5548,7.5884,7.5822,7.5822,7.5822,7.5822,7.5822,7.5822,7.572,7.4635,7.4402,7.4672,7.3556,7.33,7.3626,7.4262,7.4671,7.5136,7.6829,7.7615,7.7833,7.7833,7.7833,7.7579,7.6167,7.5732,7.5478,7.4356,7.4863,7.5804,7.6058,7.7217,7.8267,7.8267,7.8883,7.9462,7.9462,7.9897,8.0006,7.9119,7.8593,7.8231,7.8105,7.9354,8.0259,8.0114,8.044,8.0459,7.9897,7.9607,7.9281,7.8774,7.9209,7.9571,7.9571,7.9028,7.8702,7.8702,7.7181,7.6746,7.7796,7.7615,7.7217,7.6674,7.6311,7.269,0.0,0.0,0.0,0.0,0.0,0.0,0.0,0.0,0.0,0.0,0.0,0.0,0.0,0.0,0.0,0.0,0.0,0.0,0.0,0.0,0.0,0.0,0.0,0.0,0.0,5.7258,6.0977,6.2096,6.4249,6.5468,6.5075,6.651,6.7359,6.7108,7.0744,7.2699,7.2153,7.3358,7.408,7.4085,7.531,7.5681,7.5126,7.618,7.6255,7.5405,7.6208,7.656,7.6487,7.6487,7.6487,7.6487,7.6487,7.6487,7.6487,7.6487,7.654,7.6652,7.6153,7.5792,7.5707,7.6596,7.6908,7.7005,7.757,7.8009,7.8243,7.8243,7.8456,7.8702,7.8702,7.8883,7.9173,7.9426,7.9499,7.9571,7.9825,7.9897,7.9897,7.9897,8.0513,8.1092,8.1092,8.1527,8.1925,8.1925,8.0839,7.9897,7.9897,7.968,7.9752,8.0549,7.9318,7.8359,7.8648,7.8702,7.8484,7.7941,7.8847,7.9499,7.9499,7.8774,7.8521,7.9064,7.7326,7.7,7.8629,7.7651,7.6963,7.671,7.642,7.3414,6.7583,0.0,0.0,0.0,0.0,0.0,0.0,0.0,0.0,0.0,0.0,0.0,0.0,0.0,0.0,0.0,0.0,0.0,0.0,0.0,0.0,0.0,0.0,0.0,5.7184,6.149,6.4389,6.4376,6.6529,6.8022,6.8,7.0031,7.1067,7.0316,7.3753,7.5254,7.3774,7.4412,7.4825,7.4825,7.5561,7.5926,7.5835,7.7352,7.7763,7.7063,7.7739,7.8136,7.8136,7.8136,7.8136,7.8136,7.8136,7.8136,7.8136,7.8136,7.8136,7.7938,7.6508,7.5527,7.5003,7.5805,7.61,7.612,7.612,7.6737,7.7488,7.7488,7.8098,7.8812,7.8812,7.9372,8.0187,8.0966,8.1147,8.1346,8.2161,8.2342,8.2378,8.2378,8.303,8.3591,8.3573,8.3554,8.3591,8.3572,8.2957,8.14,7.8267,7.8359,7.8071,7.579,7.4056,0.0,7.4112,7.554,7.6425,7.6423,7.9284,8.1147,8.1038,7.8994,7.8343,7.988,7.7709,7.7093,7.8702,7.7219,7.5991,7.5197,7.279,7.2284,7.3839,0.0,0.0,0.0,0.0,0.0,0.0,0.0,0.0,0.0,0.0,0.0,0.0,0.0,0.0,0.0,0.0,0.0,0.0,0.0,0.0,0.0,5.9657,6.2177,6.1653,6.3206,6.483,6.5969,6.7709,6.8581,6.7965,6.9509,7.0652,7.0962,7.246,7.3422,7.3549,7.4751,7.5465,7.5465,7.6724,7.7668,7.8179,7.8594,7.9238,8.0099,8.0302,8.0648,8.119,8.119,8.119,8.119,8.119,8.119,8.119,8.119,8.0885,8.0191,7.8201,7.7302,7.7216,7.8097,7.8807,7.9332,7.9332,7.9501,7.971,7.971,8.0359,8.1174,8.1174,8.179,8.2559,8.2758,8.2831,8.2867,8.3102,8.361,8.4026,8.4026,8.5076,8.5846,8.5183,8.5437,8.5626,8.4954,8.4626,8.4092,8.2917,8.2778,8.2818,8.2711,8.1703,8.1039,8.1251,8.0706,7.9853,7.8821,8.1394,8.2123,7.9432,8.1054,8.2002,8.1529,7.9163,7.8538,8.0387,7.8208,7.7087,7.7421,7.3949,7.2356,0.0,0.0,0.0,0.0,0.0,0.0,0.0,0.0,0.0,0.0,0.0,0.0,0.0,0.0,0.0,0.0,0.0,0.0,0.0,0.0,0.0,0.0,6.2,6.4916,6.5571,6.6068,6.6716,6.7671,6.8837,6.9386,6.8907,7.05,7.1751,7.2191,7.3206,7.395,7.439,7.5845,7.6792,7.713,7.8585,7.9735,8.0479,8.0454,8.0919,8.1765,8.1765,8.2002,8.2408,8.2408,8.2577,8.2847,8.2543,8.2577,8.2847,8.2543,8.2171,8.1596,0.0,0.0,0.0,0.0,8.0022,8.0421,8.0421,8.0696,8.0979,8.0979,8.162,8.2459,8.2459,8.306,8.3752,8.3752,8.3987,8.4273,8.4273,8.4595,8.4952,8.4952,8.5631,8.6129,8.5599,8.581,8.5954,8.5431,8.5317,0.0,8.541,8.3943,8.2552,8.2042,8.1147,8.071,8.1025,8.0907,8.04,7.9584,8.1913,8.255,8.009,8.1231,0.0,0.0,0.0,7.8644,7.937,7.7369,0.0,0.0,0.0,0.0,0.0,0.0,0.0,0.0,6.7053,6.4747,0.0,0.0,0.0,0.0,0.0,0.0,0.0,0.0,0.0,0.0,0.0,0.0,0.0,0.0,0.0,0.0,6.2564,6.5269,6.8639,6.9184,6.922,6.92,6.9958,7.0432,7.0432,7.236,7.3669,7.3737,7.5033,7.5912,7.6082,7.7435,0.0,0.0,0.0,8.19,8.2644,8.2746,8.2847,8.2915,8.2915,8.2915,8.2915,8.2915,8.3253,8.3862,8.3186,8.3287,8.3828,8.3186,8.2915,8.2813,8.1799,8.1021,8.0445,8.0445,8.0445,8.0445,8.0445,0.0,0.0,8.1593,8.2245,8.3024,8.3024,8.3604,8.4219,8.4219,8.4768,8.5317,8.5317,8.5422,8.5563,8.5563,8.5703,8.5797,8.5647,8.5659,8.5636,8.552,8.5496,8.5706,8.6335,8.3505,8.0421,7.8366,7.7436,7.7211,7.7928,7.9212,7.9975,7.9784,8.2005,0.0,8.1847,8.0735,8.0316,8.0828,7.9492,7.8252,7.725,7.6077,7.4395,7.2121,7.1385,7.2086,7.4202,7.4795,7.6126,7.7969,7.0958,6.9196,0.0,0.0,0.0,0.0,0.0,0.0,0.0,0.0,0.0,0.0,0.0,0.0,0.0,0.0,0.0,6.3599,6.6136,6.8267,6.9011,6.9604,6.9986,6.998,7.1142,7.1954,7.1954,7.3443,7.4627,7.5236,7.6149,7.7198,7.8382,7.9295,8.0107,8.0851,8.2306,8.3422,8.4174,8.4809,8.5452,8.6027,8.6027,0.0,8.6027,8.6027,8.6129,8.623,8.6095,8.6129,8.623,8.6095,8.6027,8.579,8.3186,8.2103,8.1968,8.1968,8.1968,8.1968,8.1968,8.2097,8.225,8.225,8.2853,8.3648,8.3648,8.4286,0.0,8.5049,8.5154,8.5317,8.5317,8.6229,8.7176,8.7176,8.8088,8.8785,8.7964,8.7788,8.757,8.6734,8.6609,8.6644,8.678,8.5813,8.5086,8.5259,8.4992,8.4776,8.4946,8.4726,8.4088,8.2921,8.5327,8.5506,8.181,8.3376,8.3907,8.238,8.1564,8.0133,7.7901,7.8786,7.8775,7.7611,7.7417,7.7588,7.802,7.7567,7.7318,7.7127,7.5705,7.5025,0.0,0.0,0.0,0.0,0.0,0.0,0.0,0.0,0.0,0.0,0.0,5.9416,5.9528,0.0,6.4174,6.4546,6.7421,6.9789,7.0161,7.1785,7.2394,7.0939,7.2699,7.4052,7.4052,7.5405,7.6454,7.6826,7.757,7.8653,8.0107,8.1257,8.2374,8.3516,8.4606,8.5384,8.573,8.6163,8.6535,8.6907,8.6907,8.6907,8.6907,8.6907,8.711,8.7448,8.7076,8.711,8.7414,8.7076,8.6907,8.6771,8.5249,8.4674,8.4674,8.4674,8.4674,8.4674,8.4674,8.4674,8.4674,8.4674,8.4951,8.536,8.536,8.5686,8.609,8.609,8.609,8.609,8.609,8.6667,8.7253,8.7253,8.783,8.8287,8.7746,8.764,8.7515,8.7016,8.6907,8.6907,8.6907,8.6967,8.7067,8.7094,8.6989,8.6907,8.6907,8.6602,8.6054,8.5349,8.6568,8.642,8.3807,8.4261,8.4201,8.3175,8.2472,8.1341,7.9718,8.0062,7.9917,7.9126,7.9101,7.9101,7.9101,7.9092,7.8889,7.8542,7.822,7.7503,0.0,0.0,0.0,0.0,0.0,0.0,0.0,5.9438,6.0231,6.1569,6.1839,6.1839,6.1839,6.3599,6.5202,6.5831,6.8538,7.0939,7.1819,7.3984,7.4728,7.2608,7.4627,7.6149,7.6149,7.7536,7.8508,7.8643,7.9464,8.0615,8.2095,8.3287,8.4573,8.596,8.6738,8.711,8.711,8.7279,8.7347,8.7347,8.7347,8.7347,8.7347,8.7347,8.7651,8.8158,8.7583,8.7651,8.8158,8.7583,8.7347,8.7347,8.7347,8.7347,8.7279,8.7008,8.6907,8.6907,8.6907,8.6907,8.6907,8.6907,8.6907,8.6907,8.6907,8.6907,8.6907,8.6907,8.6907,8.6907,8.6907,8.7008,8.711,8.711,8.7156,8.7203,8.7203,8.7209,8.7153,8.7153,8.7153,8.7153,8.7153,8.7654,8.7817,8.7218,8.7245,8.7347,8.7347,8.7347,8.7347,8.7347,8.7347,8.6974,8.6095,8.4606,8.3659,8.3524,8.2813,8.2137,8.1528,8.0919,8.0344,7.9744,7.9744,7.9744,7.9744,8.0344,8.0547,8.0412,7.9972,7.8889,4.836,4.9747,5.2334,5.345,5.4972,5.734,0.0,6.2936,6.3951,6.7387,6.8098,6.8098,6.8098,6.9383,7.0444,7.0545,7.1447,7.2631,7.4028,7.4502,7.51,7.6149,7.713,7.7764,7.7764,7.9058,8.0209,8.0877,8.2205,8.3659,8.5208,8.5445,8.5926,8.6771,8.7482,8.7888,8.7888,8.8531,8.8835,8.8835,8.8835,8.8835,8.8835,8.8835,8.8897,8.8998,8.8869,8.8897,8.8998,8.8897,8.8835,8.8835,8.8835,8.8835,8.87,8.738,8.6907,8.6907,8.6907,8.6907,8.6907,8.6907,8.6907,8.6907,8.6907,8.6907,8.6907,8.6907,8.6907,8.6907,8.6907,8.738,8.7888,8.7888,8.8166,8.8407,8.8407,8.8213,8.8046,8.8046,8.8046,8.8046,8.8046,8.8113,8.8112,8.7906,8.8429,8.8835,8.8835,8.8835,8.8835,8.8835,8.8835,8.8294,8.6907,8.5358,8.42,8.3524,8.2813,8.2374,8.2272,8.2205,8.2137,8.201,8.201,8.201,8.201,8.2137,8.1832,8.1215,8.1765,8.0885,5.5564,5.4702,5.5175,6.1603,6.1941,6.1873,6.6373,6.7387,6.7827,6.9417,6.9722,6.9722,6.9722,7.0229,7.0939,7.1819,7.2935,7.4052,7.51,7.6758,7.8111,7.8754,7.9837,8.0209,7.9363,8.0987,8.2238,8.2543,8.3964,8.5283,8.6366,8.6839,8.7414,8.8158,8.8463,8.8632,8.8632,8.8965,8.91,8.91,8.91,8.91,8.91,8.91,8.91,8.91,8.91,8.91,8.91,8.91,8.91,8.91,8.91,8.91,8.9032,8.8395,8.8158,8.8158,8.8158,8.8158,8.8158,8.8158,8.8158,8.8131,8.7936,8.788,8.7852,8.7716,8.766,8.766,8.766,8.7895,8.8097,8.8097,8.8247,8.8396,8.8396,8.8281,8.8194,8.8194,8.8194,8.8194,8.8194,8.8194,8.818,8.8136,8.8503,8.8818,8.8818,8.8988,8.91,8.91,8.91,8.8863,8.8226,8.7211,8.6264,8.552,8.4776,8.3964,8.3084,8.305,8.2847,8.2408,8.2408,8.2408,8.2408,8.2408,8.2238,8.1934,8.2272,8.19,5.9235,5.8118,5.8186,6.6833,6.6812,6.5608,6.9079,6.9913,6.9958,7.0184,7.0364,7.0567,7.077,7.1142,7.1819,7.3105,7.439,7.5642,7.6792,7.8822,8.0344,8.075,8.2137,8.2611,8.1528,8.2881,8.3998,8.4403,8.5655,8.6738,8.7482,8.8023,8.8531,8.91,8.91,8.91,8.91,8.9275,8.9376,8.941,8.9613,8.9709,8.9709,8.9709,8.9709,8.9709,8.9709,8.9709,8.9709,8.9709,8.9709,8.9709,8.9709,8.9709,8.9681,8.9478,8.9241,8.91,8.91,8.91,8.9072,8.8988,8.8959,8.8903,8.8591,8.8611,8.8751,8.8554,8.8663,8.8797,8.8797,8.8797,8.8797,8.8797,8.8739,8.8651,8.8651,8.8593,8.8534,8.8534,8.8367,8.8234,8.8234,8.8067,8.7933,8.7933,8.8161,8.8391,8.8477,8.8762,8.8959,8.8959,8.9044,8.91,8.91,8.8395,8.7786,8.7245,8.6501,8.5486,8.4167,8.4133,8.3795,8.3024,8.299,8.299,8.299,8.299,8.299,8.299,8.299,8.299,5.6122,5.8389,6.0892,6.4871,6.6812,6.7996,6.891,6.9147,6.935,7.0026,7.077,7.1515,7.2191,7.351,7.4728,7.5473,7.6284,7.7604,7.9769,8.0141,8.0716,8.2171,8.3633,8.4512,8.4478,8.4512,8.5189,8.6677,8.7516,8.826,8.8998,8.9066,8.91,8.91,8.91,8.91,8.91,8.9816,9.0188,9.0188,9.0899,9.1237,9.1237,9.1237,9.1237,9.1237,9.1237,9.1237,9.1237,9.1237,9.1237,9.1237,9.1237,9.1237,9.1135,9.0425,8.9715,8.91,8.91,8.91,8.9044,8.8733,8.862,8.8563,8.831,8.8697,8.9299,8.9299,8.9801,9.0337,9.0337,9.0337,9.0337,9.0337,9.0066,8.9827,8.9827,8.9586,8.9343,8.9343,8.881,8.8313,8.8313,8.775,8.7349,8.7349,8.7552,8.7846,8.8165,8.8448,8.862,8.862,8.8903,8.91,8.91,8.8395,8.7989,8.7955,8.7279,8.6535,8.5784,8.575,8.5351,8.4546,8.4512,8.4512,8.4512,8.4512,8.4512,8.4512,8.4512,8.4512,6.3328,6.4749,6.5324,6.8605,6.9417,6.9755,7.1007,7.0906,7.1075,7.2766,7.3713,7.4762,7.6521,7.686,7.7266,7.8483,7.8923,7.9498,8.075,8.2205,8.3524,8.4539,8.552,8.6305,8.6805,8.6873,8.7076,8.7583,8.8294,8.8835,8.91,8.91,8.9309,8.9816,8.9816,9.0053,9.0527,9.0797,9.0932,9.0932,9.1169,9.1305,9.1305,9.1305,9.1305,9.1305,9.1305,9.1305,9.1305,9.104,9.0953,9.0953,9.0783,9.0695,9.0661,9.0426,9.0191,8.985,8.9042,8.8648,8.8482,8.8396,8.8674,8.9018,8.8693,8.9109,8.968,8.944,8.9546,8.9743,8.9743,8.9743,8.9743,8.9743,8.9652,8.9561,8.9561,8.947,8.9379,8.9379,8.921,8.9045,8.9045,8.8449,8.7819,8.7385,8.7523,8.7816,8.8165,8.8281,8.8338,8.8338,8.8453,8.8563,8.8762,8.8526,8.8273,8.8023,8.7753,8.7313,8.6569,8.6535,8.6163,8.5418,8.5384,8.5148,8.4614,8.4614,8.4614,8.4614,8.4614,8.4614,6.6914,6.8166,6.8335,7.1345,7.1515,7.1278,7.2496,7.2631,7.2879,7.4299,7.5608,7.713,7.9126,7.9092,7.9431,8.1494,8.1562,8.1731,8.2772,8.437,8.5594,8.6129,8.6839,8.7482,8.7955,8.8226,8.8395,8.8395,8.8829,8.91,8.91,8.9342,8.9715,9.0188,9.0459,9.0831,9.1305,9.1575,9.1846,9.2116,9.2116,9.2116,9.2116,9.2116,9.2058,9.1942,9.1942,9.1884,9.1733,9.1527,9.1438,9.1438,9.1264,9.1174,9.1141,9.0873,9.0746,9.0486,8.9541,8.9139,8.8969,8.8852,8.9324,8.9866,8.9504,9.0111,9.0879,9.0664,9.0767,9.0966,9.0966,9.0966,9.0966,9.0966,9.0966,9.0966,9.0966,9.0966,9.0966,9.0966,9.0767,9.0569,9.0569,8.9774,8.8846,8.815,8.8197,8.821,8.7912,8.7962,8.802,8.802,8.8136,8.8281,8.842,8.8448,8.8332,8.8093,8.8172,8.789,8.7147,8.7258,8.6941,8.6196,8.6196,8.5926,8.5425,8.5425,8.5425,8.5425,8.5148,8.5182,6.7083,6.8876,7.0128,7.2902,7.3105,7.2834,7.3567,7.4119,7.4502,7.457,7.6217,7.8111,7.9634,8.0006,8.1054,8.3998,8.393,8.4031,8.5554,8.6433,8.6941,8.7008,8.7617,8.8057,8.8057,8.8666,8.91,8.91,8.91,8.9134,8.9168,8.9816,9.0256,9.0324,9.1,9.1372,9.1406,9.215,9.2928,9.3706,9.3706,9.3706,9.3706,9.3706,9.3525,9.3227,9.3227,9.3017,9.2711,9.2681,9.2681,9.2714,9.2651,9.2651,9.2584,9.1817,9.1368,9.1026,9.0623,9.0408,9.0315,9.002,9.0429,9.1001,9.0727,9.1629,9.2755,9.2755,9.3252,9.3782,9.3782,9.3782,9.3782,9.3782,9.3782,9.3782,9.3782,9.3782,9.3782,9.3782,9.3219,9.2722,9.2689,9.1529,9.0339,8.9544,8.9445,8.8945,8.7551,8.7589,8.7703,8.767,8.7962,8.8165,8.8165,8.8165,8.8165,8.8194,8.842,8.8288,8.7554,8.7862,8.7663,8.692,8.692,8.6886,8.6852,8.6852,8.6852,8.6852,8.6135,8.6203,7.236,7.3849,7.4187,7.4931,7.5439,7.5946,7.6657,7.483,7.3274,7.4367,7.3747,7.3646,7.5676,7.7401,7.916,8.1054,8.2543,8.4031,8.5554,8.6433,8.7313,8.8395,8.8728,8.8801,8.8801,8.8998,8.91,8.91,8.91,8.9342,8.9884,9.0121,9.0701,9.1783,9.202,9.2421,9.2996,9.374,9.4485,9.5229,9.5229,9.5229,9.5229,9.5229,9.5078,9.4742,9.4742,9.4529,9.4224,9.3976,9.3882,9.3817,9.3567,9.3472,9.3406,9.2675,9.2314,9.2183,9.1515,9.0582,8.9722,9.0194,9.0858,9.1521,9.1991,9.2788,9.3517,9.3517,9.3649,9.3782,9.3782,9.3782,9.3782,9.3782,9.3782,9.3782,9.3782,9.3782,9.3782,9.3782,9.3649,9.3351,9.2788,9.2391,9.1695,9.0405,9.0207,8.9677,8.825,8.8111,8.7972,8.7441,8.7464,8.7611,8.7816,8.7816,8.7933,8.8165,8.8252,8.8209,8.8041,8.8127,8.7787,8.7048,8.7048,8.678,8.6243,8.6243,8.6243,8.6243,8.6041,8.6041,7.4559,7.6183,7.6623,7.6318,7.6792,7.713,7.6241,7.4661,7.324,7.2766,7.2191,7.3071,7.7241,7.8551,8.0209,8.3998,8.508,8.5757,8.6636,8.738,8.8158,8.8998,8.9376,8.9444,8.9134,8.9376,8.9579,8.9579,8.9579,8.9748,9.0188,9.0831,9.1711,9.2895,9.3267,9.3774,9.4552,9.4992,9.5398,9.5804,9.5653,9.5558,9.5592,9.544,9.5161,9.4853,9.4853,9.4666,9.4355,9.4165,9.4069,9.4037,9.3846,9.3782,9.3749,9.3318,9.3186,9.3119,9.2689,9.2026,9.1364,9.143,9.196,9.2689,9.3418,9.4179,9.4776,9.4776,9.4776,9.4776,9.4776,9.4776,9.4776,9.4776,9.4776,9.4776,9.4776,9.4776,9.4776,9.4776,9.4776,9.4544,9.3782,9.3649,9.3153,9.1695,9.1463,9.0933,8.9475,8.8979,8.8647,8.825,8.8217,8.8277,8.8423,8.8456,8.838,8.8258,8.8371,8.8325,8.7991,8.8107,8.7993,8.7592,8.7558,8.7391,8.6989,8.6989,8.6989,8.6955,8.6621,8.6654,7.4965,7.6826,7.7841,7.7198,7.7671,7.7502,7.4481,7.3984,7.3341,7.0364,7.0432,7.3105,7.9735,7.9735,8.0885,8.7516,8.7414,8.6738,8.7313,8.7955,8.8592,8.9201,8.9715,8.9816,8.9168,8.9782,9.0256,9.0357,9.056,9.0662,9.0662,9.1851,9.2933,9.3783,9.4489,9.5165,9.5879,9.5879,9.5946,9.6014,9.5679,9.5525,9.5525,9.5216,9.4904,9.459,9.459,9.4399,9.408,9.408,9.408,9.408,9.408,9.408,9.408,9.3981,9.3948,9.3948,9.3948,9.3881,9.3716,9.3285,9.3484,9.408,9.4941,9.5571,9.6001,9.6001,9.6001,9.6001,9.6001,9.6001,9.6001,9.6001,9.6001,9.6001,9.6001,9.6001,9.6001,9.6001,9.6001,9.5803,9.5173,9.5041,9.4577,9.3186,9.2888,9.2358,9.0968,9.0041,8.9511,8.9412,8.9379,8.9379,8.9379,8.9379,8.9114,8.8515,8.8719,8.8602,8.794,8.8204,8.8379,8.8379,8.8279,8.8212,8.8212,8.8145,8.7991,8.775,8.7116,8.7091,7.5236,7.6826,7.7967,7.7865,7.8822,7.9025,7.6014,7.3544,7.1019,6.803,6.5662,6.6,7.2124,7.2022,7.3037,7.9126,7.9397,8.0107,8.3761,8.437,8.5858,8.9579,8.9579,8.9269,8.9134,8.9782,9.0459,9.1068,9.2286,9.2996,9.2996,9.3233,9.3892,9.4971,9.5413,9.5852,9.6285,9.6319,9.6622,9.7195,9.6884,9.6727,9.6727,9.6664,9.6441,9.6122,9.6122,9.5928,9.5637,9.5637,9.5637,9.5637,9.5637,9.5637,9.5538,9.4941,9.471,9.471,9.471,9.4312,9.3981,9.5074,9.5107,9.4975,9.6333,9.6399,9.6001,9.6001,9.6001,9.6001,9.6001,9.6001,9.6001,9.6001,9.6001,9.6001,9.6001,9.6001,9.6001,9.6001,9.6001,9.5968,9.5836,9.5803,9.5505,9.4643,9.3981,9.3285,9.2424,9.1165,9.0074,8.9475,8.9379,8.9379,8.9379,8.9379,8.9346,8.9244,8.9241,8.9238,8.9105,8.9166,8.9196,8.9196,8.8599,8.8267,8.8267,8.7733,8.6831,8.5634,8.5504,8.4914,7.3883,7.5946,7.8,7.8,7.9092,7.8991,7.4458,7.2022,6.9553,6.5358,6.3091,6.3632,6.962,6.9823,7.0939,7.6521,7.8754,8.0648,8.3152,8.552,8.7786,8.9951,9.056,9.0527,8.9748,9.0924,9.1854,9.2192,9.3122,9.3822,9.415,9.4741,9.5302,9.5856,9.638,9.6751,9.6967,9.6967,9.7041,9.7254,9.6905,9.6745,9.6745,9.6552,9.6392,9.6262,9.6262,9.6165,9.6001,9.6001,9.6001,9.6001,9.6001,9.6001,9.5968,9.5604,9.5471,9.5471,9.5471,9.5505,9.5703,9.6797,9.6399,9.5736,9.7227,9.7426,9.7128,9.7128,9.7128,9.7128,9.7128,9.7128,9.7028,9.6664,9.63,9.6001,9.6001,9.6001,9.6001,9.6001,9.6001,9.6001,9.6001,9.6001,9.577,9.5008,9.4279,9.3517,9.2788,9.1728,9.0933,9.0569,9.0536,9.0536,9.0536,9.0536,9.037,8.9975,8.9942,8.9776,8.9412,8.9379,8.9379,8.9379,8.8307,8.7736,8.7736,8.6624,8.576,8.5049,8.5049,8.4689,7.3206,7.5608,7.8034,7.8204,7.9228,7.8585,7.2462,7.0601,6.8627,6.3024,6.1434,6.2854,6.8842,6.8707,6.9485,7.5033,7.7841,8.0107,8.2475,8.5905,8.8791,9.0378,9.1402,9.1575,9.0596,9.2015,9.3144,9.3447,9.4043,9.454,9.4954,9.5954,9.6475,9.6412,9.7046,9.7447,9.7552,9.7384,9.7293,9.7341,9.6852,9.6724,9.6857,9.6597,9.6465,9.6465,9.6465,9.6465,9.6465,9.6465,9.6465,9.6465,9.6465,9.6465,9.6465,9.63,9.6233,9.6233,9.6233,9.6532,9.7028,9.7923,9.7393,9.6697,9.7857,9.8221,9.8188,9.8022,9.8089,9.8221,9.8221,9.8221,9.8056,9.7459,9.6896,9.6465,9.6465,9.6366,9.6233,9.6233,9.6101,9.6001,9.6001,9.6001,9.5803,9.524,9.4511,9.3815,9.3252,9.2523,9.1993,9.1828,9.1662,9.1627,9.1627,9.1627,9.1331,9.0767,9.0767,9.0502,8.9906,8.9873,8.972,8.9409,8.8112,8.7276,8.6984,8.5638,8.4834,8.4528,8.4528,8.4388,7.5202,7.7232,7.8145,7.8822,7.96,7.845,7.1785,7.0251,6.8301,6.167,6.025,6.2042,6.8098,6.5797,6.5155,7.1751,7.0804,7.1853,7.9431,8.1169,8.4184,9.1005,9.1106,9.0795,9.1331,9.2142,9.3214,9.4554,9.5929,9.6429,9.5822,9.6528,9.6804,9.6517,9.6839,9.7239,9.7585,9.6918,9.7251,9.8519,9.7525,9.7426,9.8023,9.7989,9.8022,9.8022,9.8022,9.8022,9.8022,9.8022,9.8022,9.8022,9.8022,9.8022,9.7923,9.726,9.7028,9.7028,9.7028,9.6598,9.6333,9.7757,9.8122,9.8022,9.8155,9.8221,9.8056,9.7393,9.7658,9.8221,9.8221,9.8221,9.8188,9.8122,9.8056,9.8022,9.8022,9.7459,9.7028,9.7028,9.6465,9.6001,9.6001,9.6001,9.6001,9.5902,9.5273,9.4776,9.471,9.4047,9.3318,9.2656,9.2024,9.1627,9.1627,9.1627,9.1594,9.1496,9.1527,9.1463,9.1397,9.1397,9.0766,8.9448,8.8636,8.756,8.6189,8.5387,8.4354,8.3098,8.3098,8.2418,7.1278,7.4999,7.872,7.9025,8.0006,7.8991,7.1842,7.0217,6.8132,6.0926,5.9419,6.0317,6.3159,6.2618,6.3057,6.7049,6.935,7.3103,8.0233,8.4076,8.8007,9.303,9.368,9.2614,8.9797,9.2832,9.5484,9.6757,9.6591,9.6657,9.7256,9.7318,9.7284,9.7154,9.7717,9.8084,9.8253,9.7987,9.8021,9.8388,9.7956,9.8155,9.8851,9.842,9.8453,9.8851,9.8387,9.8221,9.8221,9.8221,9.8221,9.8221,9.8221,9.7956,9.7492,9.7227,9.7095,9.7062,9.6598,9.7128,9.7989,9.8155,9.8785,9.938,9.8983,9.9115,9.9414,9.9115,9.9248,9.9447,9.9447,9.9149,9.8884,9.8884,9.852,9.8221,9.8221,9.7989,9.7757,9.7757,9.7525,9.7161,9.673,9.6664,9.6532,9.6068,9.5372,9.4908,9.4908,9.4246,9.3683,9.3384,9.2689,9.2059,9.166,9.1627,9.1627,9.1627,9.1627,9.1218,9.0324,9.0292,8.9577,8.8114,8.6906,8.6017,8.545,8.4239,8.3386,8.283,8.283,8.2527,6.9282,7.3409,7.7773,7.9092,7.9363,7.7638,7.1312,6.9011,6.6339,5.9689,5.8337,5.8641,5.9607,6.025,6.1501,6.4174,6.8,7.3268,8.0834,8.5308,8.919,9.283,9.3907,9.2876,8.9235,9.3792,9.7325,9.8122,9.7227,9.7095,9.8155,9.8322,9.8288,9.8089,9.8587,9.9086,9.9485,9.9286,9.9252,9.9447,9.9248,9.9513,10.0209,9.948,9.9414,9.9877,9.9115,9.8851,9.8851,9.8851,9.8851,9.8851,9.8851,9.8387,9.7757,9.7757,9.7625,9.736,9.683,9.7658,9.8884,9.8387,9.9016,9.991,9.9414,9.9778,10.0308,10.0076,10.0075,10.0308,10.0308,9.9944,9.9579,9.9579,9.9182,9.8851,9.8851,9.8685,9.8553,9.8553,9.8354,9.8056,9.7525,9.726,9.6929,9.6399,9.5703,9.524,9.524,9.4386,9.3696,9.3466,9.2548,9.1795,9.1295,9.0844,9.0521,9.0324,9.0291,8.9838,8.8818,8.8751,8.8046,8.6564,8.5533,8.4801,8.4326,8.3341,8.2806,8.2806,8.2806,8.2806,7.103,7.35,7.465,7.9092,7.7401,7.3713,6.9958,6.6237,6.2293,5.778,5.6833,5.7273,5.8743,5.9013,6.0231,6.4005,6.5711,7.013,8.0438,8.274,8.4974,8.9427,9.0289,9.0536,9.0502,9.5173,9.8188,9.8221,9.8188,9.8188,9.8221,9.9513,9.9977,9.9315,9.9282,9.9944,10.1401,10.0572,10.1004,10.2393,10.1698,10.1799,10.2393,10.1698,10.1401,10.13,10.0606,10.0308,10.0308,10.0308,10.0308,10.0308,10.0308,9.9877,9.9282,9.9282,9.8818,9.8188,9.8188,9.8188,9.8221,9.8221,9.8718,9.9315,9.9315,9.9778,10.0209,9.948,9.9778,10.0308,10.0308,10.0308,10.0308,10.0308,10.0308,10.0308,10.0308,9.9745,9.9315,9.9315,9.8718,9.8221,9.8188,9.7558,9.7095,9.7095,9.6465,9.6001,9.6001,9.4641,9.343,9.2684,9.1173,9.0319,9.0479,8.9099,8.7949,8.7291,8.7259,8.7259,8.7193,8.7193,8.6529,8.506,8.4988,8.4252,8.2844,8.2806,8.2806,8.2806,8.2806,8.2806,6.5141,6.8132,7.0838,7.2259,7.209,7.0466,6.6237,6.4356,6.2091,5.7085,5.6461,5.7103,5.8051,5.9539,6.1409,6.3971,6.6011,7.089,8.1317,8.306,8.6351,9.4604,9.3017,9.2424,9.5471,9.4941,9.5869,9.938,9.8751,9.8619,9.9579,10.0109,10.0209,9.9977,10.1004,10.1699,10.2095,10.1896,10.1996,10.2492,10.1105,10.0602,10.0797,9.8923,9.8084,9.8089,9.735,9.6993,9.6993,9.6993,9.7681,9.8645,9.8645,9.8951,9.9315,9.9315,9.9149,9.8884,9.8387,9.8817,9.9645,9.9645,9.9778,10.0109,10.0606,10.0472,10.0308,10.001,10.0075,10.0308,10.0308,10.0308,10.0308,10.0308,10.0308,10.0308,10.0308,10.0109,9.9977,9.9977,9.9778,9.948,9.905,9.8785,9.7919,9.5848,9.5319,9.4583,9.2993,9.2365,9.1985,9.1726,9.0324,8.9463,8.9613,8.9171,8.8795,8.8574,8.8577,8.8083,8.7042,8.6607,8.5665,8.4125,8.374,8.3266,8.2806,8.3217,8.3427,8.3427,8.3016,8.2806,6.1859,6.4647,6.7354,6.8741,6.8368,6.688,6.3802,6.2415,6.0704,5.6883,5.6916,5.7848,5.8592,6.0148,6.2688,6.6889,6.7509,7.1208,8.2106,8.24,8.4612,9.3085,9.2886,9.3186,9.6266,9.5935,9.6896,10.0109,9.948,9.948,10.0705,10.1004,10.0992,10.0629,10.208,10.2674,10.2403,10.24,10.2078,10.1393,10.0295,9.9843,9.9843,9.8113,9.7335,9.7303,9.6323,9.5913,0.0,9.5597,9.6104,9.6993,9.6993,9.7548,9.8395,9.8658,9.9004,9.9282,9.9049,9.9745,10.0705,10.0705,10.0705,10.0805,10.1302,10.0904,10.0308,10.0308,10.0308,10.0308,10.0308,10.0308,10.0308,10.0308,10.0308,10.0104,9.9518,9.9183,9.8847,9.8218,9.8112,9.7981,9.7558,9.746,9.6818,9.4918,9.42,9.3299,9.1845,9.0941,9.0417,9.0417,8.9058,8.8181,8.823,8.8032,8.7784,8.7505,8.7505,8.7063,8.6122,8.5689,8.4933,8.3726,8.3337,8.3046,8.2806,8.3158,8.3367,8.3367,8.3217,8.3046,0.0,6.2415,6.3849,6.7421,6.5696,6.2956,6.2279,6.0486,0.0,5.7239,5.8032,5.925,6.0028,6.1158,6.4302,7.1339,6.9858,7.1532,8.225,8.1205,8.1426,8.6954,9.0865,9.3384,9.4179,9.7923,10.0308,10.0308,10.0308,10.0606,10.1401,10.2095,10.2086,10.1108,10.2695,10.2991,10.1989,10.2022,10.1229,9.961,9.9452,9.9412,9.9318,9.86,9.8207,9.8081,9.6727,9.6161,9.6098,9.5405,9.5198,9.5312,9.5312,9.5908,9.6776,9.7458,9.8288,9.9107,9.9801,10.0597,10.1296,10.1398,10.1398,10.1195,10.13,10.0804,10.0308,10.0308,10.0308,10.0308,10.0308,10.0308,10.0308,10.0308,10.0205,9.9691,9.822,9.7343,9.6356,9.489,9.4591,9.4591,9.4591,9.4522,9.4447,9.4271,9.3099,9.2179,9.2006,9.014,8.8861,8.8861,8.7573,8.6728,8.6728,8.612,8.5492,8.4893,8.4863,8.4863,8.4863,8.4803,8.4504,8.3837,8.3748,8.3427,8.2866,8.2806,8.2806,8.2896,8.3397,8.3337,5.6106,0.0,5.8727,6.0148,5.9877,5.9302,0.0,5.8964,5.822,5.8457,5.8743,5.9348,6.0512,6.5013,6.8338,6.7591,7.0913,7.4689,7.7755,8.3674,8.8415,9.0337,9.4344,9.7393,9.8652,9.9712,10.0308,10.0308,10.0308,10.0606,10.1401,10.2095,10.2086,10.1108,10.1994,10.1822,10.0199,10.0199,10.0003,9.9571,9.8282,9.7424,9.6887,9.5439,9.4479,9.3963,9.3145,9.2739,9.2679,9.2012,9.2516,9.3644,9.3644,9.453,9.5844,9.6003,9.6195,9.6496,9.7162,9.8329,9.9855,10.1679,10.1026,9.962,10.0293,10.0373,10.0308,10.0308,10.0308,10.0308,10.0308,10.0308,10.0308,10.0308,9.9345,9.8363,9.8005,9.6828,9.57,9.5324,9.5249,9.5249,9.5249,9.5249,9.4675,9.2878,9.191,9.0737,8.9025,8.7878,8.722,8.722,8.6936,8.6728,8.6728,8.6578,8.6389,8.621,8.621,8.621,8.621,8.5731,8.5402,8.5222,8.4196,8.3628,8.3517,8.3046,8.3046,8.3487,8.3158,8.2956,5.4516,5.5683,5.69,5.7306,5.7663,5.7983,5.8389,5.8693,5.9133,5.9911,6.0569,6.1457,6.267,6.614,6.9893,7.324,7.4498,7.621,7.9399,8.656,9.1662,9.2059,9.6266,9.9347,9.9778,10.0109,10.0308,10.0308,10.0308,10.0805,10.1797,10.1595,10.1104,10.0397,10.0111,9.9404,9.8444,9.8444,9.807,9.7281,9.6386,9.574,9.5364,9.4491,9.387,9.3451,9.2494,9.2075,9.1985,9.0986,9.1115,9.1942,9.1942,9.2964,9.4392,9.4392,9.4854,9.5597,9.6254,9.7338,9.856,9.9869,9.8992,9.7469,9.7959,9.7694,9.7555,9.9336,9.9844,9.9741,9.9315,9.9206,9.903,9.8289,9.7427,9.6587,9.5847,9.4756,9.3724,9.2984,9.2858,9.2858,9.2858,9.3066,9.2841,9.1617,9.0858,8.9901,8.8366,8.7556,8.7018,8.6758,8.6728,8.6728,8.6728,8.6728,8.6728,8.6728,8.6728,8.6728,8.6728,8.6329,8.6,8.5701,8.4714,8.4136,8.4136,8.3517,8.3397,8.3688,8.3068,8.2806,5.4397,5.5683,5.7002,5.778,5.8017,5.8306,5.9201,5.9945,6.0689,6.1467,6.3403,6.5226,6.6085,6.8237,7.2759,8.1557,7.901,7.7794,8.311,8.8647,9.2358,9.2788,9.7095,9.9877,9.9612,10.001,10.0308,10.0308,10.0308,10.08,10.2077,10.0794,9.9753,9.9222,9.7866,9.695,9.6731,9.6731,9.6037,9.4618,9.4618,9.4618,9.4618,9.4618,9.4618,9.4528,9.3182,9.2613,9.2494,9.1135,9.0597,9.0597,9.0597,9.1484,9.2716,9.2716,9.3566,9.4872,9.5793,9.6478,9.6926,9.7478,9.6506,9.5085,9.535,9.4381,9.3887,9.7288,9.8338,9.8225,9.7448,9.7217,9.6923,9.5651,9.5154,9.4614,9.3369,9.2455,9.1491,9.0128,8.9872,8.9872,8.9872,9.0279,9.0597,9.0597,9.01,8.9482,8.8783,8.8095,8.7437,8.6788,8.6728,8.6728,8.6728,8.6728,8.6728,8.6728,8.6728,8.6728,8.6728,8.6728,8.6359,8.5701,8.5132,8.4803,8.4714,8.4106,8.3807,8.3688,8.3158,8.2896,5.4397,5.5683,5.7848,6.2313,6.1095,6.0129,6.5222,6.414,6.2245,6.3024,6.7625,7.135,7.0739,7.8693,8.4551,8.2371,8.231,8.2646,8.3016,8.7024,9.0834,9.3318,9.6531,9.9182,10.0904,10.0606,10.0308,10.0308,10.0308,10.0282,10.0373,10.0113,9.926,9.7549,9.724,9.6397,9.499,9.499,9.4848,9.4618,9.4618,9.4618,9.4618,9.4618,9.4618,9.4528,9.3182,9.2613,9.2494,9.1135,9.0597,9.0597,9.0597,9.0763,9.0981,9.0981,9.1115,9.1656,9.3813,9.4035,9.3864,9.6769,9.5383,9.2816,9.4241,9.3263,9.1913,9.3123,9.3905,9.4347,9.4186,9.4181,9.4266,9.4565,9.3626,9.2729,9.304,9.1891,9.0748,9.053,9.0447,9.0447,9.0447,9.0537,9.0597,9.0597,9.01,8.9482,8.8783,8.8095,8.7437,8.6788,8.6728,8.6728,8.6728,8.6728,8.6728,8.6728,8.6728,8.6728,8.6728,8.6728,8.6359,8.5701,8.5611,8.5282,8.4714,8.4624,8.4226,8.3688,8.3598,8.3277,5.4516,5.5971,5.9133,6.6406,6.5675,6.4153,6.7726,6.8948,6.8535,6.569,6.9222,7.2926,7.312,7.747,8.1841,8.4365,8.8316,9.0834,9.0072,9.3053,9.567,9.6631,9.8618,10.0175,10.0704,9.9715,9.903,9.903,9.8217,9.8003,9.8671,9.7787,9.7237,9.7096,9.6217,9.5388,9.4618,9.4618,9.4618,9.4618,9.4618,9.4618,9.4588,9.4229,9.405,9.399,9.2643,9.2075,9.1985,9.0986,9.0597,9.0597,9.0597,9.0597,9.0597,9.0597,9.0806,9.123,9.2009,9.2184,9.2237,9.3444,9.2222,9.0353,9.1114,9.0151,8.8892,8.9237,9.105,9.28,9.2313,9.246,9.2604,9.2045,9.1583,9.1375,9.1678,9.1115,9.0597,9.0597,9.0597,9.0597,9.0597,9.0597,9.0597,9.0597,9.0369,8.995,8.9292,8.8634,8.7975,8.7317,8.6938,8.6728,8.6728,8.6728,8.6728,8.6728,8.6728,8.6728,8.6728,8.6728,8.6578,8.624,8.621,8.609,8.5761,8.5432,8.5103,8.4773,8.4017,8.3538,5.5378,5.7611,6.1941,6.9045,6.918,6.8381,7.1424,7.431,7.4983,7.0208,7.296,7.6424,7.7152,7.7806,8.0324,8.6756,9.2291,9.5869,9.6001,9.8055,9.948,9.9348,9.99,10.0187,9.9792,9.8256,9.7322,9.7322,9.6337,9.6101,9.6941,9.5853,9.5639,9.6492,9.529,9.4618,9.4618,9.4618,9.4618,9.4618,9.4618,9.4618,9.4588,9.39,9.3571,9.3511,9.2194,9.1626,9.1566,9.0866,9.0597,9.0597,9.0597,9.0597,9.0597,9.0597,9.0926,9.1285,9.0776,9.0926,9.1225,9.0567,8.9741,8.8873,8.8723,8.7975,8.7177,8.7177,8.9266,9.1311,9.0512,9.0812,9.1006,8.9989,9.004,9.0417,9.0567,9.0597,9.0597,9.0597,9.0597,9.0597,9.0597,9.0597,9.0597,9.0597,9.0597,9.0358,8.9782,8.9273,8.8604,8.7796,8.7227,8.6878,8.6728,8.6728,8.6728,8.6728,8.6728,8.6728,8.6728,8.6728,8.6728,8.6728,8.6728,8.6728,8.6728,8.618,8.5851,8.5671,8.4504,8.3837,5.778,6.1806,6.7523,6.891,6.962,7.1886,7.9288,8.0154,7.8975,7.7563,8.2182,8.6343,8.5748,8.767,8.9343,8.9277,9.0801,9.2921,9.5637,9.6763,9.7823,9.9149,9.8011,9.7393,9.8012,9.6624,9.5653,9.5653,9.614,9.6063,9.5225,9.5628,9.5581,9.4818,9.4632,9.4618,9.4618,9.4618,9.4618,9.4618,9.4618,9.4618,9.4588,9.39,9.3571,9.3511,9.2194,9.1626,9.1566,9.0866,9.0597,9.0597,9.0597,9.0597,9.0597,9.0597,9.0627,9.0657,9.0627,9.0627,9.0567,8.995,8.9722,8.9512,8.8873,8.8604,8.8544,8.8544,8.8746,8.8817,8.8116,8.8446,8.9065,8.9613,8.9752,8.989,9.0477,9.0597,9.0597,9.0597,9.0597,9.0597,9.0597,9.0597,9.0597,9.0597,9.0597,9.0358,8.9782,8.9662,8.9112,8.7856,8.7676,8.7377,8.6758,8.6728,8.6728,8.6728,8.6728,8.6728,8.6728,8.6728,8.6728,8.6728,8.6728,8.6728,8.6728,8.6668,8.6299,8.5671,8.4983,8.4286,5.7712,6.2584,6.8876,7.2879,7.5387,7.7401,7.938,8.4262,8.6783,8.1109,8.3592,8.6907,8.7507,8.8111,8.9608,9.2954,9.2059,9.2291,9.6134,9.6818,9.7118,9.7673,9.6714,9.6115,9.637,9.4931,9.3996,9.3996,9.3659,9.3464,9.3502,9.4125,9.4524,9.4588,9.4618,9.4618,9.4618,9.4618,9.4618,9.4618,9.4618,9.4618,9.4558,9.3481,9.2972,9.2883,9.1566,9.0956,9.0956,9.0687,9.0597,9.0597,9.0597,9.0597,9.0597,9.0597,9.0597,9.0597,9.0597,9.0597,9.0477,8.989,8.9423,8.8933,8.8274,8.7766,8.7526,8.7945,8.8364,8.8634,8.8394,8.8813,8.9393,8.9662,8.998,9.0339,9.0537,9.0597,9.0597,9.0597,9.0597,9.0597,9.0597,9.0597,9.0597,9.0597,9.0597,9.0507,9.0309,8.992,8.9512,8.8993,8.8185,8.7437,8.6788,8.6728,8.6728,8.6728,8.6728,8.6728,8.6728,8.6728,8.6728,8.6728,8.6728,8.6728,8.6728,8.6728,8.6578,8.6339,8.5641,8.5192,5.8287,6.4715,7.1999,7.4317,7.9331,8.3215,8.1504,8.5789,8.8693,8.3753,8.6015,8.8945,8.9012,8.8813,9.0039,9.4279,9.221,9.1724,9.6361,9.6423,9.6102,9.6364,9.5406,9.4739,9.4739,9.3282,9.2407,9.262,9.2173,9.2224,9.2883,9.3541,9.411,9.4588,9.4618,9.4618,9.4618,9.4618,9.4618,9.4618,9.4618,9.4618,9.4558,9.3212,9.2613,9.2524,9.1165,9.0597,9.0597,9.0597,9.0597,9.0597,9.0597,9.0597,9.0597,9.0597,9.0597,9.0597,9.0597,9.0597,9.0447,8.9651,8.9243,8.8843,8.7975,8.7526,8.7447,8.7885,8.8334,8.8693,8.8693,8.9322,8.998,8.998,9.0309,9.0597,9.0597,9.0597,9.0597,9.0597,9.0597,9.0597,9.0597,9.0597,9.0597,9.0597,9.0597,9.0597,9.0597,9.0249,8.989,8.9722,8.8484,8.7496,8.7048,8.6848,8.6728,8.6728,8.6728,8.6728,8.6728,8.6728,8.6728,8.6728,8.6728,8.6728,8.6728,8.6728,8.6728,8.6698,8.6,8.5701,6.0163,6.8956,7.7844,7.235,8.0397,8.9125,8.6991,8.437,8.3104,8.5621,9.0801,9.3981,9.1035,9.1099,9.1828,9.2623,9.0782,9.0994,9.6078,9.5386,9.4637,9.5401,9.4074,9.3084,9.3084,9.1606,9.0866,9.1566,9.2224,9.2883,9.3541,9.4229,9.4618,9.4618,9.4618,9.4618,9.4618,9.4618,9.4618,9.4618,9.4618,9.4618,9.4558,9.3212,9.2613,9.2524,9.1165,9.0597,9.0597,9.0597,9.0597,9.0597,9.0597,9.0597,9.0597,9.0597,9.0597,9.0597,9.0597,9.0597,9.0388,8.9112,8.9183,8.9452,8.8095,8.8155,8.8663,8.8663,8.8663,8.8693,8.8693,8.9651,9.0567,9.0597,9.0597,9.0597,9.0597,9.0597,9.0597,9.0597,9.0597,9.0597,9.0597,9.0597,9.0597,9.0597,9.0597,9.0597,9.0597,9.0597,9.0399,8.9782,8.8514,8.7706,8.7706,8.7077,8.6728,8.6728,8.6728,8.6728,8.6728,8.6728,8.6728,8.6728,8.6728,8.6728,8.6728,8.6728,8.6728,8.6698,8.6,8.5701,7.132,7.7791,8.3207,8.3634,8.5632,8.7762,8.8754,8.8324,8.7,8.4427,8.9343,9.3384,9.0935,9.067,9.1713,9.4374,9.2529,9.175,9.4697,9.415,9.3584,9.377,9.2355,9.132,9.132,9.1318,9.1375,9.1596,9.2673,9.3361,9.3571,9.4229,9.4618,9.4618,9.4618,9.4618,9.4618,9.4618,9.4618,9.4618,9.4618,9.4618,9.4558,9.3212,9.2613,9.2524,9.1165,9.0597,9.0597,9.0597,9.0597,9.0597,9.0597,9.0597,9.0597,9.0597,9.0431,9.0222,9.0514,9.0431,9.0014,8.9031,8.8813,8.8723,8.7377,8.6938,8.6965,8.7382,8.7328,8.7202,8.7646,8.8308,8.8983,8.9748,8.995,9.007,9.0507,9.0597,9.0597,9.0597,9.0597,9.0597,9.0597,9.0597,9.0597,9.0597,9.0597,9.0597,9.0597,9.0597,9.0399,8.9782,8.9363,8.8693,8.7796,8.7526,8.7197,8.6758,8.6728,8.6728,8.6728,8.6728,8.6728,8.6728,8.6728,8.6728,8.6728,8.6728,8.6728,8.6728,8.6519,8.6389,7.2784,7.9332,8.5542,8.6898,8.8713,9.0027,8.9806,8.9543,8.8519,8.5629,9.0171,9.4218,9.2843,9.2581,9.3264,9.5307,9.3359,9.2152,9.3684,9.2846,9.2144,9.2144,9.1197,9.0687,9.0956,9.1345,9.1835,9.2344,9.3122,9.3691,9.396,9.4379,9.4618,9.4618,9.4618,9.4618,9.4618,9.4618,9.4618,9.4618,9.4319,9.4199,9.4169,9.3092,9.2464,9.2135,9.1046,9.0597,9.0597,9.0597,9.0514,9.0347,9.0347,9.0264,9.0097,9.0097,8.9929,8.9761,9.0013,8.9929,8.9524,8.8468,8.8134,8.7907,8.6597,8.601,8.5898,8.6254,8.6169,8.6084,8.6508,8.6801,8.7295,8.8696,8.918,8.9512,9.01,9.0249,9.0339,9.0537,9.0597,9.0597,9.0597,9.0597,9.0597,9.0597,9.0597,9.0597,9.0597,9.0597,9.0447,9.01,8.9872,8.9393,8.8544,8.8005,8.7526,8.7107,8.6878,8.6728,8.6728,8.6728,8.6728,8.6728,8.6728,8.6728,8.6728,8.6728,8.6728,8.6728,8.6728,8.6728,6.9144,7.6835,8.5725,8.5345,9.0244,9.4171,9.0445,8.907,8.8415,8.7909,9.1942,9.5404,9.498,9.5251,9.5492,9.5223,9.3444,9.2297,9.2793,9.1596,9.0687,9.0687,9.0746,9.1016,9.1614,9.1776,9.2284,9.3481,9.3631,9.396,9.4588,9.4618,9.4618,9.4618,9.4618,9.4618,9.4618,9.4618,9.4618,9.4588,9.39,9.3584,9.3481,9.2793,9.2135,9.1464,9.0866,9.0597,9.0555,9.0555,9.0306,8.9929,8.9929,8.9677,8.9297,8.9297,8.9297,8.9255,8.9297,8.9297,8.9019,8.7735,8.7293,8.7057,8.5789,8.5376,8.5336,8.5336,8.5295,8.5255,8.5255,8.5295,8.5712,8.7302,8.8167,8.8792,8.949,8.967,8.9879,9.0477,9.0555,9.0555,9.0597,9.0555,9.0526,9.0507,9.0567,9.0567,9.0507,9.0507,9.0537,9.0597,9.007,8.9722,8.9722,8.8574,8.7796,8.7616,8.7018,8.6668,8.6509,8.6668,8.6728,8.6728,8.6728,8.6698,8.6638,8.6698,8.6668,8.6638,8.6698,8.6619,7.9169,8.3454,8.6442,9.1391,9.2908,9.2802,9.1367,9.0816,8.9373,8.491,8.8365,9.1546,8.9213,9.2008,9.4258,9.2932,9.2827,9.2452,9.129,9.1265,9.1375,9.1375,9.1865,9.2224,9.2374,9.2853,9.3272,9.3571,9.408,9.4439,9.4588,9.4618,9.4618,9.4618,9.4618,9.4618,9.4618,9.4618,9.4618,9.4588,9.39,9.3302,9.2793,9.2135,9.1434,9.0806,9.0657,9.0431,9.0139,9.0139,8.9845,8.9466,8.9466,8.9382,8.9297,8.9297,8.9085,8.883,8.917,8.9085,8.8595,8.761,8.7293,8.7057,8.5789,8.5203,8.4947,8.4947,8.4673,8.4386,8.4386,8.4632,8.5006,8.5393,8.6544,8.7871,8.8925,8.9573,9.0044,9.0526,9.0347,9.0222,9.0555,9.0347,9.0085,8.9909,9.0309,9.0417,8.995,8.986,9.007,9.0537,9.007,8.9722,8.9722,8.9452,8.8614,8.6988,8.6788,8.621,8.5162,8.612,8.6728,8.6728,8.6728,8.6459,8.591,8.6459,8.6459,8.591,8.6419,8.5951,7.8159,8.2201,8.6163,9.2722,9.3727,9.304,9.2617,9.1326,8.9437,8.6781,8.9166,9.1219,8.9622,9.1487,9.2832,9.1535,9.1658,9.1606,9.0721,9.1165,9.1626,9.1626,9.2194,9.2733,9.3032,9.3391,9.3721,9.405,9.4409,9.4618,9.4618,9.4618,9.4618,9.4618,9.4618,9.4618,9.4618,9.4618,9.4439,9.411,9.3421,9.2529,9.1362,9.1171,9.0926,9.0597,9.0389,9.018,8.9971,8.9761,8.9382,8.8928,8.8928,8.883,8.8659,8.8659,8.8488,8.8317,8.8574,8.8488,8.8083,8.7011,8.6656,8.6422,8.5176,8.4632,8.4468,8.4468,8.4303,8.4097,8.4097,8.4262,8.4468,8.4468,8.5457,8.6638,8.7552,8.8184,8.8724,8.9377,8.9496,8.9627,8.9912,9.0013,8.9978,8.9858,9.0305,9.0358,8.9782,8.9722,8.9722,8.9711,8.9412,8.9243,8.9243,8.8903,8.8274,8.7227,8.6908,8.621,8.5222,8.5851,8.606,8.5731,8.5731,8.5581,8.5222,8.5581,8.5551,8.5183,8.4734,8.4149,7.215,7.8206,8.5839,9.1908,9.3327,9.3237,9.2925,9.0669,8.8808,8.9604,9.0802,9.1636,9.1586,9.1809,9.1697,9.0905,9.0866,9.0896,9.0776,9.1434,9.1925,9.1805,9.2464,9.3152,9.3691,9.375,9.399,9.4558,9.4618,9.4618,9.4618,9.4618,9.4618,9.4618,9.4618,9.4618,9.4618,9.4618,9.4216,9.3485,9.2623,9.1384,8.9887,9.0222,9.0389,9.0347,9.0013,8.9845,8.9719,8.934,8.8886,8.8488,8.8488,8.8231,8.7886,8.7886,8.7886,8.7886,8.7886,8.7886,8.7683,8.6522,8.6087,8.5768,8.462,8.4184,8.4097,8.4097,8.4097,8.4097,8.4097,8.4097,8.4097,8.4097,8.4644,8.5379,8.6108,8.6631,8.7179,8.7983,8.8439,8.8771,8.9002,8.9416,8.9709,8.9793,9.0085,9.0095,8.9591,8.9452,8.9213,8.8723,8.8574,8.8574,8.8663,8.8185,8.7766,8.7556,8.6988,8.6329,8.5551,8.5217,8.4792,8.4256,8.4256,8.404,8.3618,8.3736,8.3736,8.3578,8.2288,8.1758,6.598,7.6613,8.6855,9.0815,9.1694,9.1258,8.9929,8.8248,8.7375,8.8637,8.9038,8.9329,8.991,9.0909,9.1607,9.1476,9.1955,9.2135,9.1566,9.2554,9.3092,9.2554,9.3571,9.4379,9.4469,9.4469,9.4499,9.4588,9.4618,9.4618,9.4618,9.4618,9.4618,9.4618,9.4618,9.4618,9.4618,9.4618,9.4043,9.2939,9.1378,9.0175,8.9424,8.9466,8.9466,8.9466,8.9424,8.917,8.8787,8.8745,8.8445,8.8015,8.8015,8.7972,8.7886,8.7886,8.7886,8.7886,8.7886,8.7886,8.777,8.7087,8.6477,8.5855,8.5171,8.4533,8.4097,8.4097,8.4097,8.4097,8.4097,8.4097,8.4097,8.4097,8.418,8.456,8.5545,8.6284,8.689,8.7428,8.7582,8.7705,8.7892,8.8232,8.8652,8.9068,8.9151,8.915,8.8862,8.8334,8.8155,8.8634,8.8185,8.8065,8.8634,8.8604,8.8065,8.6938,8.6758,8.612,8.4893,8.3331,8.2445,8.2358,8.2427,8.1424,7.9306,7.9886,7.9886,7.9335,7.9708,7.9059,6.5681,7.6535,8.5937,8.7435,8.9234,9.0386,8.9268,8.7815,8.6958,8.7945,8.8424,8.8993,9.001,9.0668,9.1135,9.1566,9.1865,9.2075,9.2165,9.2972,9.3481,9.3182,9.402,9.4618,9.4618,9.4618,9.4618,9.4618,9.4618,9.4618,9.4618,9.4618,9.4618,9.4618,9.4618,9.4458,9.4227,9.4227,9.3474,9.193,9.0457,8.9435,8.8915,8.8915,8.9085,8.9297,8.9043,8.8787,8.8574,8.8317,8.8101,8.7886,8.7886,8.7886,8.7886,8.7886,8.7886,8.7886,8.7886,8.7886,8.777,8.7203,8.6565,8.5884,8.5287,8.462,8.4097,8.4097,8.4097,8.4097,8.4097,8.4097,8.4097,8.4097,8.4097,8.4238,8.4694,8.5233,8.5803,8.6361,8.6535,8.6606,8.6729,8.7124,8.7502,8.7669,8.8138,8.8189,8.7524,8.7331,8.7284,8.7265,8.6956,8.7017,8.7526,8.7556,8.7357,8.6758,8.575,8.4743,8.3762,8.1989,8.0344,7.8975,7.9935,7.9817,7.8453,7.8747,7.8578,7.7947,7.7232,7.668,6.5901,7.4403,8.1435,8.3502,8.6311,8.8572,8.8639,8.7655,8.6968,8.7766,8.8215,8.8843,9.016,9.0627,9.1016,9.1536,9.1746,9.1985,9.2314,9.3062,9.3511,9.3361,9.408,9.4618,9.4618,9.4618,9.4618,9.4618,9.4618,9.4618,9.4618,9.4618,9.4618,9.4618,9.4618,9.4401,9.3892,9.3347,9.2361,9.1011,8.9617,8.8787,8.8445,8.8445,8.8616,8.8915,8.8574,8.8445,8.8402,8.8058,8.7886,8.7886,8.7886,8.7886,8.7886,8.7886,8.7886,8.7886,8.7886,8.7886,8.7799,8.7377,8.6797,8.6158,8.552,8.4852,8.43,8.4126,8.4097,8.4097,8.4097,8.4097,8.4097,8.4097,8.4097,8.4097,8.4097,8.4386,8.4737,8.5204,8.5409,8.5594,8.5942,8.6295,8.6618,8.692,8.7357,8.7333,8.6508,8.6517,8.6232,8.5284,8.5214,8.5185,8.5126,8.5126,8.5166,8.5288,8.4034,8.3059,8.2557,8.0744,7.8899,7.7128,7.7898,7.7985,7.7283,7.7283,7.7034,7.6551,7.5296,7.4896,6.4608,6.8042,7.1504,7.9667,8.2844,8.4699,8.7196,8.7217,8.7048,8.8364,8.8155,8.8155,8.9512,9.0728,9.1566,9.1584,9.2135,9.2344,9.1746,9.2763,9.3332,9.2733,9.381,9.4618,9.4618,9.4618,9.4618,9.4618,9.4618,9.4618,9.4618,9.4618,9.4618,9.4618,9.4618,9.4401,9.3892,9.1776,9.062,9.0489,8.8799,8.7972,8.7929,8.7929,8.7972,8.7972,8.7929,8.7929,8.7929,8.7929,8.7886,8.7886,8.7886,8.7886,8.7886,8.7886,8.7886,8.7886,8.7886,8.7886,8.7886,8.7828,8.7435,8.6826,8.6187,8.5549,8.491,8.4271,8.4097,8.4097,8.4097,8.4097,8.4097,8.4097,8.4097,8.4097,8.4097,8.4138,8.4138,8.4167,8.4196,8.4591,8.5768,8.6042,8.6414,8.7463,8.7137,8.666,8.6426,8.5859,8.4807,8.2997,8.2759,8.2226,8.0921,8.0836,8.1007,8.1463,8.142,8.1307,8.1321,7.9564,7.8536,7.842,7.6747,7.534,7.4212,7.4212,7.4186,7.416,7.4097,7.4052,6.0302,6.4093,6.7748,7.1118,7.5091,7.8299,7.8744,8.1272,8.3547,8.3606,8.612,8.8364,8.8394,8.9471,9.0638,9.1476,9.1805,9.2045,9.2224,9.2643,9.3032,9.3212,9.3661,9.411,9.4558,9.4618,9.4618,9.4618,9.4618,9.4618,9.4618,9.4618,9.4488,9.4154,9.4154,9.3761,9.3012,9.103,9.0036,9.0007,8.8582,8.7886,8.7886,8.7886,8.7886,8.7886,8.7886,8.7886,8.7886,8.7886,8.7886,8.7886,8.7886,8.7886,8.7886,8.7886,8.7886,8.7886,8.7886,8.7886,8.7886,8.7886,8.7493,8.6942,8.671,8.5926,8.5026,8.4794,8.4416,8.4097,8.4097,8.4097,8.4097,8.4097,8.4097,8.4097,8.4097,8.4097,8.4097,8.4097,8.4097,8.4242,8.4707,8.4794,8.4893,8.5334,8.5438,8.5357,8.497,8.4983,8.4286,8.2381,8.2142,8.1562,8.0133,8.0291,8.0577,8.075,7.9624,7.8923,7.8923,7.6864,7.5735,7.5735,7.5071,7.4688,7.4597,7.4597,7.4388,7.3996,7.3996,7.3996,5.7087,5.9971,6.2955,6.5593,6.9444,7.2856,7.3978,7.813,8.1759,8.1512,8.5132,8.8364,8.8364,8.8944,8.9752,9.0788,9.0968,9.1177,9.1835,9.2135,9.2434,9.2883,9.3122,9.3511,9.4199,9.4259,9.4349,9.4588,9.4618,9.4532,9.4401,9.4163,9.3826,9.3347,9.3379,9.3145,9.2523,9.0909,9.0004,8.9816,8.8742,8.8132,8.7886,8.7886,8.7886,8.7886,8.7886,8.7886,8.7886,8.7886,8.7886,8.7886,8.7886,8.7886,8.7886,8.7886,8.7886,8.7886,8.7886,8.7886,8.7886,8.7886,8.7639,8.7261,8.7058,8.6245,8.5374,8.5142,8.462,8.4097,8.4097,8.4097,8.4097,8.4097,8.4097,8.4097,8.4097,8.4097,8.4097,8.4097,8.4097,8.4155,8.4387,8.4416,8.4416,8.4416,8.4138,8.3731,8.3237,8.2845,8.1944,7.9972,7.9798,7.923,7.7744,7.7949,7.8243,7.8376,7.7243,7.6521,7.6521,7.5045,7.4217,7.4217,7.4217,7.4315,7.467,7.4853,7.4717,7.4326,7.4481,7.4507,0.0,0.0,0.0,6.3502,6.6294,6.8633,7.358,7.8226,8.1699,8.2627,8.5342,8.7975,8.9363,8.9123,8.8903,8.9572,8.9722,8.989,9.0477,9.1135,9.1596,9.1626,9.2194,9.2823,9.3524,9.3571,9.387,9.4528,9.4588,9.4401,9.3936,9.3268,9.2695,9.2216,9.2349,9.2478,9.2478,9.1346,9.0439,8.9816,8.9177,8.8539,8.7886,8.7886,8.7886,8.7886,8.7886,8.7886,8.7886,8.7886,8.7886,8.7886,8.7886,8.7886,8.7886,8.7886,8.7886,8.7886,8.7886,8.7886,8.7886,8.7886,8.7886,8.777,8.7203,8.6565,8.5884,8.5287,8.4649,8.4097,8.4097,8.4097,8.4097,8.4097,8.4056,8.4014,8.4014,8.3944,8.3944,8.4014,8.4014,8.4217,8.4814,8.4888,8.4888,8.4888,8.3307,8.1894,8.1289,7.9591,7.7664,7.58,7.5617,7.4999,7.3613,7.3472,7.3707,7.4123,7.417,7.417,7.417,7.417,7.417,7.417,7.417,7.417,7.417,7.4707,7.4964,7.4964,7.5446,7.54,5.3717,0.0,0.0,0.0,0.0,0.0,6.9248,7.1607,7.4629,8.1961,8.3816,8.4872,8.7117,8.8195,8.8753,8.8933,8.9741,9.0279,8.998,9.0489,9.1046,9.1566,9.1776,9.2135,9.2793,9.3302,9.3661,9.384,9.4319,9.4401,9.3936,9.3056,9.257,9.2437,9.2167,9.1986,9.1986,9.1196,9.0439,8.9816,8.9177,8.8539,8.7886,8.7886,8.7886,8.7886,8.7886,8.7886,8.7886,8.7886,8.7886,8.7886,8.7886,8.7886,8.7886,8.7886,8.7886,8.7886,8.7886,8.7886,8.7886,8.7886,8.7886,8.7857,8.7726,8.7232,8.6594,8.5955,8.5316,8.4707,8.4213,8.4097,8.4097,8.4097,8.3041,8.2086,8.2086,8.0963,8.0417,8.1803,8.2086,8.1689,8.0466,8.0276,8.0276,8.0276,7.9812,7.9406,7.9241,7.873,7.7664,7.58,7.5617,7.4861,7.3071,7.3284,7.3566,7.3707,7.3707,7.3707,7.3707,7.3306,7.3093,7.3093,7.3093,7.3093,7.3093,7.4009,7.4428,7.4428,7.4542,7.4542,0.0,0.0,0.0,0.0,0.0,0.0,6.3857,6.6789,7.0739,7.846,7.9956,8.098,8.4453,8.4115,8.3876,8.5551,8.6689,8.7885,8.9482,8.9771,9.007,9.0728,9.0818,9.1177,9.2105,9.2554,9.2798,9.2896,9.3522,9.3607,9.2952,9.2466,9.2093,9.1786,9.1518,9.1383,9.1383,9.0745,9.0077,8.9409,8.9061,8.8539,8.7886,8.7886,8.7886,8.7886,8.7886,8.7886,8.7886,8.7886,8.7886,8.7857,8.7639,8.7697,8.7828,8.7276,8.729,8.7493,8.7189,8.7102,8.7102,8.7102,8.7102,8.7102,8.7102,8.671,8.6158,8.6029,8.4971,8.3562,8.2114,8.1732,8.1732,8.1732,8.0892,8.0071,8.0071,7.9214,7.873,7.9853,8.0071,7.9722,7.8597,7.842,7.842,7.842,7.7709,7.7243,7.7243,7.6521,7.561,7.449,7.4398,7.3958,7.281,7.2976,7.3165,7.3165,7.3165,7.3165,7.3165,7.2882,7.2693,7.2693,7.2693,7.2693,7.2693,7.3541,7.4009,7.4217,7.4217,7.4077,0.0,0.0,0.0,0.0,0.0,0.0,5.9428,6.3558,6.8526,7.3825,7.4958,7.6395,8.098,7.8549,7.7053,8.0554,8.2028,8.4154,8.8345,8.8494,8.8334,8.8884,8.8903,8.949,9.1064,9.1231,9.1379,9.1711,9.2278,9.2286,9.1411,9.1565,9.1412,9.0787,9.0832,9.0832,9.0832,9.0164,8.9496,8.8931,8.8931,8.8539,8.7886,8.7886,8.7886,8.7886,8.7886,8.7886,8.7886,8.7799,8.777,8.7784,8.7203,8.729,8.7538,8.6406,8.639,8.6797,8.6203,8.6,8.6,8.6,8.6,8.6,8.6,8.5636,8.5245,8.5412,8.372,8.1231,7.8889,7.8366,7.842,7.842,7.8243,7.811,7.811,7.7932,7.7798,7.7798,7.7932,7.8021,7.7798,7.7798,7.7798,7.7798,7.6339,7.525,7.525,7.3771,7.2693,7.2693,7.2693,7.2693,7.2693,7.2693,7.2693,7.2693,7.2693,7.2693,7.2693,7.2693,7.2693,7.2693,7.2693,7.2693,7.2693,7.3165,7.3635,7.403,7.403,7.3822,0.0,0.0,0.0,0.0,0.0,0.0,6.3408,6.269,6.3498,7.2957,7.2059,7.0802,7.4869,7.5766,7.6155,7.6933,7.9806,8.2507,8.3944,8.4444,8.4564,8.4183,8.3815,8.4951,8.8372,8.8884,8.9475,9.053,9.082,9.0868,9.0694,9.0895,9.0948,9.0832,9.0832,9.0832,9.0832,9.0164,8.9496,8.8931,8.8931,8.8539,8.7886,8.7886,8.7886,8.7886,8.7886,8.7886,8.7828,8.7377,8.7174,8.7145,8.7029,8.6739,8.6319,8.6087,8.6058,8.6145,8.6029,8.6,8.6,8.6,8.6,8.6,8.6,8.5913,8.5341,8.298,8.0754,7.8933,7.7982,7.8084,7.842,7.842,7.7243,7.6139,7.6139,7.4927,7.3792,7.3792,7.5066,7.5636,7.4072,7.3792,7.3792,7.3792,7.349,7.3281,7.3281,7.2951,7.2693,7.2693,7.2693,7.2693,7.2693,7.2693,7.2693,7.2693,7.2693,7.2693,7.2693,7.2693,7.2693,7.2693,7.2693,7.2693,7.2693,7.2835,7.2929,7.2998,7.2998,7.2929,0.0,0.0,0.0,5.4521,0.0,0.0,0.0,5.9548,6.0266,6.7897,6.658,6.5293,6.9243,6.9183,6.921,7.1347,7.3511,7.5124,7.5795,8.1265,8.5222,8.5222,8.5027,8.5725,8.7814,8.844,8.9053,8.9882,8.9788,8.9818,9.0139,9.0224,9.0439,9.0803,9.0193,9.0019,9.0309,8.9307,8.8713,8.8393,8.8393,8.8248,8.7886,8.7886,8.7886,8.7857,8.7581,8.7464,8.7406,8.6768,8.6332,8.6042,8.6042,8.6042,8.5913,8.5316,8.5258,8.552,8.5171,8.5055,8.5055,8.5055,8.4397,8.3648,8.3648,8.3178,8.2123,7.9312,7.7798,7.6678,7.5176,7.4983,7.5146,7.5146,7.4628,7.4119,7.4119,7.3396,7.2693,7.2693,7.349,7.3864,7.2857,7.2693,7.2693,7.2693,7.2693,7.2693,7.2693,7.2693,7.2693,7.2693,7.2693,7.2693,7.2693,7.2693,7.2693,7.2693,7.2693,7.2693,7.2693,7.2693,7.2693,7.2693,7.2693,7.2693,7.2693,7.2693,7.2693,7.2693,7.2693,7.2693,0.0,0.0,0.0,0.0,0.0,5.5713,0.0,0.0,0.0,6.1912,6.0984,6.0565,6.4036,6.2453,6.1652,6.4754,6.6603,6.7615,6.7555,7.695,8.3901,8.3892,8.3815,8.4464,8.6127,8.7889,8.8931,8.8911,8.9018,8.9119,8.9264,8.9496,8.9874,9.0425,8.9438,8.9119,8.9642,8.8509,8.7886,8.7886,8.7886,8.7886,8.7886,8.7886,8.7828,8.7726,8.7203,8.6913,8.6739,8.61,8.5549,8.5084,8.5084,8.5316,8.5478,8.4474,8.4416,8.4823,8.4271,8.4097,8.4056,8.3695,8.2298,8.0747,8.0747,7.9774,7.8237,7.6047,7.5205,7.4478,7.2328,7.1836,7.1912,7.1912,7.2339,7.2693,7.2693,7.2693,7.2693,7.2693,7.2693,7.2693,7.2693,7.2693,7.2693,7.2693,7.2693,7.2693,7.2693,7.2693,7.2693,7.2693,7.2693,7.2693,7.2693,7.2693,7.2693,7.2693,7.2693,7.2693,7.2693,7.2693,7.2693,7.2693,7.2693,7.2693,7.2693,7.2693,7.2693,7.2693,7.2693,7.2693,0.0,0.0,0.0,0.0,5.6825,0.0,0.0,0.0,5.7244,5.7782,0.0,5.7932,5.9578,0.0,0.0,5.7404,6.232,6.5339,6.2558,6.8802,7.2831,7.0511,6.9913,7.2407,7.9349,8.5396,8.8232,8.652,8.8451,8.9003,8.7377,8.8364,8.9032,8.909,8.8989,8.8916,8.8974,8.8277,8.7886,8.7886,8.7886,8.7886,8.7886,8.7886,8.761,8.7087,8.7,8.6652,8.61,8.5461,8.5142,8.5084,8.5084,8.4765,8.43,8.4126,8.4126,8.4184,8.4126,8.4097,8.382,8.2171,8.0288,7.873,7.873,7.7476,7.5865,7.5106,7.3652,7.2188,7.1402,7.1535,7.1912,7.1912,7.2339,7.2693,7.2693,7.2693,7.2693,7.2693,7.2693,7.2693,7.2693,7.2693,7.2693,7.2693,7.2693,7.2693,7.2693,7.2693,7.2693,7.2693,7.2693,7.2693,7.2693,7.2693,7.2693,7.2693,7.2693,7.2693,7.2693,7.2693,7.2693,7.2693,7.2693,7.2693,7.2693,7.2693,7.2693,7.2693,7.2693,7.2693,0.0,0.0,0.0,0.0,0.0,0.0,5.8201,0.0,5.7004,0.0,0.0,0.0,0.0,0.0,0.0,0.0,5.8989,0.0,5.9154,6.2055,6.5972,7.0382,7.075,7.3016,7.9,8.0191,8.131,8.3081,8.4213,8.4474,8.3662,8.6274,8.7827,8.7827,8.7827,8.7958,8.8335,8.7697,8.7552,8.7886,8.7886,8.7726,8.7377,8.7377,8.7029,8.6419,8.6042,8.5723,8.5432,8.4765,8.4503,8.4503,8.4503,8.4329,8.4097,8.4097,8.4097,8.4097,8.4097,8.3376,8.1973,7.8977,7.7422,7.6566,7.5427,7.4557,7.386,7.3605,7.2767,7.1786,7.1234,7.1259,7.1435,7.1435,7.1861,7.2339,7.2618,7.2693,7.2693,7.2693,7.2693,7.2693,7.2693,7.2693,7.2693,7.2693,7.2693,7.2693,7.2693,7.2693,7.2693,7.2693,7.2693,7.2693,7.2693,7.2693,7.2693,7.2693,7.2693,7.2693,7.2693,7.3042,7.3067,7.2693,7.3067,7.3067,7.2693,7.2693,7.2693,7.2693,7.2693,7.2693,6.963,0.0,0.0,0.0,0.0,0.0,0.0,0.0,0.0,0.0,0.0,0.0,0.0,0.0,0.0,0.0,0.0,0.0,0.0,5.6859,0.0,0.0,0.0,0.0,0.0,7.5523,7.6239,7.8901,7.9917,8.0497,8.0672,8.3691,8.5723,8.6448,8.6623,8.6942,8.7363,8.7116,8.7116,8.7363,8.7712,8.7493,8.6739,8.6913,8.6536,8.5752,8.5287,8.4997,8.4765,8.43,8.4097,8.4097,8.4097,8.4097,8.4097,8.4097,8.3778,8.3334,8.3334,8.176,7.9285,7.6502,7.525,7.4537,7.314,7.2693,7.2693,7.2693,7.2339,7.1786,7.1234,7.1083,7.1033,7.0953,7.1284,7.1836,7.2389,7.2467,7.2492,7.2643,7.2693,7.2693,7.2693,7.2693,7.2693,7.2693,7.2693,7.2693,7.2693,7.2693,7.2693,7.2693,7.2693,7.2693,7.2693,7.2693,7.2693,7.2693,7.2969,7.3069,7.2966,7.3368,7.3393,7.2966,7.3217,7.3142,7.2693,7.2693,7.2693,7.2693,7.2693,7.2693,0.0,0.0,0.0,7.581,0.0,0.0,0.0,0.0,5.7961,0.0,0.0,0.0,0.0,0.0,0.0,0.0,0.0,0.0,0.0,0.0,0.0,0.0,0.0,0.0,0.0,7.2492,7.5745,0.0,7.6724,7.8756,7.9336,8.0643,8.253,8.5055,8.5752,8.6029,8.6058,8.6681,8.6681,8.6058,8.7305,8.7218,8.6029,8.671,8.6303,8.5113,8.5084,8.4707,8.4126,8.4097,8.4097,8.4097,8.4097,8.4097,8.4097,8.4097,8.2958,8.1376,8.1376,7.8933,7.5754,7.5663,7.4305,7.2762,7.2715,7.2693,7.2693,7.2693,7.2339,7.1786,7.1234,7.1083,7.0958,7.0451,7.0752,7.1259,7.1811,7.1937,7.2087,7.2568,7.2693,7.2693,7.2693,7.2693,7.2693,7.2693,7.2693,7.2693,7.2693,7.2693,7.2693,7.2693,7.2693,7.2693,7.2693,7.2693,7.2693,7.2693,7.377,7.4121,7.3594,7.3594,7.3594,7.3569,7.3042,7.2693,7.2693,7.2693,7.2693,7.2693,7.2693,7.2693,0.0,0.0,7.7335,8.1739,0.0,0.0,0.0,0.0,0.0,0.0,0.0,0.0,0.0,0.0,0.0,0.0,0.0,0.0,0.0,0.0,0.0,0.0,0.0,0.0,0.0,0.0,0.0,0.0,7.1405,0.0,7.5417,7.8756,8.1601,8.3749,8.4852,8.5403,8.5403,8.5607,8.5839,8.6,8.6884,8.6652,8.5432,8.6071,8.5636,8.4416,8.4416,8.3606,8.2255,8.2255,8.1476,8.0303,8.0303,8.0303,8.0476,8.176,8.1874,8.0948,7.8403,7.6683,7.5388,7.4072,7.3234,7.2693,7.2693,7.2693,7.2693,7.2693,7.2542,7.2238,7.1309,7.1083,7.0932,7.0451,7.0451,7.0727,7.1234,7.1359,7.1535,7.2087,7.2188,7.2288,7.2618,7.2693,7.2693,7.2693,7.2693,7.2693,7.2693,7.2693,7.2693,7.2693,7.2693,7.2693,7.2693,7.2693,7.2693,7.2693,7.3044,7.3217,7.3042,7.3393,7.3418,7.3042,7.3217,7.3117,7.2693,7.2693,7.2693,7.2693,7.2693,7.2693,8.5119,8.3527,0.0,8.6415,8.0626,0.0,7.4183,0.0,0.0,0.0,0.0,0.0,0.0,0.0,0.0,0.0,0.0,0.0,0.0,0.0,0.0,0.0,0.0,0.0,0.0,0.0,0.0,0.0,0.0,0.0,0.0,7.6317,7.9656,8.2733,8.3865,8.4533,8.4736,8.4736,8.4576,8.4346,8.5408,8.4777,8.2753,8.3561,8.3621,8.3083,8.2354,8.1803,8.1248,8.0575,7.9548,7.842,7.842,7.842,7.8553,7.981,7.9853,7.8801,7.5636,7.4583,7.4351,7.3093,7.2693,7.2693,7.2693,7.2693,7.2793,7.3396,7.3295,7.2866,7.2163,7.1686,7.1133,7.0204,6.9978,7.0129,7.0656,7.0828,7.1008,7.1761,7.1912,7.2087,7.264,7.2693,7.2693,7.2693,7.2693,7.2693,7.2693,7.2693,7.2693,7.2693,7.2693,7.2693,7.2693,7.2916,7.2941,7.2693,7.3069,7.3242,7.3042,7.3393,7.3519,7.3295,7.3293,7.3192,7.3042,7.2793,7.2693,7.2693,7.2693,7.2693]},{"header":{"parameterUnit":"m.s-1","parameterCategory":1,"la1":30.6,"la2":29.2853,"lo1":-89.7004,"lo2":-87.6739,"dx":0.0162,"dy":0.0183,"nx":112,"ny":82,"refTime":"2022-11-14T06:00:00:Z","depth":0,"parameterNumber":3,"parameterNumberName":"V-component_of_WINDS"},"data":[0.0,0.0,0.0,0.0,0.0,0.0,0.0,0.0,0.0,0.0,0.0,0.0,0.0,0.0,0.0,0.0,0.0,0.0,0.0,0.0,0.0,0.0,0.0,0.0,0.0,0.0,0.0,0.0,0.0,0.0,0.0,0.0,0.0,0.0,0.0,0.0,0.0,0.0,0.0,0.0,0.0,0.0,0.0,0.0,0.0,0.0,0.0,0.0,0.0,0.0,0.0,0.0,0.0,0.0,0.0,0.0,0.0,0.0,0.0,0.0,0.0,0.0,0.0,0.0,0.0,0.0,0.0,0.0,0.0,0.0,0.0,0.0,0.0,0.0,0.0,0.0,0.0,0.0,0.0,0.0,0.0,0.0,0.0,0.0,0.0,0.0,0.0,0.0,0.0,0.0,2.1743,2.2445,2.3429,2.3977,2.3884,2.3567,2.2138,1.9156,0.0,0.0,0.0,0.0,0.0,0.0,0.0,0.0,0.0,0.0,0.0,0.0,0.0,0.0,0.0,0.0,0.0,0.0,0.0,0.0,0.0,0.0,0.0,0.0,0.0,0.0,0.0,0.0,0.0,0.0,0.0,0.0,0.0,0.0,0.0,0.0,0.0,0.0,0.0,0.0,0.0,0.0,0.0,0.0,0.0,0.0,0.0,0.0,0.0,0.0,0.0,0.0,0.0,0.0,0.0,0.0,0.0,0.0,0.0,0.0,0.0,0.0,0.0,0.0,0.0,0.0,0.0,0.0,0.0,0.0,0.0,0.0,0.0,0.0,0.0,0.0,0.0,0.0,0.0,0.0,0.0,0.0,0.0,0.0,0.0,0.0,0.0,0.0,0.0,0.0,0.0,0.0,0.0,0.0,0.0,0.0,0.0,0.0,0.0,0.0,0.0,0.0,0.0,0.0,2.1917,2.4676,2.4917,2.4713,2.4182,2.3875,2.2479,1.9522,0.0,0.0,0.0,0.0,0.0,0.0,0.0,0.0,0.0,0.0,0.0,0.0,0.0,0.0,0.0,0.0,0.0,0.0,0.0,0.0,0.0,0.0,0.0,0.0,0.0,0.0,0.0,0.0,0.0,0.0,0.0,0.0,0.0,0.0,0.0,0.0,0.0,0.0,0.0,0.0,0.0,0.0,0.0,0.0,0.0,0.0,0.0,0.0,0.0,0.0,0.0,0.0,0.0,0.0,0.0,0.0,0.0,0.0,0.0,0.0,0.0,0.0,0.0,0.0,0.0,0.0,0.0,0.0,0.0,0.0,0.0,0.0,0.0,0.0,0.0,0.0,0.0,0.0,0.0,0.0,0.0,0.0,0.0,0.0,0.0,0.0,0.0,0.0,0.0,0.0,0.0,0.0,0.0,0.0,0.0,0.0,0.0,0.0,0.0,0.0,0.0,0.0,0.0,2.0909,2.2926,2.505,2.5157,2.4978,2.4769,2.4179,2.2714,2.0112,1.9166,0.0,0.0,0.0,0.0,0.0,0.0,0.0,0.0,0.0,0.0,0.0,0.0,0.0,0.0,0.0,0.0,0.0,0.0,0.0,0.0,0.0,0.0,0.0,0.0,0.0,0.0,0.0,0.0,0.0,0.0,0.0,0.0,0.0,0.0,0.0,0.0,0.0,0.0,0.0,0.0,0.0,0.0,0.0,0.0,0.0,0.0,0.0,0.0,0.0,0.0,0.0,0.0,0.0,0.0,0.0,0.0,0.0,0.0,0.0,0.0,0.0,0.0,0.0,0.0,0.0,0.0,0.0,0.0,0.0,0.0,0.0,0.0,0.0,0.0,0.0,0.0,0.0,0.0,0.0,0.0,0.0,0.0,0.0,0.0,0.0,0.0,0.0,0.0,0.0,0.0,0.0,0.0,0.0,0.0,0.0,0.0,0.0,0.0,0.0,0.0,0.0,0.0,2.2755,2.4678,2.5588,2.5758,2.5696,2.5449,2.444,2.2822,2.0541,1.9251,0.0,0.0,0.0,0.0,0.0,0.0,0.0,0.0,0.0,0.0,0.0,0.0,0.0,0.0,0.0,0.0,0.0,0.0,0.0,0.0,0.0,0.0,0.0,0.0,0.0,0.0,0.0,0.0,0.0,0.0,0.0,0.0,0.0,0.0,0.0,0.0,0.0,0.0,0.0,0.0,0.0,0.0,0.0,0.0,0.0,0.0,0.0,0.0,0.0,0.0,0.0,0.0,0.0,0.0,0.0,0.0,0.0,0.0,0.0,0.0,0.0,0.0,0.0,0.0,0.0,0.0,0.0,0.0,0.0,0.0,0.0,0.0,0.0,0.0,0.0,0.0,0.0,0.0,0.0,0.0,0.0,0.0,0.0,0.0,0.0,0.0,0.0,0.0,0.0,0.0,0.0,0.0,0.0,0.0,0.0,0.0,0.0,0.0,0.0,0.0,0.0,0.0,2.4983,2.7368,2.7359,2.7665,2.7384,2.6142,2.4733,2.2893,2.0557,1.8685,0.0,0.0,0.0,0.0,0.0,0.0,0.0,0.0,0.0,0.0,0.0,0.0,0.0,0.0,0.0,0.0,0.0,0.0,0.0,0.0,0.0,0.0,0.0,0.0,0.0,0.0,0.0,0.0,0.0,0.0,0.0,0.0,0.0,0.0,0.0,0.0,0.0,0.0,0.0,0.0,0.0,0.0,0.0,0.0,0.0,0.0,0.0,0.0,0.0,0.0,0.0,0.0,0.0,0.0,0.0,0.0,0.0,0.0,0.0,0.0,0.0,0.0,0.0,0.0,0.0,0.0,0.0,0.0,0.0,0.0,0.0,0.0,0.0,0.0,0.0,0.0,0.0,0.0,0.0,0.0,0.0,0.0,0.0,0.0,0.0,0.0,0.0,0.0,0.0,0.0,0.0,0.0,0.0,0.0,0.0,0.0,0.0,0.0,0.0,0.0,0.0,0.0,2.4561,2.6663,0.0,2.7736,2.7754,2.7495,2.6196,2.4323,2.1746,0.0,0.0,0.0,0.0,0.0,0.0,0.0,0.0,0.0,0.0,0.0,0.0,0.0,0.0,0.0,0.0,0.0,0.0,0.0,0.0,0.0,0.0,0.0,0.0,0.0,0.0,0.0,0.0,0.0,0.0,0.0,0.0,0.0,0.0,0.0,0.0,0.0,0.0,0.0,0.0,0.0,0.0,0.0,0.0,0.0,0.0,0.0,0.0,0.0,0.0,0.0,0.0,0.0,0.0,0.0,0.0,0.0,0.0,0.0,0.0,0.0,0.0,0.0,0.0,0.0,0.0,0.0,0.0,0.0,0.0,0.0,0.0,0.0,0.0,0.0,0.0,0.0,0.0,0.0,0.0,0.0,0.0,0.0,0.0,0.0,0.0,0.0,0.0,0.0,0.0,0.0,0.0,0.0,0.0,0.0,0.0,0.0,0.0,0.0,0.0,0.0,0.0,2.2369,2.5,2.7079,0.0,2.8142,2.8271,2.8289,2.7027,2.5165,2.2584,0.0,0.0,0.0,0.0,0.0,0.0,0.0,0.0,0.0,0.0,0.0,0.0,0.0,0.0,0.0,0.0,0.0,0.0,0.0,0.0,0.0,0.0,0.0,0.0,0.0,0.0,0.0,0.0,0.0,0.0,0.0,0.0,0.0,0.0,0.0,0.0,0.0,0.0,0.0,0.0,0.0,0.0,0.0,0.0,0.0,0.0,0.0,0.0,0.0,0.0,0.0,0.0,0.0,0.0,0.0,0.0,0.0,0.0,0.0,0.0,0.0,0.0,0.0,0.0,0.0,0.0,0.0,0.0,0.0,0.0,0.0,0.0,0.0,0.0,0.0,0.0,0.0,0.0,0.0,0.0,0.0,0.0,0.0,0.0,0.0,0.0,0.0,0.0,0.0,0.0,0.0,0.0,0.0,0.0,0.0,0.0,0.0,0.0,0.0,0.0,0.0,0.0,2.3223,2.6838,2.9224,2.8762,2.912,2.9108,2.8279,2.6955,2.5169,0.0,0.0,0.0,0.0,0.0,0.0,0.0,0.0,0.0,0.0,0.0,0.0,0.0,0.0,0.0,0.0,0.0,0.0,0.0,0.0,0.0,0.0,0.0,0.0,0.0,0.0,0.0,0.0,0.0,0.0,0.0,0.0,0.0,0.0,0.0,0.0,0.0,0.0,0.0,0.0,0.0,0.0,0.0,0.0,0.0,0.0,0.0,0.0,0.0,0.0,0.0,0.0,0.0,0.0,0.0,0.0,0.0,0.0,0.0,0.0,0.0,0.0,0.0,0.0,0.0,0.0,0.0,0.0,0.0,0.0,0.0,0.0,0.0,0.0,0.0,0.0,0.0,0.0,0.0,0.0,0.0,0.0,0.0,0.0,0.0,0.0,0.0,0.0,0.0,0.0,0.0,0.0,0.0,0.0,0.0,0.0,0.0,0.0,0.0,0.0,0.0,0.0,0.0,2.412,2.7225,2.9519,2.985,3.003,3.0027,2.9763,2.8943,2.7165,2.4236,0.0,0.0,0.0,0.0,0.0,0.0,0.0,0.0,0.0,0.0,0.0,0.0,0.0,0.0,0.0,0.0,0.0,0.0,0.0,0.0,0.0,0.0,0.0,0.0,0.0,0.0,0.0,0.0,0.0,0.0,0.0,0.0,0.0,0.0,0.0,0.0,0.0,0.0,0.0,0.0,0.0,0.0,0.0,0.0,0.0,0.0,0.0,0.0,0.0,0.0,0.0,0.0,0.0,0.0,0.0,0.0,0.0,0.0,0.0,0.0,0.0,0.0,0.0,0.0,0.0,0.0,0.0,0.0,0.0,0.0,0.0,0.0,0.0,0.0,0.0,0.0,0.0,0.0,0.0,0.0,0.0,0.0,0.0,0.0,0.0,0.0,0.0,0.0,0.0,0.0,0.0,0.0,0.0,0.0,0.0,0.0,0.0,0.0,0.0,0.0,0.0,0.0,2.4719,2.7621,2.976,3.0155,3.0199,3.0199,3.0199,2.995,2.8646,2.5935,0.0,0.0,0.0,0.0,0.0,0.0,0.0,0.0,0.0,0.0,0.0,0.0,0.0,0.0,0.0,0.0,0.0,0.0,0.0,0.0,0.0,0.0,0.0,0.0,0.0,0.0,0.0,0.0,0.0,0.0,0.0,0.0,0.0,0.0,0.0,0.0,0.0,0.0,0.0,0.0,0.0,0.0,0.0,0.0,0.0,0.0,0.0,0.0,0.0,0.0,0.0,0.0,0.0,0.0,0.0,0.0,0.0,0.0,0.0,0.0,0.0,0.0,0.0,0.0,0.0,0.0,0.0,0.0,0.0,0.0,0.0,0.0,0.0,0.0,0.0,0.0,0.0,0.0,0.0,0.0,0.0,0.0,0.0,0.0,0.0,0.0,0.0,0.0,0.0,0.0,0.0,0.0,0.0,0.0,0.0,0.0,0.0,0.0,0.0,0.0,0.0,0.0,2.51,2.7972,2.9965,2.9994,2.9965,2.995,2.995,3.0229,2.9584,2.7642,0.0,0.0,0.0,0.0,0.0,0.0,0.0,0.0,0.0,0.0,0.0,0.0,0.0,0.0,0.0,0.0,0.0,0.0,0.0,0.0,0.0,0.0,0.0,0.0,0.0,0.0,0.0,0.0,0.0,0.0,0.0,0.0,0.0,0.0,0.0,0.0,0.0,0.0,0.0,0.0,0.0,0.0,0.0,0.0,0.0,0.0,0.0,0.0,0.0,0.0,0.0,0.0,0.0,0.0,0.0,0.0,0.0,0.0,0.0,0.0,1.9415,1.7034,0.0,0.0,0.0,0.0,0.0,0.0,0.0,0.0,0.0,0.0,0.0,0.0,0.0,0.0,0.0,0.0,0.0,0.0,0.0,0.0,0.0,0.0,0.0,0.0,0.0,0.0,0.0,0.0,0.0,0.0,0.0,0.0,0.0,0.0,0.0,0.0,0.0,0.0,0.0,0.0,2.5725,2.8441,3.039,3.0598,3.0434,3.0287,3.0287,3.0346,2.9672,2.7911,2.7429,0.0,0.0,0.0,0.0,0.0,0.0,0.0,0.0,0.0,0.0,0.0,0.0,0.0,0.0,0.0,0.0,0.0,0.0,0.0,0.0,0.0,0.0,0.0,0.0,0.0,0.0,0.0,0.0,0.0,0.0,0.0,0.0,0.0,0.0,0.0,0.0,0.0,0.0,0.0,0.0,0.0,0.0,0.0,0.0,0.0,0.0,0.0,0.0,0.0,0.0,0.0,0.0,0.0,0.0,0.0,0.0,0.0,0.0,0.0,2.0733,1.9506,0.0,0.0,0.0,0.0,0.0,0.0,0.0,0.0,0.0,0.0,0.0,0.0,0.0,0.0,0.0,0.0,0.0,0.0,0.0,0.0,0.0,0.0,0.0,0.0,0.0,0.0,0.0,0.0,0.0,0.0,0.0,0.0,0.0,0.0,0.0,0.0,0.0,0.0,0.0,0.0,2.7232,2.9251,3.0642,3.0803,3.0671,3.0551,3.0405,3.0683,3.0393,2.9358,2.8569,0.0,0.0,0.0,0.0,0.0,0.0,0.0,0.0,0.0,0.0,0.0,0.0,0.0,0.0,0.0,0.0,0.0,0.0,0.0,0.0,0.0,0.0,0.0,0.0,0.0,0.0,0.0,0.0,0.0,0.0,0.0,0.0,0.0,0.0,0.0,0.0,0.0,0.0,0.0,0.0,0.0,0.0,0.0,0.0,0.0,0.0,0.0,0.0,0.0,0.0,0.0,0.0,0.0,2.3276,2.3469,2.3483,2.3704,2.3676,2.3422,2.2435,2.2552,2.3267,2.1211,0.0,0.0,0.0,0.0,0.0,0.0,0.0,0.0,0.0,0.0,0.0,0.0,0.0,0.0,0.0,0.0,0.0,0.0,0.0,0.0,0.0,0.0,2.4701,2.5988,2.6486,2.6339,2.5052,0.0,0.0,0.0,0.0,0.0,0.0,0.0,0.0,0.0,0.0,0.0,2.8695,3.0071,3.0905,3.0905,3.0905,3.0803,3.058,3.1007,3.1168,3.0805,2.9592,2.8817,0.0,0.0,0.0,0.0,0.0,0.0,0.0,0.0,0.0,0.0,0.0,0.0,0.0,0.0,0.0,0.0,0.0,0.0,0.0,0.0,0.0,0.0,0.0,0.0,0.0,0.0,0.0,0.0,0.0,0.0,0.0,0.0,1.7833,1.9611,0.0,0.0,0.0,0.0,0.0,0.0,0.0,0.0,0.0,0.0,0.0,0.0,0.0,2.275,2.456,2.4841,2.5738,2.7364,2.7631,2.7796,2.7796,2.7838,2.7824,2.7712,2.6304,0.0,2.3988,2.395,0.0,0.0,0.0,0.0,0.0,0.0,0.0,0.0,0.0,0.0,0.0,0.0,0.0,0.0,0.0,0.0,0.0,0.0,0.0,0.0,0.0,0.0,2.9423,2.935,2.9364,2.9408,2.9481,2.6624,2.3969,2.3825,2.4031,2.3987,0.0,0.0,0.0,0.0,0.0,0.0,2.89,3.0276,3.1242,3.1242,3.1242,3.1227,3.1183,3.1256,3.1168,3.0805,3.0849,3.0554,2.976,2.8364,0.0,0.0,0.0,0.0,0.0,0.0,0.0,0.0,0.0,0.0,0.0,0.0,0.0,0.0,0.0,0.0,0.0,0.0,0.0,0.0,0.0,0.0,0.0,0.0,0.0,0.0,0.0,0.0,0.0,1.7622,1.9251,2.1221,2.0988,2.0557,0.0,0.0,0.0,0.0,0.0,0.0,0.0,0.0,0.0,2.635,2.5135,2.5854,2.8845,2.7873,2.8815,3.1692,3.1069,3.1306,3.219,3.219,3.219,3.2142,3.1499,3.0851,2.9997,2.7128,2.5897,2.5733,0.0,0.0,0.0,0.0,2.314,2.3374,2.4036,2.5522,2.6946,2.6026,0.0,0.0,0.0,0.0,0.0,0.0,0.0,2.5305,2.6222,2.7598,2.9013,2.995,3.0038,2.995,3.0082,2.8807,2.743,2.6661,2.6647,2.6471,2.5652,2.6061,0.0,0.0,0.0,2.9661,3.0422,3.0978,3.1242,3.1051,3.1037,3.0964,3.0829,3.0934,3.0978,3.079,3.0788,3.0873,3.0949,2.972,2.8359,0.0,0.0,0.0,0.0,0.0,0.0,0.0,0.0,0.0,0.0,0.0,0.0,0.0,0.0,0.0,0.0,0.0,0.0,0.0,0.0,0.0,0.0,0.0,0.0,0.0,0.0,0.0,0.0,1.9501,2.105,2.3023,2.2948,2.2801,0.0,0.0,0.0,0.0,0.0,0.0,2.6727,2.5674,2.6655,3.0238,2.858,2.9297,3.2698,3.0915,3.1687,3.4937,3.414,3.4372,3.5588,3.5588,3.5588,3.5588,3.5588,3.5588,3.5253,3.0864,2.9026,2.8996,2.8477,2.7584,2.6563,2.6002,2.5877,2.6009,2.6331,2.7408,2.8569,2.8125,2.83,2.8481,2.7627,0.0,0.0,0.0,0.0,2.6266,2.7765,2.833,2.8851,3.0302,3.0522,3.0405,3.0405,3.0595,3.0405,2.9164,2.9061,2.8842,2.7788,2.7876,0.0,3.0053,3.0214,3.0495,3.1534,3.1534,3.1344,3.1095,3.1227,3.1227,3.1035,3.1037,3.1066,3.1066,3.07,3.0829,3.152,3.07,2.9705,2.854,0.0,0.0,0.0,0.0,0.0,0.0,0.0,0.0,0.0,0.0,0.0,0.0,0.0,0.0,0.0,0.0,0.0,0.0,0.0,0.0,0.0,0.0,0.0,0.0,0.0,0.0,0.0,0.0,0.0,2.478,2.5955,0.0,0.0,0.0,0.0,2.8931,2.6242,2.6022,2.9585,2.9697,3.049,3.2292,3.2237,3.3181,3.5276,3.4026,3.4409,3.6497,3.6875,3.7087,3.717,3.717,3.717,3.717,3.717,3.717,3.705,3.5304,3.4776,3.4756,3.1566,3.0484,3.0472,2.8507,2.797,2.8408,2.9701,3.0349,3.0629,3.06,3.0615,3.0352,2.8788,2.8277,0.0,0.0,2.732,2.8321,2.8739,2.9968,3.1139,3.1242,3.149,3.1695,3.1695,3.171,3.1432,3.0492,3.0744,3.0759,2.9511,0.0,3.1914,3.0185,3.121,3.1944,3.1402,3.1593,3.1768,3.1754,3.231,3.2705,3.269,3.209,3.1754,3.1754,3.1154,3.0817,3.0834,3.111,3.092,3.0287,2.932,0.0,0.0,0.0,0.0,0.0,0.0,0.0,0.0,0.0,0.0,0.0,0.0,0.0,0.0,0.0,0.0,0.0,0.0,0.0,0.0,0.0,0.0,0.0,0.0,0.0,0.0,0.0,0.0,2.7496,2.804,0.0,2.977,2.9834,3.0267,3.1374,3.1351,3.2434,3.5076,3.4453,3.4862,3.6745,3.6038,3.647,3.833,3.6785,3.7602,4.0777,3.98,4.0083,4.1436,4.1436,4.1436,4.1436,4.1436,4.1436,4.138,4.084,3.9041,3.6521,3.5331,3.4962,3.4822,3.2869,3.2226,3.2232,3.1529,3.1359,3.1446,3.1446,3.1446,3.1344,3.0773,3.0598,3.0495,3.0042,3.0246,3.0627,3.0729,3.1198,3.1622,3.1622,3.1871,3.2105,3.2105,3.228,3.2324,3.2016,3.1754,3.1607,3.1606,3.2061,3.2427,3.2368,3.25,3.2558,3.228,3.2163,3.2032,3.1827,3.2002,3.2149,3.2149,3.1929,3.1798,3.1798,3.1183,3.1007,3.1432,3.1359,3.1198,3.0978,3.0832,2.9369,0.0,0.0,0.0,0.0,0.0,0.0,0.0,0.0,0.0,0.0,0.0,0.0,0.0,0.0,0.0,0.0,0.0,0.0,0.0,0.0,0.0,0.0,0.0,0.0,0.0,2.4859,2.6395,2.9868,3.0345,3.0964,3.2401,3.3025,3.386,3.512,3.5561,3.6544,3.8365,3.7832,3.8051,3.9392,3.8735,3.9292,4.1162,3.9604,4.0385,4.3535,4.2515,4.2766,4.416,4.416,4.416,4.416,4.416,4.416,4.416,4.416,4.2481,3.9796,3.8802,3.8306,3.7953,3.6125,3.5455,3.5245,3.4081,3.3263,3.2709,3.2709,3.2297,3.1798,3.1798,3.1871,3.1988,3.209,3.212,3.2149,3.2251,3.228,3.228,3.228,3.2529,3.2763,3.2763,3.2939,3.31,3.31,3.2661,3.228,3.228,3.2193,3.2222,3.2544,3.2046,3.1709,3.1826,3.1798,3.171,3.149,3.1856,3.212,3.212,3.1827,3.1724,3.1944,3.1242,3.111,3.1768,3.1373,3.1095,3.0993,3.0876,2.9661,2.7305,0.0,0.0,0.0,0.0,0.0,0.0,0.0,0.0,0.0,0.0,0.0,0.0,0.0,0.0,0.0,0.0,0.0,0.0,0.0,0.0,0.0,0.0,0.0,2.8706,2.896,2.9769,3.1965,3.2899,3.4193,3.6108,3.5587,3.6651,4.024,3.8598,3.7983,3.9226,3.9774,3.9995,3.9995,4.0441,4.1654,4.3728,4.2547,4.2773,4.4492,4.4883,4.5055,4.5055,4.5055,4.5055,4.5055,4.5055,4.5055,4.5055,4.5055,4.5055,4.4771,4.1811,4.0423,3.9827,3.8105,3.7425,3.7384,3.7384,3.6192,3.4652,3.4652,3.3453,3.1942,3.1942,3.2119,3.2398,3.2764,3.2837,3.2866,3.3143,3.3216,3.3231,3.3231,3.3494,3.3773,3.3819,3.3864,3.3879,3.3924,3.3675,3.3043,3.1622,3.1709,3.1691,3.0766,3.0156,0.0,3.0226,3.076,3.1072,3.0974,3.2234,3.3043,3.2896,3.2116,3.1852,3.2426,3.1544,3.1295,3.1798,3.1297,3.0895,3.0668,2.964,2.9434,3.0068,0.0,0.0,0.0,0.0,0.0,0.0,0.0,0.0,0.0,0.0,0.0,0.0,0.0,0.0,0.0,0.0,0.0,0.0,0.0,0.0,0.0,3.0479,3.1382,3.2652,3.1772,3.2455,3.6332,3.6239,3.6513,3.8208,3.8728,3.9567,4.0918,4.0735,4.0855,4.1506,4.2238,4.2642,4.2642,4.3353,4.4222,4.5137,4.4806,4.5174,4.6187,4.6304,4.6562,4.6875,4.6875,4.6875,4.6875,4.6875,4.6875,4.6875,4.6875,4.6699,4.6182,4.4469,4.368,4.3354,4.158,4.0046,3.8907,3.8907,3.8561,3.8127,3.8127,3.6834,3.5295,3.5295,3.435,3.3304,3.3436,3.3466,3.348,3.3523,3.3727,3.3949,3.3949,3.4373,3.5175,3.6653,3.7149,3.7788,3.9277,3.9518,3.8157,3.4081,3.4924,3.6118,3.6071,3.7181,3.8059,3.8158,3.7849,3.6813,3.4631,3.7201,3.7859,3.4796,3.7099,3.7749,3.5556,3.5972,3.5173,3.2632,3.4667,3.5998,3.6205,3.4778,3.4125,0.0,0.0,0.0,0.0,0.0,0.0,0.0,0.0,0.0,0.0,0.0,0.0,0.0,0.0,0.0,0.0,0.0,0.0,0.0,0.0,0.0,0.0,3.3576,3.4835,3.6487,3.5083,3.5194,3.8726,3.8649,3.8709,3.9633,4.0703,4.1426,4.168,4.2266,4.2695,4.2949,4.3789,4.4336,4.4531,4.5371,4.6035,4.6465,4.6509,4.6719,4.7207,4.7207,4.7344,4.7578,4.7578,4.7676,4.7832,4.7656,4.7676,4.7832,4.7656,4.7441,4.7109,0.0,0.0,0.0,0.0,4.3279,4.2367,4.2367,4.184,4.1205,4.1205,3.9919,3.8342,3.8342,3.7689,3.6906,3.6906,3.6955,3.7081,3.7081,3.7223,3.738,3.738,3.7679,3.8291,3.9462,3.9843,4.0367,4.1552,4.1785,0.0,3.8083,3.82,3.8604,3.8311,3.9195,3.9911,4.0067,3.9954,3.9214,3.7481,3.9675,4.0151,3.7506,3.929,0.0,0.0,0.0,3.7459,3.513,3.6593,0.0,0.0,0.0,0.0,0.0,0.0,0.0,0.0,2.9854,2.955,0.0,0.0,0.0,0.0,0.0,0.0,0.0,0.0,0.0,0.0,0.0,0.0,0.0,0.0,0.0,0.0,3.6167,3.7731,3.9629,3.8349,3.7877,3.9751,4.0391,4.0664,4.0664,4.1777,4.2479,4.2518,4.332,4.3828,4.3926,4.4707,0.0,0.0,0.0,4.7285,4.7715,4.7773,4.7832,4.7871,4.7871,4.7871,4.7871,4.7871,4.8066,4.8418,4.8027,4.8086,4.8398,4.8027,4.7871,4.7812,4.7226,4.6777,4.6445,4.6445,4.6445,4.6445,4.6445,0.0,0.0,4.4071,4.2757,4.1225,4.1225,4.1285,4.1361,4.1361,4.1573,4.1785,4.1785,4.1836,4.1905,4.1905,4.1974,4.2136,4.2353,4.2417,4.2463,4.2697,4.2743,4.2848,4.3163,4.1748,4.0316,3.9446,3.9296,3.9394,3.9706,4.0197,4.042,4.0105,4.1166,0.0,4.0696,4.0473,4.0263,4.0025,3.9201,3.8802,3.8884,3.8086,3.7345,3.6648,3.6372,3.6631,3.7553,3.7853,3.8423,3.9193,3.5572,3.4641,0.0,0.0,0.0,0.0,0.0,0.0,0.0,0.0,0.0,0.0,0.0,0.0,0.0,0.0,0.0,3.6719,3.8184,3.9414,3.9844,3.9832,3.995,4.0352,4.1074,4.1543,4.1543,4.2402,4.3086,4.3437,4.3965,4.457,4.5254,4.5781,4.625,4.668,4.7519,4.8164,4.8659,4.8965,4.9336,4.9668,4.9668,0.0,4.9668,4.9668,4.9726,4.9785,4.9707,4.9726,4.9785,4.9707,4.9668,4.9531,4.8027,4.7402,4.7324,4.7324,4.7324,4.7324,4.7324,4.71,4.6831,4.6831,4.5514,4.3951,4.3951,4.2888,0.0,4.1711,4.1763,4.1785,4.1785,4.2232,4.2695,4.2695,4.3142,4.4025,4.573,4.6065,4.6562,4.8263,4.8566,4.8585,4.8661,4.6532,4.4825,4.4916,4.6568,4.7842,4.7938,4.7692,4.6671,4.4322,4.6933,4.7336,4.3499,4.586,4.6272,4.3342,4.1,4.0885,4.3571,4.2444,4.2383,4.3687,4.3634,4.3729,4.3917,4.3607,4.3411,4.3193,3.8991,3.7918,0.0,0.0,0.0,0.0,0.0,0.0,0.0,0.0,0.0,0.0,0.0,3.3488,3.4239,0.0,3.7051,3.7266,3.8926,4.0293,4.0508,4.1445,4.1797,4.0957,4.1973,4.2754,4.2754,4.3535,4.4141,4.4355,4.4785,4.541,4.625,4.6914,4.7558,4.8157,4.8848,4.9297,4.9558,4.9746,4.9961,5.0176,5.0176,5.0176,5.0176,5.0176,5.0293,5.0488,5.0273,5.0293,5.0469,5.0273,5.0176,5.0098,4.9219,4.8887,4.8887,4.8887,4.8887,4.8887,4.8887,4.8887,4.8887,4.8887,4.8246,4.7438,4.7438,4.6766,4.6016,4.6016,4.6016,4.6016,4.6016,4.6264,4.6576,4.6576,4.6823,4.7376,4.8451,4.8642,4.8948,4.9986,5.0176,5.0176,5.0176,4.9204,4.8386,4.8339,4.9404,5.0176,5.0176,5.0,4.9308,4.7859,4.9353,4.9455,4.6934,4.8037,4.8064,4.6223,4.4662,4.4452,4.5909,4.5067,4.4927,4.5683,4.5727,4.5727,4.5727,4.5664,4.5547,4.5289,4.2913,4.2026,0.0,0.0,0.0,0.0,0.0,0.0,0.0,3.4316,3.4818,3.5547,3.5703,3.5703,3.5703,3.6719,3.7692,3.8008,3.957,4.0957,4.1465,4.2715,4.3144,4.1973,4.3086,4.3965,4.3965,4.4766,4.527,4.5348,4.5879,4.6543,4.7338,4.8086,4.8828,4.9629,5.0078,5.0293,5.0293,5.0391,5.043,5.043,5.043,5.043,5.043,5.043,5.0605,5.0898,5.0566,5.0605,5.0898,5.0566,5.043,5.043,5.043,5.043,5.0391,5.0234,5.0176,5.0176,5.0176,5.0176,5.0176,5.0176,5.0176,5.0176,5.0176,5.0176,5.0176,5.0176,5.0176,5.0176,5.0176,5.0234,5.0293,5.0293,5.0447,5.06,5.06,5.0668,5.0763,5.0763,5.0763,5.0763,5.0763,5.099,5.1021,5.0419,5.0371,5.043,5.043,5.043,5.043,5.043,5.043,5.0215,4.9707,4.8848,4.8301,4.8223,4.7812,4.7422,4.707,4.6719,4.6387,4.6098,4.6098,4.6098,4.6098,4.6387,4.6504,4.6426,4.6172,4.5547,2.7956,2.8758,3.0215,3.0859,3.1738,3.3105,0.0,3.6382,3.6968,3.8906,3.9316,3.9316,3.9316,4.0059,4.0722,4.0781,4.125,4.1933,4.2794,4.3068,4.3359,4.3965,4.4531,4.484,4.484,4.5644,4.6308,4.6635,4.7461,4.8301,4.9133,4.927,4.9609,5.0098,5.0508,5.0742,5.0742,5.1113,5.1289,5.1289,5.1289,5.1289,5.1289,5.1289,5.126,5.1319,5.1308,5.126,5.1319,5.126,5.1289,5.1289,5.1289,5.1289,5.1211,5.0449,5.0176,5.0176,5.0176,5.0176,5.0176,5.0176,5.0176,5.0176,5.0176,5.0176,5.0176,5.0176,5.0176,5.0176,5.0176,5.0449,5.0742,5.0742,5.1352,5.1946,5.1946,5.2351,5.2708,5.2708,5.2708,5.2708,5.2708,5.2748,5.2291,5.0945,5.1055,5.1289,5.1289,5.1289,5.1289,5.1289,5.1289,5.0976,5.0176,4.9343,4.8613,4.8223,4.7812,4.7558,4.75,4.7461,4.7422,4.7408,4.7408,4.7408,4.7408,4.7422,4.7246,4.6831,4.7207,4.6699,3.212,3.1582,3.1855,3.5566,3.5762,3.5723,3.832,3.8906,3.916,4.0078,4.0254,4.0254,4.0254,4.0547,4.0957,4.1465,4.2109,4.2754,4.3359,4.4316,4.5098,4.5469,4.6094,4.6308,4.582,4.6758,4.748,4.7656,4.8476,4.9238,4.9863,5.0137,5.0469,5.0898,5.1074,5.1172,5.1172,5.1299,5.1377,5.1377,5.1377,5.1377,5.1377,5.1377,5.1377,5.1377,5.1377,5.1377,5.1377,5.1377,5.1377,5.1377,5.1377,5.1377,5.1338,5.1035,5.0898,5.0898,5.0898,5.0898,5.0898,5.0898,5.0898,5.0946,5.1282,5.1378,5.1426,5.1733,5.1829,5.1829,5.1829,5.1968,5.2087,5.2087,5.2371,5.2655,5.2655,5.2848,5.2992,5.2992,5.2992,5.2992,5.2992,5.2992,5.2788,5.2175,5.1937,5.1862,5.1862,5.1571,5.1377,5.1377,5.1377,5.124,5.0937,5.0351,4.9805,4.9375,4.8945,4.8476,4.7969,4.7949,4.7832,4.7578,4.7578,4.7578,4.7578,4.7578,4.748,4.7305,4.75,4.7285,3.4199,3.3555,3.3594,3.8538,3.8574,3.7926,3.9883,4.0313,4.0391,4.0469,4.0625,4.0742,4.0859,4.1074,4.1465,4.2207,4.2949,4.3672,4.4336,4.5508,4.6387,4.6621,4.7422,4.7695,4.707,4.7851,4.8496,4.873,4.9453,5.0078,5.0508,5.082,5.1113,5.1377,5.1377,5.1377,5.1377,5.1543,5.1601,5.1621,5.1738,5.1728,5.1728,5.1728,5.1728,5.1728,5.1728,5.1728,5.1728,5.1728,5.1728,5.1728,5.1728,5.1728,5.1777,5.166,5.1523,5.1377,5.1377,5.1377,5.1426,5.1571,5.162,5.1717,5.2249,5.2522,5.267,5.3077,5.3274,5.3355,5.3355,5.3355,5.3355,5.3355,5.3451,5.3597,5.3597,5.3693,5.379,5.379,5.3688,5.3607,5.3607,5.3506,5.3425,5.3425,5.2972,5.2587,5.2442,5.1959,5.162,5.162,5.1474,5.1377,5.1377,5.1035,5.0683,5.0371,4.9941,4.9355,4.8594,4.8574,4.8379,4.7994,4.7975,4.7975,4.7975,4.7975,4.7975,4.7975,4.7975,4.7975,3.2402,3.3711,3.5156,3.7406,3.8574,3.9258,3.9785,3.9922,4.0039,4.043,4.0859,4.1289,4.168,4.2441,4.3144,4.3574,4.4043,4.4805,4.6055,4.6269,4.6601,4.7441,4.8346,4.8855,4.8835,4.8855,4.9246,5.0106,5.0527,5.0957,5.1319,5.1358,5.1377,5.1377,5.1377,5.1377,5.1377,5.1855,5.207,5.207,5.248,5.2676,5.2676,5.2676,5.2676,5.2676,5.2676,5.2676,5.2676,5.2676,5.2676,5.2676,5.2676,5.2676,5.2617,5.2207,5.1797,5.1377,5.1377,5.1377,5.1474,5.2008,5.2201,5.2298,5.28,5.3294,5.3656,5.3656,5.3958,5.428,5.428,5.428,5.428,5.428,5.4653,5.5046,5.5046,5.5437,5.5828,5.5828,5.5427,5.5117,5.5117,5.4766,5.4449,5.4449,5.4047,5.3569,5.3041,5.2491,5.2201,5.2201,5.1717,5.1377,5.1377,5.1035,5.0801,5.0781,5.0391,4.9961,4.9465,4.9445,4.9277,4.8874,4.8855,4.8855,4.8855,4.8855,4.8855,4.8855,4.8855,4.8855,3.6562,3.7383,3.7715,3.9609,4.0078,4.0273,4.0996,4.0937,4.1035,4.2012,4.2558,4.3164,4.418,4.4375,4.4609,4.5312,4.5566,4.5898,4.6621,4.7461,4.8223,4.8808,4.9375,4.9891,5.0117,5.0156,5.0273,5.0566,5.0976,5.1289,5.1377,5.1377,5.1562,5.1855,5.1855,5.1992,5.2266,5.2422,5.25,5.25,5.2637,5.2715,5.2715,5.2715,5.2715,5.2715,5.2715,5.2715,5.2715,5.3093,5.3242,5.3242,5.3609,5.3757,5.3737,5.3598,5.3458,5.319,5.2254,5.2153,5.2511,5.2655,5.2952,5.3289,5.3754,5.4272,5.4687,5.5078,5.5278,5.5332,5.5332,5.5332,5.5332,5.5332,5.5478,5.5625,5.5625,5.5772,5.5918,5.5918,5.5745,5.5641,5.5641,5.5269,5.4875,5.4538,5.4095,5.3616,5.3041,5.2848,5.2752,5.2752,5.2559,5.2298,5.1959,5.1821,5.1479,5.082,5.0664,5.041,4.998,4.9961,4.9746,4.9316,4.9297,4.916,4.8913,4.8913,4.8913,4.8913,4.8913,4.8913,3.8633,3.9355,3.9453,4.1191,4.1289,4.1152,4.1855,4.1933,4.2129,4.2951,4.3652,4.4531,4.5683,4.5664,4.5859,4.7051,4.709,4.7187,4.7728,4.8711,4.948,4.9726,5.0137,5.0508,5.0781,5.0937,5.1035,5.1035,5.1221,5.1377,5.1377,5.1582,5.1797,5.207,5.2226,5.2441,5.2715,5.2871,5.3027,5.3183,5.3183,5.3183,5.3183,5.3183,5.3284,5.3485,5.3485,5.3585,5.3765,5.4115,5.4265,5.4265,5.4634,5.4783,5.4763,5.4602,5.4661,5.4639,5.3404,5.3164,5.3524,5.3718,5.407,5.4532,5.505,5.5627,5.6169,5.6515,5.6718,5.6842,5.6842,5.6842,5.6842,5.6842,5.6842,5.6842,5.6842,5.6842,5.6842,5.6842,5.6718,5.6594,5.6594,5.6097,5.5517,5.5082,5.4711,5.432,5.3609,5.3377,5.3281,5.3281,5.3089,5.2848,5.2539,5.2491,5.2227,5.1632,5.142,5.1128,5.0696,5.0505,5.0195,4.9766,4.9766,4.9609,4.9382,4.9382,4.9382,4.9382,4.916,4.918,3.873,3.9766,4.0488,4.209,4.2207,4.2051,4.2421,4.2793,4.3068,4.3107,4.4004,4.5098,4.5976,4.6191,4.6797,4.8496,4.8457,4.8516,4.9394,4.9902,5.0195,5.0234,5.0586,5.084,5.084,5.1191,5.1377,5.1377,5.1377,5.1397,5.1416,5.1855,5.2109,5.2148,5.2539,5.2754,5.2773,5.3203,5.3652,5.4101,5.4101,5.4101,5.4101,5.4101,5.4337,5.4846,5.4846,5.5202,5.5638,5.5688,5.5688,5.5708,5.5739,5.5739,5.5699,5.5306,5.5444,5.5781,5.4789,5.439,5.4468,5.5029,5.5483,5.597,5.6487,5.7256,5.796,5.796,5.827,5.8601,5.8601,5.8601,5.8601,5.8601,5.8601,5.8601,5.8601,5.8601,5.8601,5.8601,5.825,5.7939,5.7918,5.7194,5.6519,5.6021,5.5959,5.5579,5.4641,5.4136,5.3876,5.3856,5.3377,5.3041,5.3041,5.3041,5.3041,5.2992,5.2539,5.2071,5.1702,5.1176,5.074,5.031,5.031,5.029,5.027,5.027,5.027,5.027,4.9793,4.9832,4.1777,4.2637,4.2832,4.3262,4.3555,4.3848,4.4258,4.3203,4.2305,4.299,4.2578,4.2519,4.3691,4.4687,4.5703,4.6797,4.7656,4.8516,4.9394,4.9902,5.041,5.1035,5.1162,5.1269,5.1269,5.1319,5.1377,5.1377,5.1377,5.1582,5.1894,5.2031,5.2432,5.3058,5.3195,5.3359,5.3691,5.4121,5.4551,5.498,5.498,5.498,5.498,5.498,5.524,5.5738,5.5738,5.6099,5.6685,5.7096,5.725,5.728,5.7689,5.7842,5.7801,5.7349,5.7265,5.7253,5.67,5.6054,5.5589,5.6086,5.6499,5.6912,5.7413,5.798,5.8436,5.8436,5.8519,5.8601,5.8601,5.8601,5.8601,5.8601,5.8601,5.8601,5.8601,5.8601,5.8601,5.8601,5.8519,5.8332,5.798,5.7732,5.7297,5.656,5.6436,5.6104,5.5145,5.4924,5.4704,5.4374,5.419,5.3951,5.3616,5.3616,5.3425,5.3041,5.2896,5.274,5.264,5.2495,5.2228,5.1788,5.1788,5.1628,5.1309,5.1309,5.1309,5.1309,5.1189,5.1189,4.3047,4.3984,4.4238,4.4062,4.4336,4.4531,4.3962,4.3105,4.2285,4.2012,4.168,4.2187,4.4651,4.5351,4.6308,4.8496,4.9121,4.9512,5.0019,5.0449,5.0898,5.1319,5.1601,5.1641,5.1397,5.1601,5.1719,5.1719,5.1719,5.1816,5.207,5.2441,5.2949,5.3633,5.3848,5.4141,5.459,5.4844,5.5078,5.5312,5.5573,5.5658,5.5678,5.5938,5.6334,5.6852,5.6852,5.7163,5.775,5.8058,5.814,5.8192,5.8499,5.8601,5.8581,5.8312,5.8229,5.8187,5.7918,5.7504,5.709,5.7132,5.7463,5.7918,5.8374,5.885,5.9222,5.9222,5.9222,5.9222,5.9222,5.9222,5.9222,5.9222,5.9222,5.9222,5.9222,5.9222,5.9222,5.9222,5.9222,5.9078,5.8601,5.8519,5.8208,5.7297,5.7152,5.6821,5.591,5.56,5.5393,5.5145,5.5124,5.5028,5.4718,5.4738,5.4491,5.4018,5.3757,5.3531,5.3329,5.3137,5.2872,5.263,5.261,5.251,5.2268,5.2268,5.2268,5.2248,5.2047,5.2067,4.3281,4.4355,4.4941,4.457,4.4844,4.4746,4.2948,4.2715,4.2344,4.0625,4.0664,4.2207,4.6035,4.6035,4.6699,5.0527,5.0469,5.0078,5.041,5.0781,5.1084,5.1436,5.1797,5.1855,5.1416,5.1836,5.2109,5.2168,5.2285,5.2344,5.2344,5.3097,5.3722,5.4282,5.4622,5.5013,5.5495,5.5495,5.5534,5.5573,5.6148,5.6409,5.6409,5.6929,5.7448,5.7965,5.7965,5.8274,5.8788,5.8788,5.8788,5.8788,5.8788,5.8788,5.8788,5.8726,5.8705,5.8705,5.8705,5.8664,5.856,5.8291,5.8415,5.8788,5.9326,5.9719,5.9988,5.9988,5.9988,5.9988,5.9988,5.9988,5.9988,5.9988,5.9988,5.9988,5.9988,5.9988,5.9988,5.9988,5.9988,5.9864,5.9471,5.9388,5.9098,5.8229,5.8043,5.7711,5.6912,5.6332,5.6001,5.5939,5.5918,5.5918,5.5918,5.5918,5.5752,5.531,5.4834,5.4428,5.4088,5.3655,5.3366,5.3366,5.3306,5.3266,5.3266,5.3225,5.3329,5.3576,5.3189,5.3304,4.3437,4.4355,4.4957,4.4899,4.5508,4.5625,4.3887,4.2461,4.1054,3.9277,3.791,3.8105,4.1641,4.1582,4.2168,4.5683,4.584,4.625,4.8359,4.8711,4.957,5.1719,5.1719,5.1475,5.1397,5.1836,5.2226,5.2578,5.3281,5.3691,5.3691,5.3828,5.4482,5.5733,5.5364,5.5619,5.6504,5.6524,5.6702,5.7038,5.764,5.7904,5.7904,5.801,5.8378,5.8903,5.8903,5.9218,5.9761,5.9761,5.9761,5.9761,5.9761,5.9761,5.9699,5.9326,5.9181,5.9181,5.9181,5.8933,5.8726,5.9409,5.9429,5.9347,6.0195,6.0237,5.9988,5.9988,5.9988,5.9988,5.9988,5.9988,5.9988,5.9988,5.9988,5.9988,5.9988,5.9988,5.9988,5.9988,5.9988,5.9968,5.9885,5.9864,5.9678,5.914,5.8726,5.8291,5.7753,5.6966,5.6353,5.591,5.5918,5.5918,5.5918,5.5918,5.5897,5.5766,5.5696,5.5627,5.5544,5.5447,5.5398,5.5398,5.5027,5.4821,5.4821,5.4423,5.5052,5.6613,5.6527,5.741,4.2656,4.3848,4.4977,4.4977,4.5664,4.5605,4.2988,4.1582,4.0156,3.7734,3.6426,3.6738,4.0195,4.0312,4.0957,4.418,4.5469,4.6562,4.8008,4.9375,5.0683,5.1933,5.2285,5.2266,5.1816,5.2826,5.3635,5.3832,5.4716,5.499,5.4426,5.5044,5.5787,5.6464,5.6419,5.6636,5.7118,5.7118,5.7376,5.786,5.8442,5.8706,5.8706,5.9023,5.9359,5.9569,5.9569,5.9726,5.9988,5.9988,5.9988,5.9988,5.9988,5.9988,5.9968,5.974,5.9657,5.9657,5.9657,5.9678,5.9802,6.0485,6.0237,5.9823,6.0754,6.0878,6.0692,6.0692,6.0692,6.0692,6.0692,6.0692,6.063,6.0402,6.0175,5.9988,5.9988,5.9988,5.9988,5.9988,5.9988,5.9988,5.9988,5.9988,5.9843,5.9367,5.8912,5.8436,5.798,5.7318,5.6821,5.6594,5.6573,5.6573,5.6573,5.6573,5.6469,5.6291,5.627,5.6166,5.5939,5.5918,5.5918,5.5918,5.6733,5.7113,5.7113,5.8017,5.8873,5.976,5.976,6.0269,4.2266,4.3652,4.4996,4.5094,4.5742,4.5371,4.1836,4.0762,3.9572,3.6387,3.5469,3.6289,3.9746,3.9668,4.0117,4.332,4.4941,4.625,4.7617,4.9723,5.1522,5.2443,5.317,5.3338,5.2768,5.4133,5.514,5.5319,5.6228,5.6385,5.5376,5.6451,5.7183,5.7288,5.7521,5.7687,5.7893,5.7794,5.8099,5.8778,5.9206,5.949,5.9572,6.0068,6.0278,6.0278,6.0278,6.0278,6.0278,6.0278,6.0278,6.0278,6.0278,6.0278,6.0278,6.0175,6.0133,6.0133,6.0133,6.032,6.063,6.1115,6.0858,6.0423,6.1074,6.1301,6.128,6.1177,6.1218,6.1301,6.1301,6.1301,6.1198,6.0899,6.0547,6.0278,6.0278,6.0216,6.0133,6.0133,6.005,5.9988,5.9988,5.9988,5.9864,5.9512,5.9057,5.8622,5.827,5.7815,5.7484,5.738,5.7277,5.7185,5.7185,5.7185,5.707,5.6718,5.6718,5.6552,5.618,5.6159,5.6404,5.6823,5.832,5.9285,5.9713,6.1226,6.2203,6.2619,6.2619,6.2872,4.3418,4.459,4.5117,4.5508,4.5957,4.5293,4.1445,4.0508,3.9434,3.5605,3.4785,3.582,3.9316,3.7988,3.7617,4.1426,4.0879,4.1484,4.5859,4.7455,4.965,5.3539,5.4135,5.4353,5.4674,5.5296,5.5939,5.6743,5.764,5.7869,5.7362,5.7857,5.8382,5.8856,5.8475,5.8644,5.9581,5.9174,5.9377,6.0299,6.0498,6.0731,6.1103,6.1156,6.1177,6.1177,6.1177,6.1177,6.1177,6.1177,6.1177,6.1177,6.1177,6.1177,6.1115,6.0775,6.063,6.063,6.063,6.0361,6.0195,6.1011,6.1239,6.1177,6.126,6.1301,6.1198,6.0858,6.1023,6.1301,6.1301,6.1301,6.128,6.1239,6.1198,6.1177,6.1177,6.0899,6.063,6.063,6.0278,5.9988,5.9988,5.9988,5.9988,5.9926,5.9533,5.9222,5.9181,5.8767,5.8312,5.7898,5.7434,5.7185,5.7185,5.7185,5.7165,5.7173,5.7123,5.7152,5.7111,5.7111,5.7964,5.9838,5.9645,6.046,6.2333,6.2108,6.2918,6.4632,6.4632,6.5558,4.1152,4.3301,4.5449,4.5625,4.6191,4.5605,4.1426,4.0489,3.9336,3.5176,3.4349,3.4824,3.6465,3.6152,3.6406,3.8711,4.0039,4.2366,4.6966,4.9525,5.2164,5.5485,5.615,5.5648,5.3889,5.6194,5.8298,5.9511,5.9409,5.9449,5.9818,5.9418,5.9324,5.9536,5.9588,5.9812,6.021,6.0046,6.0288,6.0959,6.1061,6.126,6.1694,6.1425,6.1446,6.1694,6.1404,6.1301,6.1301,6.1301,6.1301,6.1301,6.1301,6.1136,6.092,6.0754,6.0671,6.0651,6.0361,6.0692,6.123,6.126,6.1653,6.21,6.1777,6.1934,6.212,6.1934,6.2017,6.2141,6.2141,6.1955,6.1715,6.1715,6.1487,6.1301,6.1301,6.1156,6.1085,6.1085,6.0941,6.0713,6.0444,6.0402,6.032,6.003,5.9595,5.9305,5.9305,5.8891,5.8539,5.8353,5.7918,5.7525,5.7206,5.7185,5.7185,5.7185,5.7185,5.7763,5.9008,5.9057,5.9995,6.2057,6.3141,6.4086,6.4904,6.5963,6.685,6.76,6.76,6.803,4.0,4.2383,4.4902,4.5664,4.582,4.4824,4.1172,3.9844,3.8301,3.4505,3.3723,3.3899,3.4414,3.4785,3.5508,3.7051,3.9408,4.2782,4.7793,5.0816,5.3459,5.6123,5.6984,5.6498,5.4216,5.7546,6.0227,6.1239,6.0754,6.0671,6.126,6.0918,6.06,6.0477,6.0785,6.1092,6.1338,6.1215,6.1494,6.2141,6.2017,6.2183,6.2617,6.2162,6.212,6.241,6.1934,6.1694,6.1694,6.1694,6.1694,6.1694,6.1694,6.1479,6.1085,6.1085,6.1003,6.0837,6.0506,6.1023,6.1715,6.1404,6.1872,6.2431,6.212,6.2348,6.2679,6.2534,6.261,6.2679,6.2679,6.2452,6.2224,6.2224,6.1976,6.1694,6.1694,6.1591,6.1508,6.1508,6.1384,6.1198,6.0941,6.0775,6.0568,6.0237,5.9802,5.9512,5.9512,5.9769,5.9907,5.976,6.003,5.9684,5.8442,5.8925,5.9207,5.9008,5.8986,5.9674,6.1114,6.1211,6.2153,6.42,6.5632,6.6702,6.7301,6.8701,6.9406,6.9406,6.9406,6.9406,4.0957,4.2382,4.3045,4.5664,4.4687,4.2558,4.0391,3.8242,3.601,3.3359,3.2812,3.3066,3.3958,3.4114,3.4818,3.6953,3.837,4.1413,4.7618,5.0085,5.22,5.4801,5.6009,5.6573,5.6552,5.9398,6.128,6.1301,6.128,6.128,6.1301,6.2183,6.2472,6.1984,6.1963,6.2452,6.3362,6.2921,6.3114,6.406,6.3625,6.3611,6.406,6.3625,6.3362,6.3376,6.2866,6.2679,6.2679,6.2679,6.2679,6.2679,6.2679,6.241,6.1963,6.1963,6.1673,6.128,6.128,6.128,6.1301,6.1301,6.1611,6.1984,6.1984,6.2348,6.2617,6.2162,6.2348,6.2679,6.2679,6.2679,6.2679,6.2679,6.2679,6.2679,6.2679,6.2327,6.1984,6.1984,6.1611,6.1301,6.128,6.0961,6.0671,6.0671,6.0278,5.9988,5.9988,6.1828,6.2945,6.2516,6.436,6.435,6.1244,6.2896,6.3899,6.3275,6.3252,6.3252,6.3277,6.3277,6.4248,6.6307,6.64,6.7393,6.9361,6.9406,6.9406,6.9406,6.9406,6.9406,3.7562,3.9336,4.0898,4.1719,4.1621,4.0684,3.8242,3.7203,3.5893,3.3,3.2598,3.2969,3.3516,3.4375,3.5589,3.74,3.8786,4.2123,4.9344,5.0837,5.3241,5.8686,5.7983,5.7753,5.9657,5.9326,5.9906,6.21,6.1632,6.1549,6.2224,6.2555,6.2617,6.2472,6.3114,6.3549,6.3874,6.3749,6.3811,6.4122,6.5502,6.6272,6.6401,6.7512,6.8043,6.7967,6.7456,6.7286,6.7286,6.7286,6.6353,6.4982,6.4982,6.3724,6.1984,6.1984,6.188,6.1715,6.1404,6.1748,6.2265,6.2265,6.2348,6.2555,6.2866,6.2858,6.2679,6.2493,6.261,6.2679,6.2679,6.2679,6.2679,6.2679,6.2679,6.2679,6.2679,6.2555,6.2472,6.2472,6.2348,6.2162,6.1818,6.1653,6.1857,6.2766,6.2717,6.3049,6.4211,6.4975,6.531,6.5202,6.7065,6.7109,6.3994,6.4342,6.4661,6.45,6.4429,6.5103,6.6489,6.6157,6.6929,6.904,6.8647,6.8792,6.9406,6.9828,7.0003,7.0003,6.9582,6.9406,3.5669,3.7324,3.8887,3.9687,3.9473,3.8613,3.6836,3.6035,3.5092,3.2883,3.2902,3.3398,3.3828,3.4726,3.6421,3.945,4.0014,4.2733,5.0376,5.0866,5.2487,5.8095,5.7971,5.8229,6.0081,5.9947,6.0547,6.2555,6.2162,6.2162,6.2928,6.3114,6.3721,6.4727,6.4485,6.4861,6.5868,6.5945,6.637,6.727,6.869,6.9345,6.9345,7.0307,7.0718,7.0695,6.9983,6.9685,0.0,6.9455,6.855,6.7286,6.7286,6.5642,6.329,6.3459,6.2845,6.1963,6.1893,6.2327,6.2928,6.2928,6.2928,6.299,6.33,6.3052,6.2679,6.2679,6.2679,6.2679,6.2679,6.2679,6.2679,6.2679,6.2679,6.2932,6.3782,6.3797,6.3886,6.4778,6.4939,6.4852,6.4572,6.4507,6.4768,6.5617,6.5349,6.548,6.6577,6.7216,6.7594,6.7594,6.9502,6.9985,6.8084,6.7702,6.7511,6.7297,6.7297,6.7868,6.912,6.8849,6.9162,7.0255,6.9928,6.9607,6.9406,6.9777,6.9953,6.9953,6.9828,6.9607,0.0,3.6035,3.691,3.8926,3.793,3.6348,3.5957,3.4922,0.0,3.3047,3.3547,3.4251,3.4701,3.5399,3.7453,4.2285,4.1871,4.3407,5.0588,5.0496,5.088,5.4269,5.671,5.8353,5.885,6.1189,6.2679,6.2679,6.2679,6.2866,6.3362,6.3874,6.5349,6.8118,6.6135,6.6325,6.9117,6.9139,7.0225,7.2371,7.2588,7.2642,7.2573,7.2297,7.2173,7.208,7.1086,7.0669,7.0623,7.0114,6.9802,6.9646,6.9646,6.8017,6.5738,6.6124,6.4671,6.2608,6.3046,6.3395,6.3604,6.3515,6.3515,6.3618,6.3376,6.3066,6.2679,6.2679,6.2679,6.2679,6.2679,6.2679,6.2679,6.2679,6.2843,6.351,6.5551,6.5736,6.6146,6.8232,6.8646,6.8646,6.8646,6.8674,6.8777,6.8886,6.8107,6.7511,6.7616,6.8933,6.9817,6.9817,7.155,7.2693,7.2693,7.2263,7.1736,7.1234,7.1209,7.1209,7.1209,7.1158,7.0907,7.0426,7.035,7.0003,6.9456,6.9406,6.9406,6.9481,6.9978,6.9928,3.2352,0.0,3.3906,3.4726,3.457,3.4238,0.0,3.4043,3.3613,3.375,3.3958,3.4394,3.5422,3.8248,4.0606,4.1015,4.3296,4.5882,4.8351,5.2222,5.5248,5.6449,5.8881,6.0858,6.1644,6.2307,6.2679,6.2679,6.2679,6.2866,6.3362,6.3874,6.5349,6.8118,6.7989,6.9085,7.1554,7.1554,7.1827,7.2425,7.4229,7.484,7.4512,7.6171,7.6678,7.626,7.5595,7.5351,7.5301,7.4759,7.3508,7.1937,7.1937,7.0509,6.8444,6.8557,6.822,6.7724,6.8271,6.7343,6.5701,6.4388,6.4904,6.5703,6.351,6.2796,6.2679,6.2679,6.2679,6.2679,6.2679,6.2679,6.2679,6.2679,6.3978,6.5337,6.5872,6.725,6.8577,6.9098,6.9202,6.9202,6.9202,6.9202,6.9657,7.0946,7.0604,7.0653,7.193,7.204,7.1979,7.1979,7.2384,7.2693,7.2693,7.2568,7.2489,7.2339,7.2339,7.2339,7.2339,7.1937,7.1661,7.151,7.0727,7.025,7.0079,6.9607,6.9607,7.0054,6.9777,6.9531,3.1435,3.2148,3.2851,3.3086,3.325,3.3476,3.3711,3.3887,3.4141,3.459,3.5013,3.5661,3.6915,3.9105,4.1737,4.4882,4.582,4.6988,4.9554,5.4089,5.7277,5.7525,6.0154,6.2079,6.2348,6.2555,6.2679,6.2679,6.2679,6.299,6.3687,6.4957,6.6999,7.0054,7.1408,7.272,7.4014,7.4014,7.4574,7.5663,7.6926,7.7356,7.7138,7.8326,7.8766,7.8415,7.7611,7.726,7.7185,7.6431,7.536,7.4287,7.4287,7.2877,7.0888,7.0888,7.0269,6.9455,7.0013,6.951,6.8453,6.7441,6.7481,6.7696,6.6152,6.5354,6.4647,6.2904,6.239,6.2628,6.3881,6.4194,6.4465,6.5519,6.6725,6.7867,6.8841,6.9876,7.0867,7.1834,7.2061,7.2061,7.2061,7.2303,7.2781,7.3695,7.3329,7.3207,7.3901,7.3468,7.3016,7.2718,7.2693,7.2693,7.2693,7.2693,7.2693,7.2693,7.2693,7.2693,7.2693,7.2439,7.2163,7.1912,7.1083,7.0677,7.0677,7.0079,6.9978,7.03,6.9702,6.9406,3.1406,3.2148,3.291,3.3359,3.3496,3.362,3.418,3.4609,3.5039,3.5488,3.6744,3.8039,3.9122,4.0547,4.3718,5.0224,4.8774,4.814,5.187,5.5393,5.7711,5.798,6.0671,6.241,6.2245,6.2493,6.2679,6.2679,6.2679,6.3293,6.4562,6.6477,6.9201,7.2836,7.4841,7.6087,7.6428,7.6428,7.7423,7.9394,7.9394,7.9394,7.9394,7.9394,7.9394,7.9319,7.8189,7.7712,7.7611,7.6556,7.6104,7.6104,7.6104,7.4912,7.3256,7.3256,7.2039,7.0442,7.0641,7.1227,7.1803,7.0985,7.0196,6.956,6.9196,6.8336,6.6814,6.3633,6.2799,6.3408,6.5652,6.627,6.6769,6.878,6.9531,7.033,7.2294,7.2641,7.3102,7.4959,7.5328,7.5328,7.5328,7.5753,7.6104,7.6104,7.5603,7.5002,7.4498,7.392,7.3368,7.2743,7.2693,7.2693,7.2693,7.2693,7.2693,7.2693,7.2693,7.2693,7.2693,7.2693,7.2464,7.1912,7.1435,7.1158,7.1083,7.0652,7.0401,7.03,6.9777,6.9481,3.1406,3.2148,3.3398,3.5976,3.5273,3.4759,3.7656,3.7031,3.5937,3.6387,3.9586,4.2343,4.2452,4.787,5.2067,5.1284,5.1308,5.1581,5.1874,5.4379,5.6759,5.8312,6.0246,6.1976,6.3052,6.2866,6.2679,6.2679,6.2679,6.3964,6.683,6.7289,6.9907,7.519,7.5716,7.6849,7.8827,7.8827,7.9059,7.9394,7.9394,7.9394,7.9394,7.9394,7.9394,7.9319,7.8189,7.7712,7.7611,7.6556,7.6104,7.6104,7.6104,7.5906,7.5584,7.5584,7.536,7.4886,7.3377,7.4548,7.601,7.2014,7.1064,7.122,6.9258,6.7682,6.6549,6.6271,6.6519,6.6909,6.7337,6.7411,6.7628,6.8548,7.0152,7.1717,7.2527,7.4163,7.5558,7.588,7.5978,7.5978,7.5978,7.6054,7.6104,7.6104,7.5603,7.5002,7.4498,7.392,7.3368,7.2743,7.2693,7.2693,7.2693,7.2693,7.2693,7.2693,7.2693,7.2693,7.2693,7.2693,7.2464,7.1912,7.1836,7.156,7.1083,7.1008,7.0752,7.03,7.0225,6.9878,3.1435,3.2274,3.4141,3.834,3.7965,3.7086,3.9101,4.0109,4.0119,3.8406,4.103,4.3818,4.4479,4.7474,5.0583,5.2589,5.5186,5.6759,5.6283,5.8146,5.9781,6.0382,6.1624,6.2597,6.3003,6.3908,6.4465,6.4465,6.5627,6.7198,6.925,7.0559,7.2693,7.5774,7.7136,7.8283,7.9394,7.9394,7.9394,7.9394,7.9394,7.9394,7.9369,7.9068,7.8917,7.8867,7.7737,7.726,7.7185,7.6431,7.6104,7.6104,7.6104,7.6104,7.6104,7.6104,7.628,7.6382,7.5258,7.5906,7.6883,7.4412,7.3439,7.3084,7.207,7.0831,6.9841,7.0034,6.8767,6.7655,6.9169,6.9753,7.0338,7.1833,7.3175,7.4242,7.4488,7.536,7.6104,7.6104,7.6104,7.6104,7.6104,7.6104,7.6104,7.6104,7.5829,7.5477,7.4925,7.4372,7.382,7.3268,7.2869,7.2693,7.2693,7.2693,7.2693,7.2693,7.2693,7.2693,7.2693,7.2693,7.2568,7.2364,7.2339,7.2238,7.1962,7.1686,7.141,7.1133,7.0577,7.0175,3.1973,3.3262,3.5762,3.9863,3.9941,3.9529,4.1445,4.3554,4.4334,4.1666,4.3838,4.6489,4.7395,4.7972,4.9767,5.4145,5.767,5.9906,5.9988,6.1272,6.2162,6.2004,6.3108,6.375,6.3498,6.5498,6.6809,6.6809,6.8558,7.0222,7.1651,7.3551,7.5227,7.6667,7.8464,7.9394,7.9394,7.9394,7.9394,7.9394,7.9394,7.9394,7.9369,7.8792,7.8515,7.8465,7.736,7.6883,7.6833,7.633,7.6104,7.6104,7.6104,7.6104,7.6104,7.6104,7.638,7.6682,7.6255,7.638,7.6632,7.6079,7.5301,7.4573,7.4448,7.382,7.3069,7.3069,7.1005,6.9199,7.1194,7.2074,7.2958,7.476,7.5552,7.5953,7.6079,7.6104,7.6104,7.6104,7.6104,7.6104,7.6104,7.6104,7.6104,7.6104,7.6104,7.5903,7.5252,7.4826,7.4347,7.3669,7.3192,7.2818,7.2693,7.2693,7.2693,7.2693,7.2693,7.2693,7.2693,7.2693,7.2693,7.2693,7.2693,7.2693,7.2693,7.2313,7.2037,7.1887,7.0907,7.0426,3.3359,3.5684,3.8984,3.9785,4.0195,4.1661,4.6646,4.7332,4.6869,4.672,5.0176,5.3105,5.2804,5.445,5.5828,5.5786,5.6738,5.8063,5.9761,6.0464,6.1127,6.188,6.3954,6.5383,6.5722,6.7814,6.9178,6.9178,6.977,7.1327,7.3981,7.4797,7.6369,7.9034,7.9317,7.9394,7.9394,7.9394,7.9394,7.9394,7.9394,7.9394,7.9369,7.8792,7.8515,7.8465,7.736,7.6883,7.6833,7.633,7.6104,7.6104,7.6104,7.6104,7.6104,7.6104,7.6129,7.6154,7.6129,7.6129,7.6079,7.5477,7.5202,7.5027,7.4573,7.4347,7.4297,7.4297,7.4055,7.3787,7.353,7.3805,7.4404,7.5028,7.5227,7.5427,7.6004,7.6104,7.6104,7.6104,7.6104,7.6104,7.6104,7.6104,7.6104,7.6104,7.6104,7.5903,7.5252,7.5152,7.4774,7.372,7.3569,7.3318,7.2718,7.2693,7.2693,7.2693,7.2693,7.2693,7.2693,7.2693,7.2693,7.2693,7.2693,7.2693,7.2693,7.2643,7.2414,7.1887,7.1309,7.0803,3.332,3.6133,3.9766,4.2129,4.3799,4.5309,4.6875,5.0131,5.208,4.946,5.1539,5.3976,5.4416,5.4924,5.5993,5.8084,5.7525,5.767,6.0071,6.2275,6.3749,6.4113,6.6314,6.7927,6.8107,7.0165,7.1477,7.1477,7.3257,7.5013,7.6394,7.6989,7.7919,7.9369,7.9394,7.9394,7.9394,7.9394,7.9394,7.9394,7.9394,7.9394,7.9344,7.844,7.8013,7.7938,7.6833,7.6406,7.6406,7.6179,7.6104,7.6104,7.6104,7.6104,7.6104,7.6104,7.6104,7.6104,7.6104,7.6104,7.6004,7.5427,7.4951,7.4623,7.4071,7.3644,7.3443,7.3795,7.4146,7.4372,7.4171,7.4523,7.4926,7.5152,7.5502,7.5804,7.6054,7.6104,7.6104,7.6104,7.6104,7.6104,7.6104,7.6104,7.6104,7.6104,7.6104,7.6029,7.5778,7.5452,7.5027,7.4674,7.3996,7.3368,7.2743,7.2693,7.2693,7.2693,7.2693,7.2693,7.2693,7.2693,7.2693,7.2693,7.2693,7.2693,7.2693,7.2693,7.2568,7.2367,7.1861,7.1485,3.3652,3.7363,4.1621,4.3232,4.6497,4.914,4.8731,5.1611,5.3754,5.1575,5.3487,5.5579,5.5621,5.5496,5.6262,5.8912,5.8532,5.8858,6.1758,6.4656,6.6513,6.6616,6.8919,7.0424,7.0424,7.2471,7.3833,7.4004,7.5981,7.7385,7.7938,7.849,7.8967,7.9369,7.9394,7.9394,7.9394,7.9394,7.9394,7.9394,7.9394,7.9394,7.9344,7.8214,7.7712,7.7637,7.6581,7.6104,7.6104,7.6104,7.6104,7.6104,7.6104,7.6104,7.6104,7.6104,7.6104,7.6104,7.6104,7.6104,7.5978,7.5226,7.4801,7.4548,7.382,7.3443,7.3295,7.3745,7.4121,7.4423,7.4423,7.495,7.5502,7.5502,7.5778,7.6104,7.6104,7.6104,7.6104,7.6104,7.6104,7.6104,7.6104,7.6104,7.6104,7.6104,7.6104,7.6104,7.6104,7.5728,7.5427,7.5202,7.4247,7.3418,7.3042,7.2793,7.2693,7.2693,7.2693,7.2693,7.2693,7.2693,7.2693,7.2693,7.2693,7.2693,7.2693,7.2693,7.2693,7.2668,7.2163,7.1912,3.4779,3.9862,4.517,4.2724,4.7535,5.2958,5.3243,5.1765,5.0989,5.3307,5.6738,5.8726,5.6954,5.6925,5.738,5.7877,5.9449,6.1738,6.4958,6.7334,6.8915,6.9392,7.1374,7.2725,7.2725,7.4762,7.633,7.6833,7.7385,7.7938,7.849,7.9068,7.9394,7.9394,7.9394,7.9394,7.9394,7.9394,7.9394,7.9394,7.9394,7.9394,7.9344,7.8214,7.7712,7.7637,7.6581,7.6104,7.6104,7.6104,7.6104,7.6104,7.6104,7.6104,7.6104,7.6104,7.6104,7.6104,7.6104,7.6104,7.5928,7.4774,7.4751,7.4976,7.392,7.3971,7.4397,7.4397,7.4397,7.4423,7.4423,7.5226,7.6079,7.6104,7.6104,7.6104,7.6104,7.6104,7.6104,7.6104,7.6104,7.6104,7.6104,7.6104,7.6104,7.6104,7.6104,7.6104,7.6104,7.6104,7.5854,7.5252,7.4272,7.3594,7.3594,7.3067,7.2693,7.2693,7.2693,7.2693,7.2693,7.2693,7.2693,7.2693,7.2693,7.2693,7.2693,7.2693,7.2693,7.2668,7.2163,7.1912,4.2011,4.6109,4.9688,5.0191,5.1644,5.3255,5.4255,5.4059,5.3379,5.2564,5.5828,5.8353,5.6892,5.6726,5.8076,6.2021,6.2045,6.2985,6.7158,6.9906,7.1567,7.1709,7.371,7.5112,7.5112,7.6033,7.6757,7.6858,7.7762,7.834,7.8515,7.9068,7.9394,7.9394,7.9394,7.9394,7.9394,7.9394,7.9394,7.9394,7.9394,7.9394,7.9344,7.8214,7.7712,7.7637,7.6581,7.6104,7.6104,7.6104,7.6104,7.6104,7.6104,7.6104,7.6104,7.6104,7.6302,7.6548,7.6203,7.6302,7.6371,7.4871,7.4523,7.4448,7.3318,7.3354,7.3866,7.422,7.4585,7.4972,7.5354,7.5422,7.5413,7.5475,7.5477,7.5578,7.6029,7.6104,7.6104,7.6104,7.6104,7.6104,7.6104,7.6104,7.6104,7.6104,7.6104,7.6104,7.6104,7.6104,7.5854,7.5252,7.4901,7.4423,7.3669,7.3443,7.3167,7.2718,7.2693,7.2693,7.2693,7.2693,7.2693,7.2693,7.2693,7.2693,7.2693,7.2693,7.2693,7.2693,7.2517,7.2489,4.3141,4.7491,5.1717,5.2796,5.4097,5.5168,5.5303,5.5209,5.4711,5.3442,5.6345,5.9303,5.9718,5.9836,6.1292,6.5809,6.6209,6.6952,6.9878,7.2458,7.4036,7.4036,7.5261,7.6179,7.6406,7.6732,7.7059,7.7486,7.8139,7.8616,7.8842,7.9193,7.9394,7.9394,7.9394,7.9394,7.9394,7.9394,7.9394,7.9394,7.9143,7.9043,7.9018,7.8114,7.7586,7.731,7.6481,7.6104,7.6104,7.6104,7.6203,7.64,7.64,7.6499,7.6695,7.6695,7.6892,7.7088,7.6794,7.6892,7.6884,7.5475,7.5024,7.4748,7.3635,7.3541,7.3852,7.4157,7.4494,7.4832,7.5118,7.4958,7.4804,7.5086,7.4997,7.5027,7.5603,7.5728,7.5804,7.6054,7.6104,7.6104,7.6104,7.6104,7.6104,7.6104,7.6104,7.6104,7.6104,7.6104,7.5978,7.5603,7.5328,7.4926,7.4297,7.3845,7.3443,7.3092,7.2818,7.2693,7.2693,7.2693,7.2693,7.2693,7.2693,7.2693,7.2693,7.2693,7.2693,7.2693,7.2693,7.2693,4.1085,4.611,5.2019,5.2492,5.5709,5.8346,5.6791,5.6335,5.6056,5.5467,5.8152,6.144,6.414,6.4854,6.6091,6.9105,7.0976,7.2272,7.2906,7.4837,7.6179,7.6179,7.623,7.6456,7.6958,7.7009,7.7436,7.844,7.8566,7.8842,7.9369,7.9394,7.9394,7.9394,7.9394,7.9394,7.9394,7.9394,7.9394,7.9369,7.8792,7.8439,7.844,7.7862,7.731,7.6833,7.633,7.6104,7.6153,7.6153,7.6449,7.6892,7.6892,7.7186,7.7625,7.7625,7.7625,7.7674,7.7625,7.7625,7.7468,7.6267,7.5882,7.5677,7.4575,7.4217,7.4263,7.4263,7.431,7.4356,7.4356,7.431,7.4426,7.4975,7.4804,7.467,7.5174,7.5325,7.5501,7.6004,7.6153,7.6153,7.6104,7.6153,7.6128,7.6029,7.6079,7.6079,7.6029,7.6029,7.6054,7.6104,7.5578,7.5202,7.5202,7.4322,7.3669,7.3519,7.3016,7.2643,7.259,7.2643,7.2693,7.2693,7.2693,7.2668,7.2618,7.2668,7.2643,7.2618,7.2668,7.2762,4.7687,5.1016,5.3688,5.69,5.9689,6.1424,6.069,6.2344,6.2507,5.7205,6.0945,6.4848,6.415,6.6084,6.8639,7.1068,7.2037,7.3211,7.5087,7.6158,7.6757,7.6757,7.7084,7.7385,7.7511,7.7913,7.8264,7.8515,7.8942,7.9243,7.9369,7.9394,7.9394,7.9394,7.9394,7.9394,7.9394,7.9394,7.9394,7.9369,7.8792,7.8289,7.7862,7.731,7.6808,7.628,7.6154,7.6302,7.6646,7.6646,7.699,7.743,7.743,7.7527,7.7625,7.7625,7.7868,7.8159,7.7771,7.7868,7.7953,7.641,7.5882,7.5677,7.4575,7.4475,7.4825,7.4825,7.5077,7.54,7.54,7.5123,7.4877,7.497,7.5314,7.5631,7.5782,7.6165,7.6396,7.6128,7.64,7.6548,7.6153,7.64,7.6347,7.5526,7.5778,7.5953,7.5477,7.5402,7.5578,7.6054,7.5578,7.5202,7.5202,7.4976,7.4274,7.2991,7.2743,7.2339,7.146,7.2263,7.2693,7.2693,7.2693,7.2467,7.2087,7.2467,7.2467,7.2087,7.2514,7.349,4.7545,5.0743,5.384,5.7939,6.094,6.2756,6.2545,6.5292,6.7014,6.3776,6.5081,6.7037,6.7612,6.9097,7.1071,7.3547,7.4141,7.4762,7.5956,7.6581,7.6883,7.6883,7.736,7.7812,7.8063,7.8365,7.8641,7.8917,7.9218,7.9394,7.9394,7.9394,7.9394,7.9394,7.9394,7.9394,7.9394,7.9394,7.9243,7.8967,7.839,7.7813,7.7258,7.6756,7.638,7.6104,7.6351,7.6597,7.6843,7.7088,7.7527,7.7988,7.7988,7.8159,7.8353,7.8353,7.8546,7.8739,7.845,7.8546,7.8531,7.715,7.6667,7.646,7.5275,7.5123,7.5308,7.5308,7.5492,7.5721,7.5721,7.5538,7.5308,7.5308,7.5192,7.5147,7.5523,7.5566,7.5777,7.6335,7.6437,7.6464,7.6792,7.6794,7.6594,7.6071,7.6027,7.5903,7.5252,7.5202,7.5202,7.5276,7.5025,7.4801,7.4801,7.4598,7.4071,7.3192,7.2844,7.2339,7.151,7.2037,7.2213,7.1937,7.1937,7.1811,7.151,7.1811,7.1786,7.1556,7.269,7.3959,4.4268,4.8513,5.3769,5.806,6.148,6.3856,6.424,6.7321,7.0325,7.0956,6.9674,6.9288,7.2039,7.2702,7.3595,7.5857,7.633,7.6355,7.6255,7.6808,7.7134,7.7034,7.7586,7.8164,7.8616,7.8666,7.8867,7.9344,7.9394,7.9394,7.9394,7.9394,7.9394,7.9394,7.9394,7.9394,7.9394,7.9394,7.9144,7.8617,7.8065,7.7533,7.6941,7.6548,7.6351,7.64,7.6794,7.699,7.7137,7.7576,7.8037,7.8546,7.8546,7.8835,7.922,7.922,7.922,7.922,7.922,7.922,7.9036,7.799,7.7598,7.731,7.6192,7.58,7.5721,7.5721,7.5721,7.5721,7.5721,7.5721,7.5721,7.5721,7.5051,7.4629,7.5101,7.4976,7.5118,7.6398,7.6288,7.6322,7.7369,7.713,7.6788,7.6691,7.6347,7.5851,7.5176,7.4976,7.4776,7.4448,7.4322,7.4322,7.4397,7.3996,7.3644,7.3468,7.2991,7.2439,7.1786,7.2062,7.202,7.1565,7.1565,7.1698,7.1891,7.1993,7.1993,7.1936,7.3526,7.4753,4.0581,4.7525,5.4868,6.0109,6.3685,6.6455,6.8306,7.059,7.2588,7.3637,7.3642,7.3719,7.4611,7.5608,7.6358,7.6758,7.7159,7.731,7.6833,7.7662,7.8114,7.7662,7.8515,7.9193,7.9269,7.9269,7.9294,7.9369,7.9394,7.9394,7.9394,7.9394,7.9394,7.9394,7.9394,7.9394,7.9394,7.9394,7.935,7.9202,7.8563,7.8043,7.7479,7.743,7.743,7.743,7.7479,7.7771,7.8208,7.8256,7.8594,7.9076,7.9076,7.9124,7.922,7.922,7.922,7.922,7.922,7.922,7.9115,7.8414,7.7865,7.7389,7.6688,7.6113,7.5721,7.5721,7.5721,7.5721,7.5721,7.5721,7.5721,7.5721,7.563,7.5556,7.5683,7.6086,7.6284,7.6084,7.5966,7.6241,7.7334,7.7123,7.664,7.6156,7.6058,7.5638,7.4647,7.4121,7.3971,7.4372,7.3996,7.3895,7.4372,7.4347,7.3895,7.2869,7.2718,7.2263,7.1234,7.2758,7.3585,7.3507,7.3488,7.396,7.5095,7.5561,7.5561,7.5121,7.5806,7.71,4.0694,4.765,5.4419,5.8491,6.2773,6.6653,6.9041,7.119,7.2966,7.3795,7.4197,7.4674,7.5527,7.608,7.6556,7.6833,7.7084,7.726,7.7335,7.8013,7.844,7.8189,7.8892,7.9394,7.9394,7.9394,7.9394,7.9394,7.9394,7.9394,7.9394,7.9394,7.9394,7.9394,7.9394,7.9524,7.9858,7.9858,7.9658,7.9299,7.8374,7.8002,7.8062,7.8062,7.7868,7.7625,7.7917,7.8208,7.845,7.8739,7.898,7.922,7.922,7.922,7.922,7.922,7.922,7.922,7.922,7.922,7.9115,7.8518,7.7943,7.7415,7.6793,7.6192,7.5721,7.5721,7.5721,7.5721,7.5721,7.5721,7.5721,7.5721,7.5721,7.5682,7.5758,7.574,7.5745,7.582,7.6391,7.696,7.7409,7.7081,7.6653,7.6461,7.5861,7.5321,7.4836,7.4341,7.3973,7.3875,7.3695,7.3503,7.3443,7.3468,7.322,7.2718,7.3724,7.3992,7.3215,7.4964,7.6327,7.7018,7.6021,7.5578,7.5761,7.5962,7.58,7.5273,7.6561,7.7775,4.108,4.6492,5.1817,5.7055,6.1494,6.569,6.9721,7.1697,7.2894,7.3644,7.4021,7.4548,7.5653,7.6129,7.6456,7.6808,7.6984,7.7185,7.7461,7.8088,7.8465,7.834,7.8942,7.9394,7.9394,7.9394,7.9394,7.9394,7.9394,7.9394,7.9394,7.9394,7.9394,7.9394,7.9394,7.9652,8.0191,8.0167,7.9935,7.9464,7.8506,7.8208,7.8594,7.8594,7.8401,7.8062,7.845,7.8594,7.8643,7.9028,7.922,7.922,7.922,7.922,7.922,7.922,7.922,7.922,7.922,7.922,7.9141,7.8675,7.8152,7.7577,7.7002,7.6401,7.5904,7.5748,7.5721,7.5721,7.5721,7.5721,7.5721,7.5721,7.5721,7.5721,7.5721,7.54,7.5299,7.5714,7.6482,7.7153,7.7467,7.7191,7.6887,7.69,7.6106,7.5417,7.5118,7.463,7.4302,7.4382,7.4403,7.4377,7.4326,7.4326,7.4279,7.414,7.5499,7.6109,7.5732,7.7549,7.8985,7.9956,7.9097,7.8241,7.7452,7.7452,7.7203,7.6802,7.8142,7.901,4.0421,4.2518,4.6103,5.7286,6.0953,6.3825,7.164,7.3022,7.3042,7.4146,7.3971,7.3971,7.5027,7.613,7.6833,7.6933,7.731,7.7486,7.6984,7.7837,7.8314,7.7812,7.8716,7.9394,7.9394,7.9394,7.9394,7.9394,7.9394,7.9394,7.9394,7.9394,7.9394,7.9394,7.9394,7.9652,8.0191,8.0132,8.0086,8.0058,7.943,7.9124,7.9172,7.9172,7.9124,7.9124,7.9172,7.9172,7.9172,7.9172,7.922,7.922,7.922,7.922,7.922,7.922,7.922,7.922,7.922,7.922,7.922,7.9167,7.8727,7.8178,7.7603,7.7028,7.6453,7.5878,7.5721,7.5721,7.5721,7.5721,7.5721,7.5721,7.5721,7.5721,7.5721,7.5675,7.5675,7.5702,7.5728,7.6166,7.731,7.7473,7.7467,7.7465,7.7008,7.625,7.5212,7.4554,7.4866,7.6638,7.6837,7.7351,7.8658,7.8747,7.857,7.8154,7.8198,7.826,7.8189,8.0086,8.1149,8.1207,8.2843,8.3125,8.1881,8.1881,8.1852,8.1823,8.1933,8.1973,3.9254,4.2021,4.5696,5.3288,5.7295,6.0557,6.5128,6.8196,7.0104,7.0154,7.2263,7.4146,7.4171,7.5075,7.6055,7.6758,7.7034,7.7235,7.7385,7.7737,7.8063,7.8214,7.8591,7.8967,7.9344,7.9394,7.9394,7.9394,7.9394,7.9394,7.9394,7.9394,7.9549,7.9884,7.9884,8.0345,8.1211,8.0802,8.0625,8.0599,7.9672,7.922,7.922,7.922,7.922,7.922,7.922,7.922,7.922,7.922,7.922,7.922,7.922,7.922,7.922,7.922,7.922,7.922,7.922,7.922,7.922,7.922,7.8779,7.8283,7.8074,7.7368,7.6558,7.6349,7.6009,7.5721,7.5721,7.5721,7.5721,7.5721,7.5721,7.5721,7.5721,7.5721,7.5721,7.5721,7.5721,7.5852,7.627,7.6349,7.6355,7.6331,7.5922,7.5601,7.5507,7.5021,7.5394,7.7243,7.744,7.7994,7.935,7.9247,7.9011,7.8835,7.9972,8.0664,8.0664,8.2788,8.3927,8.3927,8.4573,8.4234,8.2849,8.2849,8.2617,8.2181,8.2181,8.2181,3.9006,4.1362,4.4389,5.0616,5.4317,5.7499,6.139,6.5559,6.8528,6.8396,7.1435,7.4146,7.4146,7.455,7.5227,7.618,7.6331,7.6507,7.7059,7.731,7.7561,7.7938,7.8139,7.8465,7.9043,7.9093,7.9168,7.9369,7.9394,7.9497,7.9652,7.945,7.9606,8.0167,8.0549,8.1059,8.1767,8.1407,8.1129,8.0871,7.9903,7.9355,7.922,7.922,7.922,7.922,7.922,7.922,7.922,7.922,7.922,7.922,7.922,7.922,7.922,7.922,7.922,7.922,7.922,7.922,7.922,7.922,7.891,7.857,7.8387,7.7656,7.6871,7.6662,7.6192,7.5721,7.5721,7.5721,7.5721,7.5721,7.5721,7.5721,7.5721,7.5721,7.5721,7.5721,7.5721,7.5774,7.5983,7.6009,7.6009,7.6009,7.6258,7.6474,7.6608,7.6917,7.7762,7.9624,7.9798,8.0362,8.1746,8.1605,8.1377,8.1249,8.2381,8.3052,8.3052,8.4544,8.5376,8.5376,8.5376,8.4927,8.3937,8.3774,8.3529,8.3093,8.2901,8.293,0.0,0.0,0.0,4.9614,5.232,5.4777,6.1196,6.5567,6.8477,6.9255,7.161,7.382,7.4901,7.47,7.4598,7.5077,7.5202,7.5427,7.6004,7.6556,7.6858,7.6883,7.736,7.7888,7.8389,7.8515,7.8766,7.9319,7.9369,7.9652,8.014,7.9659,7.9607,8.0162,8.1256,8.1818,8.1818,8.1798,8.1521,8.0871,8.0295,7.972,7.922,7.922,7.922,7.922,7.922,7.922,7.922,7.922,7.922,7.922,7.922,7.922,7.922,7.922,7.922,7.922,7.922,7.922,7.922,7.922,7.922,7.9115,7.8518,7.7943,7.7415,7.6793,7.6218,7.5721,7.5721,7.5721,7.5721,7.5721,7.5767,7.5813,7.5813,7.5833,7.5833,7.5813,7.5813,7.5996,7.6618,7.6769,7.6769,7.6769,7.8196,7.917,7.8672,8.0114,8.193,8.3816,8.3981,8.4585,8.6,8.612,8.592,8.5457,8.5417,8.5417,8.5417,8.5417,8.5417,8.5417,8.5417,8.5417,8.5417,8.5,8.4825,8.4825,8.4344,8.4386,4.0616,0.0,0.0,0.0,0.0,0.0,5.7913,6.0085,6.2621,6.8773,7.033,7.1137,7.3019,7.3923,7.4473,7.4623,7.5301,7.5753,7.5502,7.5929,7.6481,7.6833,7.7009,7.731,7.7862,7.8289,7.8591,7.8741,7.9143,7.9652,8.014,8.0803,8.1182,8.1333,8.1992,8.2371,8.2371,8.2023,8.1521,8.0871,8.0295,7.972,7.922,7.922,7.922,7.922,7.922,7.922,7.922,7.922,7.922,7.922,7.922,7.922,7.922,7.922,7.922,7.922,7.922,7.922,7.922,7.922,7.922,7.9193,7.8989,7.8544,7.7969,7.7394,7.6819,7.627,7.5826,7.5721,7.5721,7.5721,7.6763,7.7727,7.7727,7.8784,7.9285,7.7968,7.7727,7.82,7.968,7.9927,7.9927,7.9927,8.0336,8.0628,8.0461,8.0907,8.193,8.3816,8.3981,8.4708,8.641,8.628,8.604,8.592,8.592,8.592,8.592,8.6211,8.634,8.634,8.634,8.634,8.634,8.5608,8.5244,8.5244,8.5092,8.5092,0.0,0.0,0.0,0.0,0.0,0.0,5.3582,5.6043,5.9357,6.5835,6.7091,6.7875,7.0786,7.0581,7.038,7.1786,7.274,7.3745,7.5002,7.5327,7.5578,7.613,7.6205,7.6507,7.7285,7.7662,7.8039,7.8468,7.8998,7.9683,8.0446,8.1537,8.2016,8.1832,8.2132,8.2282,8.2282,8.1707,8.1106,8.0505,8.0191,7.972,7.922,7.922,7.922,7.922,7.922,7.922,7.922,7.922,7.922,7.9193,7.891,7.8962,7.9167,7.867,7.8597,7.8779,7.8592,7.8513,7.8513,7.8513,7.8513,7.8513,7.8513,7.8074,7.7577,7.7546,7.7607,7.7752,7.7924,7.7986,7.7986,7.7986,7.8801,7.9635,7.9635,8.0433,8.0907,7.9853,7.9635,7.9984,8.1035,8.1207,8.1207,8.1207,8.1888,8.2381,8.2381,8.3052,8.3882,8.5034,8.5115,8.5549,8.6579,8.649,8.633,8.633,8.633,8.633,8.633,8.6569,8.6728,8.6728,8.6728,8.6728,8.6728,8.601,8.5608,8.5376,8.5376,8.5498,0.0,0.0,0.0,0.0,0.0,0.0,4.9866,5.3331,5.7437,6.1878,6.2898,6.4103,6.7875,6.5911,6.4655,6.7593,6.8753,7.0535,7.4048,7.4173,7.4121,7.45,7.4598,7.5174,7.6581,7.6807,7.7358,7.8415,7.9074,7.9783,8.0784,8.1904,8.2308,8.1835,8.1785,8.1785,8.1785,8.1184,8.0583,7.9986,7.9986,7.972,7.922,7.922,7.922,7.922,7.922,7.922,7.922,7.9141,7.9115,7.9041,7.8518,7.8597,7.8906,7.7886,7.7786,7.8152,7.7703,7.752,7.752,7.752,7.752,7.752,7.752,7.7107,7.684,7.7413,7.8498,7.9739,8.0806,8.115,8.1207,8.1207,8.1377,8.1505,8.1505,8.1676,8.1803,8.1803,8.1676,8.159,8.1803,8.1803,8.1803,8.1803,8.3219,8.431,8.431,8.571,8.6728,8.6728,8.6728,8.6728,8.6728,8.6728,8.6728,8.6728,8.6728,8.6728,8.6728,8.6728,8.6728,8.6728,8.6728,8.6728,8.6728,8.633,8.593,8.5538,8.5538,8.5769,0.0,0.0,0.0,0.0,0.0,0.0,5.3206,5.2603,5.3281,6.115,6.0398,5.9344,6.2822,6.3576,6.3902,6.4555,6.6965,6.9155,7.0359,7.0857,7.0958,7.056,7.0876,7.2315,7.5227,7.625,7.7181,7.835,7.9385,8.0041,8.0239,8.1305,8.189,8.1785,8.1785,8.1785,8.1785,8.1184,8.0583,7.9986,7.9986,7.972,7.922,7.922,7.922,7.922,7.922,7.922,7.9167,7.8675,7.8492,7.8466,7.8361,7.81,7.7807,7.7598,7.7572,7.765,7.7546,7.752,7.752,7.752,7.752,7.752,7.752,7.7441,7.7433,7.7974,7.9444,8.0763,8.0489,8.0771,8.1207,8.1207,8.2381,8.3455,8.3455,8.4597,8.564,8.564,8.4474,8.3911,8.5398,8.564,8.564,8.564,8.5951,8.6181,8.6181,8.646,8.6728,8.6728,8.6728,8.6728,8.6728,8.6728,8.6728,8.6728,8.6728,8.6728,8.6728,8.6728,8.6728,8.6728,8.6728,8.6728,8.6728,8.6609,8.653,8.642,8.642,8.653,0.0,0.0,0.0,4.5748,0.0,0.0,0.0,4.9967,5.0569,5.6972,5.5806,5.4727,5.8102,5.8052,5.8202,6.0333,6.1888,6.3247,6.445,6.8568,7.151,7.151,7.1742,7.2732,7.4918,7.5869,7.7072,7.8737,7.9612,8.0166,8.0452,8.106,8.1521,8.1759,8.121,8.1053,8.1315,8.0501,7.9877,7.959,7.959,7.9459,7.922,7.922,7.922,7.9193,7.8858,7.8753,7.8701,7.8126,7.7734,7.7473,7.7473,7.7473,7.7441,7.6819,7.6767,7.7002,7.6688,7.6584,7.6584,7.6584,7.7251,7.8003,7.8003,7.8846,8.0,8.0884,8.1803,8.2587,8.2853,8.3185,8.3458,8.3458,8.4444,8.5358,8.5358,8.6031,8.6728,8.6728,8.5951,8.5629,8.6539,8.6728,8.6728,8.6728,8.6728,8.6728,8.6728,8.6728,8.6728,8.6728,8.6728,8.6728,8.6728,8.6728,8.6728,8.6728,8.6728,8.6728,8.6728,8.6728,8.6728,8.6728,8.6728,8.6728,8.6728,8.6728,8.6728,8.6728,8.6728,8.6728,0.0,0.0,0.0,0.0,0.0,4.6697,0.0,0.0,0.0,5.195,5.1172,5.082,5.3733,5.2521,5.2077,5.5183,5.6446,5.7367,5.8337,6.5504,7.0714,7.0785,7.0876,7.1742,7.3885,7.573,7.7392,7.8835,7.9713,8.0243,8.0374,8.0583,8.0923,8.1419,8.0531,8.0243,8.0714,7.9694,7.922,7.922,7.922,7.922,7.922,7.922,7.9167,7.8989,7.8518,7.8257,7.81,7.7525,7.7028,7.661,7.661,7.6819,7.7049,7.6061,7.6009,7.6375,7.5878,7.5721,7.5767,7.6107,7.7503,7.9005,7.9005,8.0649,8.2625,8.3538,8.3983,8.4368,8.5248,8.5611,8.5701,8.5701,8.621,8.6728,8.6728,8.6728,8.6728,8.6728,8.6728,8.6728,8.6728,8.6728,8.6728,8.6728,8.6728,8.6728,8.6728,8.6728,8.6728,8.6728,8.6728,8.6728,8.6728,8.6728,8.6728,8.6728,8.6728,8.6728,8.6728,8.6728,8.6728,8.6728,8.6728,8.6728,8.6728,8.6728,8.6728,8.6728,8.6728,8.6728,0.0,0.0,0.0,0.0,4.7682,0.0,0.0,0.0,4.8033,4.8485,0.0,4.8611,4.9992,0.0,0.0,4.8812,5.3462,5.6362,5.4023,5.9284,6.2686,6.0891,6.1043,6.3709,6.9894,7.5968,7.901,7.7817,7.9642,8.0139,7.8675,7.9564,8.0165,8.0217,8.0038,8.006,8.0113,7.9485,7.922,7.922,7.922,7.922,7.922,7.922,7.8884,7.8414,7.8335,7.8021,7.7525,7.695,7.6662,7.661,7.661,7.6323,7.5904,7.5748,7.5748,7.58,7.5748,7.5721,7.597,7.7637,7.9416,8.0907,8.0907,8.2269,8.3704,8.3231,8.4262,8.5366,8.4905,8.5252,8.5701,8.5701,8.621,8.6728,8.6728,8.6728,8.6728,8.6728,8.6728,8.6728,8.6728,8.6728,8.6728,8.6728,8.6728,8.6728,8.6728,8.6728,8.6728,8.6728,8.6728,8.6728,8.6728,8.6728,8.6728,8.6728,8.6728,8.6728,8.6728,8.6728,8.6728,8.6728,8.6728,8.6728,8.6728,8.6728,8.6728,8.6728,8.6728,8.6728,0.0,0.0,0.0,0.0,0.0,0.0,4.8837,0.0,4.7832,0.0,0.0,0.0,0.0,0.0,0.0,0.0,5.1222,0.0,5.222,5.4541,5.7539,6.098,6.157,6.3963,6.9817,7.1652,7.3212,7.4807,7.5826,7.6061,7.5329,7.7682,7.8993,7.8993,7.8993,7.9198,7.9537,7.8962,7.8832,7.922,7.922,7.8989,7.8675,7.8675,7.8361,7.7812,7.7473,7.7185,7.6924,7.6323,7.6087,7.6087,7.6087,7.593,7.5721,7.5721,7.5721,7.5721,7.5721,7.64,7.7789,8.0719,8.2212,8.301,8.4046,8.4923,8.553,8.5234,8.5387,8.5551,8.4893,8.4923,8.5132,8.5132,8.5641,8.621,8.6638,8.6728,8.6728,8.6728,8.6728,8.6728,8.6728,8.6728,8.6728,8.6728,8.6728,8.6728,8.6728,8.6728,8.6728,8.6728,8.6728,8.6728,8.6728,8.6728,8.6728,8.6728,8.6728,8.6728,8.6728,8.7048,8.7077,8.6728,8.7077,8.7077,8.6728,8.6728,8.6728,8.6728,8.6728,8.6728,5.8491,0.0,0.0,0.0,0.0,0.0,0.0,0.0,0.0,0.0,0.0,0.0,0.0,0.0,0.0,0.0,0.0,0.0,0.0,5.0804,0.0,0.0,0.0,0.0,0.0,6.7555,6.857,7.1043,7.1958,7.248,7.2637,7.5355,7.7185,7.7839,7.7995,7.8283,7.8749,7.844,7.844,7.8749,7.9063,7.8779,7.81,7.8257,7.7917,7.7211,7.6793,7.6532,7.6323,7.5904,7.5721,7.5721,7.5721,7.5721,7.5721,7.5721,7.6016,7.6445,7.6445,7.8013,8.0417,8.3122,8.431,8.4993,8.6301,8.6728,8.6728,8.6728,8.621,8.5551,8.4893,8.4714,8.4654,8.4465,8.4953,8.5611,8.627,8.6459,8.6489,8.6668,8.6728,8.6728,8.6728,8.6728,8.6728,8.6728,8.6728,8.6728,8.6728,8.6728,8.6728,8.6728,8.6728,8.6728,8.6728,8.6728,8.6728,8.6728,8.7057,8.7177,8.6958,8.7437,8.7467,8.6958,8.7257,8.7167,8.6728,8.6728,8.6728,8.6728,8.6728,8.6728,0.0,0.0,0.0,6.5034,0.0,0.0,0.0,0.0,5.044,0.0,0.0,0.0,0.0,0.0,0.0,0.0,0.0,0.0,0.0,0.0,0.0,0.0,0.0,0.0,0.0,6.5201,6.8126,0.0,6.9082,7.0912,7.1435,7.2611,7.431,7.6584,7.7211,7.7546,7.7572,7.8048,7.8048,7.7572,7.8696,7.8618,7.7546,7.8074,7.7708,7.6636,7.661,7.627,7.5748,7.5721,7.5721,7.5721,7.5721,7.5721,7.5721,7.5721,7.6853,7.8413,7.8413,8.0763,8.3857,8.394,8.5196,8.6619,8.6659,8.6728,8.6728,8.6728,8.621,8.5551,8.4893,8.4714,8.4564,8.3867,8.4226,8.4923,8.5581,8.5731,8.591,8.6578,8.6728,8.6728,8.6728,8.6728,8.6728,8.6728,8.6728,8.6728,8.6728,8.6728,8.6728,8.6728,8.6728,8.6728,8.6728,8.6728,8.6728,8.6728,8.7915,8.8334,8.7706,8.7706,8.7706,8.7676,8.7048,8.6728,8.6728,8.6728,8.6728,8.6728,8.6728,8.6728,0.0,0.0,6.7152,7.0898,0.0,0.0,0.0,0.0,0.0,0.0,0.0,0.0,0.0,0.0,0.0,0.0,0.0,0.0,0.0,0.0,0.0,0.0,0.0,0.0,0.0,0.0,0.0,0.0,6.4364,0.0,6.7906,7.0912,7.3474,7.5408,7.6401,7.6898,7.6898,7.7081,7.729,7.752,7.8231,7.8021,7.6924,7.7499,7.7107,7.6009,7.6009,7.6611,7.7547,7.7547,7.8253,7.9345,7.9345,7.9345,7.917,7.8013,7.795,7.8856,8.1277,8.2955,8.4187,8.5398,8.6221,8.6728,8.6728,8.6728,8.6728,8.6728,8.6549,8.609,8.4983,8.4714,8.4534,8.3867,8.3867,8.4196,8.4893,8.5043,8.5252,8.591,8.603,8.615,8.6638,8.6728,8.6728,8.6728,8.6728,8.6728,8.6728,8.6728,8.6728,8.6728,8.6728,8.6728,8.6728,8.6728,8.6728,8.6728,8.7147,8.7257,8.7048,8.7467,8.7496,8.7048,8.7257,8.7137,8.6728,8.6728,8.6728,8.6728,8.6728,8.6728,7.4156,7.3009,0.0,7.57,7.063,0.0,6.5416,0.0,0.0,0.0,0.0,0.0,0.0,0.0,0.0,0.0,0.0,0.0,0.0,0.0,0.0,0.0,0.0,0.0,0.0,0.0,0.0,0.0,0.0,0.0,0.0,6.8716,7.1722,7.4493,7.5512,7.6113,7.6296,7.6296,7.6823,7.7883,7.8864,7.8969,7.8272,7.9123,7.8491,7.6717,7.7386,7.7968,7.8546,7.9181,8.0157,8.1207,8.1207,8.1207,8.1078,7.9897,7.9853,8.0892,8.3911,8.4952,8.5155,8.634,8.6728,8.6728,8.6728,8.6728,8.6848,8.7566,8.7447,8.6838,8.6,8.5432,8.4773,8.3666,8.3397,8.3576,8.4205,8.4316,8.4624,8.5521,8.5701,8.591,8.6569,8.6728,8.6728,8.6728,8.6728,8.6728,8.6728,8.6728,8.6728,8.6728,8.6728,8.6728,8.6728,8.6898,8.6928,8.6728,8.7177,8.7287,8.7048,8.7467,8.7616,8.7447,8.7347,8.7227,8.7048,8.6848,8.6728,8.6728,8.6728,8.6728]}]]